[[{"header":{"parameterUnit":"m.s-1","parameterCategory":1,"la1":31.0,"la2":29.5877,"lo1":-88.7671,"lo2":-86.6584,"dy":0.0162,"dx":0.0185,"nx":115,"ny":88,"refTime":"2023-06-09T12:00:00:Z","depth":0,"parameterNumber":2,"parameterNumberName":"U-component_of_WINDS"},"data":[0.0,0.0,0.0,0.0,0.0,0.0,0.0,0.0,0.0,0.0,0.0,0.0,0.0,0.0,0.0,0.0,0.0,0.0,0.0,0.0,0.0,0.0,0.0,0.0,0.0,0.0,0.0,0.0,0.0,0.0,0.0,0.0,0.0,0.0,0.0,0.0,0.0,0.0,0.0,0.0,0.0,0.0,0.0,0.0,0.0,0.0,0.0,0.0,0.0,0.0,0.0,0.0,0.0,0.0,0.0,0.0,0.0,0.0,0.0,0.0,0.0,0.0,0.0,0.0,0.0,0.0,0.0,0.0,0.0,0.0,0.0,0.0,0.0,0.0,0.0,0.0,0.0,0.0,0.0,0.0,0.0,0.0,0.0,0.0,0.0,0.0,0.0,0.0,0.0,0.0,0.0,0.0,0.0,0.0,0.0,0.0,0.0,0.0,0.0,0.0,0.0,0.0,0.0,0.0,0.0,0.0,0.0,0.0,0.0,0.0,0.0,0.0,0.0,0.0,0.0,0.0,0.0,0.0,0.0,0.0,0.0,0.0,0.0,0.0,0.0,0.0,0.0,0.0,0.0,0.0,0.0,0.0,0.0,0.0,0.0,0.0,0.0,0.0,0.0,0.0,0.0,0.0,0.0,0.0,0.0,0.0,0.0,0.0,0.0,0.0,0.0,0.0,0.0,0.0,0.0,0.0,0.0,0.0,0.0,0.0,0.0,0.0,0.0,0.0,0.0,0.0,0.0,0.0,0.0,0.0,0.0,0.0,0.0,0.0,0.0,0.0,0.0,0.0,0.0,0.0,0.0,0.0,0.0,0.0,0.0,0.0,0.0,0.0,0.0,0.0,0.0,0.0,0.0,0.0,0.0,0.0,0.0,0.0,0.0,0.0,0.0,0.0,0.0,0.0,0.0,0.0,0.0,0.0,0.0,0.0,0.0,0.0,0.0,0.0,0.0,0.0,0.0,0.0,0.0,0.0,0.0,0.0,0.0,0.0,0.0,0.0,0.0,0.0,0.0,0.0,0.0,0.0,0.0,0.0,0.0,0.0,0.0,0.0,0.0,0.0,0.0,0.0,0.0,0.0,0.0,0.0,0.0,0.0,0.0,0.0,0.0,0.0,0.0,0.0,0.0,0.0,0.0,0.0,0.0,0.0,0.0,0.0,0.0,0.0,0.0,0.0,0.0,0.0,0.0,0.0,0.0,0.0,0.0,0.0,0.0,0.0,0.0,0.0,0.0,0.0,0.0,0.0,0.0,0.0,0.0,0.0,0.0,0.0,0.0,0.0,0.0,0.0,0.0,0.0,0.0,0.0,0.0,0.0,0.0,0.0,0.0,0.0,0.0,0.0,0.0,0.0,0.0,0.0,0.0,0.0,0.0,0.0,0.0,0.0,0.0,0.0,0.0,0.0,0.0,0.0,0.0,0.0,0.0,0.0,0.0,0.0,0.0,0.0,0.0,0.0,0.0,0.0,0.0,0.0,0.0,0.0,0.0,0.0,0.0,0.0,0.0,0.0,0.0,0.0,0.0,0.0,0.0,0.0,0.0,0.0,0.0,0.0,0.0,0.0,0.0,0.0,0.0,0.0,0.0,0.0,0.0,0.0,0.0,0.0,0.0,0.0,0.0,0.0,0.0,0.0,0.0,0.0,0.0,0.0,0.0,0.0,0.0,0.0,0.0,0.0,0.0,0.0,0.0,0.0,0.0,0.0,0.0,0.0,0.0,0.0,0.0,0.0,0.0,0.0,0.0,0.0,0.0,0.0,0.0,0.0,0.0,0.0,0.0,0.0,0.0,0.0,0.0,0.0,0.0,0.0,0.0,0.0,0.0,0.0,0.0,0.0,0.0,0.0,0.0,0.0,0.0,0.0,0.0,0.0,0.0,0.0,0.0,0.0,0.0,0.0,0.0,0.0,0.0,0.0,0.0,0.0,0.0,0.0,0.0,0.0,0.0,0.0,0.0,0.0,0.0,0.0,0.0,0.0,0.0,0.0,0.0,0.0,0.0,0.0,0.0,0.0,0.0,0.0,0.0,0.0,0.0,0.0,0.0,0.0,0.0,0.0,0.0,0.0,0.0,0.0,0.0,0.0,0.0,0.0,0.0,0.0,0.0,0.0,0.0,0.0,0.0,0.0,0.0,0.0,0.0,0.0,0.0,0.0,0.0,0.0,0.0,0.0,0.0,0.0,0.0,0.0,0.0,0.0,0.0,0.0,0.0,0.0,0.0,0.0,0.0,0.0,0.0,0.0,0.0,0.0,0.0,0.0,0.0,0.0,0.0,0.0,0.0,0.0,0.0,0.0,0.0,0.0,0.0,0.0,0.0,0.0,0.0,0.0,0.0,0.0,0.0,0.0,0.0,0.0,0.0,0.0,0.0,0.0,0.0,0.0,0.0,0.0,0.0,0.0,0.0,0.0,0.0,0.0,0.0,0.0,0.0,0.0,0.0,0.0,0.0,0.0,0.0,0.0,0.0,0.0,0.0,0.0,0.0,0.0,0.0,0.0,0.0,0.0,0.0,0.0,0.0,0.0,0.0,0.0,0.0,0.0,0.0,0.0,0.0,0.0,0.0,0.0,0.0,0.0,0.0,0.0,0.0,0.0,0.0,0.0,0.0,0.0,0.0,0.0,0.0,0.0,0.0,0.0,0.0,0.0,0.0,0.0,0.0,0.0,0.0,0.0,0.0,0.0,0.0,0.0,0.0,0.0,0.0,0.0,0.0,0.0,0.0,0.0,0.0,0.0,0.0,0.0,0.0,0.0,0.0,0.0,0.0,0.0,0.0,0.0,0.0,0.0,0.0,0.0,0.0,0.0,0.0,0.0,0.0,0.0,0.0,0.0,0.0,0.0,0.0,0.0,0.0,0.0,0.0,0.0,0.0,0.0,0.0,0.0,0.0,0.0,0.0,0.0,0.0,0.0,0.0,0.0,0.0,0.0,0.0,0.0,0.0,0.0,0.0,0.0,0.0,0.0,0.0,0.0,0.0,0.0,0.0,0.0,0.0,0.0,0.0,0.0,0.0,0.0,0.0,0.0,0.0,0.0,0.0,0.0,0.0,0.0,0.0,0.0,0.0,0.0,0.0,0.0,0.0,0.0,0.0,0.0,0.0,0.0,0.0,0.0,0.0,0.0,0.0,0.0,0.0,0.0,0.0,0.0,0.0,0.0,0.0,0.0,0.0,0.0,0.0,0.0,0.0,0.0,0.0,0.0,0.0,0.0,0.0,0.0,0.0,0.0,0.0,0.0,0.0,0.0,0.0,0.0,0.0,0.0,0.0,0.0,0.0,0.0,0.0,0.0,0.0,0.0,0.0,0.0,0.0,0.0,0.0,0.0,0.0,0.0,0.0,0.0,0.0,0.0,0.0,0.0,0.0,0.0,0.0,0.0,0.0,0.0,0.0,0.0,0.0,0.0,0.0,0.0,0.0,0.0,0.0,0.0,0.0,0.0,0.0,0.0,0.0,0.0,0.0,0.0,0.0,0.0,0.0,0.0,0.0,0.0,0.0,0.0,0.0,0.0,0.0,0.0,0.0,0.0,0.0,0.0,0.0,0.0,0.0,0.0,0.0,0.0,0.0,0.0,0.0,0.0,0.0,0.0,0.0,0.0,0.0,0.0,0.0,0.0,0.0,0.0,0.0,0.0,0.0,0.0,0.0,0.0,0.0,0.0,0.0,0.0,0.0,0.0,0.0,0.0,0.0,0.0,0.0,0.0,0.0,0.0,0.0,0.0,0.0,0.0,0.0,0.0,0.0,0.0,0.0,0.0,0.0,0.0,0.0,0.0,0.0,0.0,0.0,0.0,0.0,0.0,0.0,0.0,0.0,0.0,0.0,0.0,0.0,0.0,0.0,0.0,0.0,0.0,0.0,0.0,0.0,0.0,0.0,0.0,0.0,0.0,0.0,0.0,0.0,0.0,0.0,0.0,0.0,0.0,0.0,0.0,0.0,0.0,0.0,0.0,0.0,0.0,0.0,0.0,0.0,0.0,0.0,0.0,0.0,0.0,0.0,0.0,0.0,0.0,0.0,0.0,0.0,0.0,0.0,0.0,0.0,0.0,0.0,0.0,0.0,0.0,0.0,0.0,0.0,0.0,0.0,0.0,0.0,0.0,0.0,0.0,0.0,0.0,0.0,0.0,0.0,0.0,0.0,0.0,0.0,0.0,0.0,0.0,0.0,0.0,0.0,0.0,0.0,0.0,0.0,0.0,0.0,0.0,0.0,0.0,0.0,0.0,0.0,0.0,0.0,0.0,0.0,0.0,0.0,0.0,0.1389,0.0,0.0,0.0,0.0,0.0,0.0,0.0,0.0,0.0,0.0,0.0,0.0,0.0,0.0,0.0,0.0,0.0,0.0,0.0,0.0,0.0,0.0,0.0,0.0,0.0,0.0,0.0,0.0,0.0,0.0,0.0,0.0,0.0,0.0,0.0,0.0,0.0,0.0,0.0,0.0,0.0,0.0,0.0,0.0,0.0,0.0,0.0,0.0,0.0,0.0,0.0,0.0,0.0,0.0,0.0,0.0,0.0,0.0,0.0,0.0,0.0,0.0,0.0,0.0,0.0,0.0,0.0,0.0,0.0,0.0,0.0,0.0,0.0,0.0,0.0,0.0,0.0,0.0,0.0,0.0,0.0,0.0,0.0,0.0,0.0,0.0,0.0,0.0,0.0,0.0,0.0,0.0,0.0,0.0,0.0,0.0,0.0,0.0,0.0,0.0,0.0,0.0,0.0,0.0,0.0,0.0,0.0,0.0,0.0,0.0,0.3642,0.2442,0.1942,0.1174,0.0092,0.0,0.0,0.0,0.0,0.0,0.0,0.0,0.0,0.0,0.0,0.0,0.0,0.0,0.0,0.0,0.0,0.0,0.0,0.0,0.0,0.0,0.0,0.0,0.0,0.0,0.0,0.0,0.0,0.0,0.0,0.0,0.0,0.0,0.0,0.0,0.0,0.0,0.0,0.0,0.0,0.0,0.0,0.0,0.0,0.0,0.0,0.0,0.0,0.0,0.0,0.0,0.0,0.0,0.0,0.0,0.0,0.0,0.0,0.0,0.0,0.0,0.0,0.0,0.0,0.0,0.0,0.0,0.0,0.0,0.0,0.0,0.0,0.0,0.0,0.0,0.0,0.0,0.0,0.0,0.0,0.0,0.0,0.0,0.0,0.0,0.0,0.0,0.0,0.0,0.0,0.0,0.0,0.0,0.0,0.0,0.0,0.0,0.0,0.0,0.0,0.0,0.0,0.0,0.0,0.0,0.0,0.0,0.0,0.0,0.0,0.0,0.0,0.1151,-0.0116,-0.1611,0.0,0.0,0.0,0.0,0.0,0.0,0.0,0.0,0.0,0.0,0.0,0.0,0.0,0.0,0.0,0.0,0.0,0.0,0.0,0.0,0.0,0.0,0.0,0.0,0.0,0.0,0.0,0.0,0.0,0.0,0.0,0.0,0.0,0.0,0.0,0.0,0.0,0.0,0.0,0.0,0.0,0.0,0.0,0.0,0.0,0.0,0.0,0.0,0.0,0.0,0.0,0.0,0.0,0.0,0.0,0.0,0.0,0.0,0.0,0.0,0.0,0.0,0.0,0.0,0.0,0.0,0.0,0.0,0.0,0.0,0.0,0.0,0.0,0.0,0.0,0.0,0.0,0.0,0.0,0.0,0.0,0.0,0.0,0.0,0.0,0.0,0.0,0.0,0.0,0.0,0.0,0.0,0.0,0.0,0.0,0.0,0.0,0.0,0.0,0.0,0.0,0.0,0.0,0.0,0.0,0.0,0.0,0.0,0.0,0.0,0.304,0.2874,0.0646,0.0,-0.3499,0.0,0.0,0.0,0.0,0.0,0.0,0.0,0.0,0.0,0.0,0.0,0.0,0.0,0.0,0.0,0.0,0.0,0.0,0.0,0.0,0.0,0.0,0.0,0.0,0.0,0.0,0.0,0.0,0.0,0.0,0.0,0.0,0.0,0.0,0.0,0.0,0.0,0.0,0.0,0.0,0.0,0.0,0.0,0.0,0.0,0.0,0.0,0.0,0.0,0.0,0.0,0.0,0.0,0.0,0.0,0.0,0.0,0.0,0.0,0.0,0.0,0.0,0.0,0.0,0.0,0.0,0.0,0.0,0.0,0.0,0.0,0.0,0.0,0.0,0.0,0.0,0.0,0.0,0.0,0.0,0.0,0.0,0.0,0.0,0.0,0.0,0.0,0.0,0.0,0.0,0.0,0.0,0.0,0.0,0.0,0.0,0.0,0.0,0.0,0.0,0.0,0.0,0.0,0.0,0.0,0.0,0.0,0.0,0.0,0.0,0.2662,0.2532,0.0133,-0.171,0.0,0.0,0.0,0.0,0.0,0.0,0.0,0.0,0.0,0.0,0.0,0.0,0.0,0.0,0.0,0.0,0.0,0.0,0.0,0.0,0.0,0.0,0.0,0.0,0.0,0.0,0.0,0.0,0.0,0.0,0.0,0.0,0.0,0.0,0.0,0.0,0.0,0.0,0.0,0.0,0.0,0.0,0.0,0.0,0.0,0.0,0.0,0.0,0.0,0.0,0.0,0.0,0.0,0.0,0.0,0.0,0.0,0.0,0.0,0.0,0.0,0.0,0.0,0.0,0.0,0.0,0.0,0.0,0.0,0.0,0.0,0.0,0.0,0.0,0.0,0.0,0.0,0.0,0.0,0.0,0.0,0.0,0.0,0.0,0.0,0.0,0.0,0.0,0.0,0.0,0.0,0.0,0.0,0.0,0.0,0.0,0.0,0.0,0.0,0.0,0.0,0.0,0.0,0.0,0.0,0.0,0.0,0.0,0.0,0.0,0.3292,0.2133,0.1264,-0.0394,-0.174,-0.255,0.0,0.0,0.0,0.0,0.0,0.0,0.0,0.0,0.0,0.0,0.0,0.0,0.0,0.0,0.0,0.0,0.0,0.0,0.0,0.0,0.0,0.0,0.0,0.0,0.0,0.0,0.0,0.0,0.0,0.0,0.0,0.0,0.0,0.0,0.0,0.0,0.0,0.0,0.0,0.0,0.0,0.0,0.0,0.0,0.0,0.0,0.0,0.0,0.0,0.0,0.0,0.0,0.0,0.0,0.0,0.0,0.0,0.0,0.0,0.0,0.0,0.0,0.0,0.0,0.0,0.0,0.0,0.0,0.0,0.0,0.0,0.0,0.0,0.0,0.0,0.0,0.0,0.0,0.0,0.0,0.0,0.0,0.0,0.0,0.0,0.0,0.0,0.0,0.0,0.0,0.0,0.0,0.0,0.0,0.0,0.0,0.0,0.0,0.0,0.0,0.0,0.0,0.0,0.0,0.0,0.0,0.0,0.0,0.5181,0.3501,0.1453,-0.0778,-0.0943,-0.1732,0.0,0.0,0.0,0.0,0.0,0.0,0.0,0.0,0.0,0.0,0.0,0.0,0.0,0.0,0.0,0.0,0.0,0.0,0.0,0.0,0.0,0.0,0.0,0.0,0.0,0.0,0.0,0.0,0.0,0.0,0.0,0.0,0.0,0.0,0.0,0.0,0.0,0.0,0.0,0.0,0.0,0.0,0.0,0.0,0.0,0.0,0.0,0.0,0.0,0.0,0.0,0.0,0.0,0.0,0.0,0.0,0.0,0.0,0.0,0.0,0.0,0.0,0.0,0.0,0.0,0.0,0.0,0.0,0.0,0.0,0.0,0.0,0.0,0.0,0.0,0.0,0.0,0.0,0.0,0.0,0.0,0.0,0.0,0.0,0.0,0.0,0.0,0.0,0.0,0.0,0.0,0.0,0.0,0.0,0.0,0.0,0.0,0.0,0.0,0.0,0.0,0.0,0.0,0.0,0.0,0.0,0.0,0.0,0.0,0.4187,0.2983,0.1509,-0.0196,-0.0388,-0.1132,0.0,0.0,0.0,0.0,0.0,0.0,0.0,0.0,0.0,0.0,0.0,0.0,0.0,0.0,0.0,0.0,0.0,0.0,0.0,0.0,0.0,0.0,0.0,0.0,0.0,0.0,0.0,0.0,0.0,0.0,0.0,0.0,0.0,0.0,0.0,0.0,0.0,0.0,0.0,0.0,0.0,0.0,0.0,0.0,0.0,0.0,0.0,0.0,0.0,0.0,0.0,0.0,0.0,0.0,0.0,0.0,0.0,0.0,0.0,0.0,0.0,0.0,0.0,0.0,0.0,0.0,0.0,0.0,0.0,0.0,0.0,0.0,0.0,0.0,0.0,0.0,0.0,0.0,0.0,0.0,0.0,0.0,0.0,0.0,0.0,0.0,0.0,0.0,0.0,0.0,0.0,0.0,0.0,0.0,0.0,0.0,0.0,0.0,0.0,0.0,0.0,0.0,0.0,0.0,0.0,0.0,0.0,0.0,0.0,0.33,0.0,0.1634,0.0526,-0.003,-0.0664,0.0,0.0,0.0,0.0,0.0,0.0,0.0,0.0,0.0,0.0,0.0,0.0,0.0,0.0,0.0,0.0,0.0,0.0,0.0,0.0,0.0,0.0,0.0,0.0,0.0,0.0,0.0,0.0,0.0,0.0,0.0,0.0,0.0,0.0,0.0,0.0,0.0,0.0,0.0,0.0,0.0,0.0,0.0,0.0,0.0,0.0,0.0,0.0,0.0,0.0,0.0,0.0,0.0,0.0,0.0,0.0,0.0,0.0,0.0,0.0,0.0,0.0,0.0,0.0,0.0,0.0,0.0,0.0,0.0,0.0,0.0,0.0,0.0,0.0,0.0,0.0,0.0,0.0,0.0,0.0,0.0,0.0,0.0,0.0,0.0,0.0,0.0,0.0,0.0,0.0,0.0,0.0,0.0,0.0,0.0,0.0,0.0,0.0,0.0,0.0,0.0,0.0,0.0,0.0,0.0,0.0,0.0,0.0,0.3887,0.2669,0.2292,0.1742,0.1008,0.0106,-0.0446,0.0,0.0,0.0,0.0,0.0,0.0,0.0,0.0,0.0,0.0,0.0,0.0,0.0,0.0,0.0,0.0,0.0,0.0,0.0,0.0,0.0,0.0,0.0,0.0,0.0,0.0,0.0,0.0,0.0,0.0,0.0,0.0,0.0,0.0,0.0,0.0,0.0,0.0,0.0,0.0,0.0,0.0,0.0,0.0,0.0,0.0,0.0,0.0,0.0,0.0,0.0,0.0,0.0,0.0,0.0,0.0,0.0,0.0,0.0,0.0,0.0,0.0,0.0,0.0,0.0,0.0,0.0,0.0,0.0,0.0,0.0,0.0,0.0,0.0,0.0,0.0,0.0,0.0,0.0,0.0,0.0,0.0,0.0,0.0,0.0,0.0,0.0,0.0,0.0,0.0,0.0,0.0,0.0,0.0,0.0,0.0,0.0,0.0,0.0,0.0,0.0,0.0,0.0,0.0,0.0,0.0,0.0,0.0,0.0,0.282,0.2214,0.1611,0.1011,0.0168,-0.0428,0.0,0.0,0.0,0.0,0.0,0.0,0.0,0.0,0.0,0.0,0.0,0.0,0.0,0.0,0.0,0.0,0.0,0.0,0.0,0.0,0.0,0.0,0.0,0.0,0.0,0.0,0.0,0.0,0.0,0.0,0.0,0.0,0.0,0.0,0.0,0.0,0.0,0.0,0.0,0.0,0.0,0.0,0.0,0.0,0.0,0.0,0.0,0.0,0.0,0.0,0.0,0.0,0.0,0.0,0.0,0.0,0.0,0.0,0.0,0.0,0.0,0.0,0.0,0.0,0.0,0.0,0.0,0.0,0.0,0.0,0.0,0.0,0.0,0.0,0.0,0.0,0.0,0.0,0.0,0.0,0.0,0.0,0.0,0.0,0.0,0.0,0.0,0.0,0.0,0.0,0.0,0.0,0.0,0.0,0.0,0.0,0.0,0.0,0.0,0.0,0.0,0.0,0.0,0.0,0.0,0.0,0.0,0.0,0.0,0.3237,0.2472,0.1774,0.1144,0.0375,-0.0342,-0.1001,0.0,0.0,0.0,0.0,0.0,0.0,0.0,0.0,0.0,0.0,0.0,0.0,0.0,0.0,0.0,0.0,0.0,0.0,0.0,0.0,0.0,0.0,0.0,0.0,0.0,0.0,0.0,0.0,0.0,0.0,0.0,0.0,0.0,0.0,0.0,0.0,0.0,0.0,0.0,0.0,0.0,0.0,0.0,0.0,0.0,0.0,0.0,0.0,0.0,0.0,0.0,0.0,0.0,0.0,0.0,0.0,0.0,0.0,0.0,0.0,0.0,0.0,0.0,0.0,0.0,0.0,0.0,0.0,0.0,0.0,0.0,0.0,0.0,0.0,0.0,0.0,0.0,0.0,0.0,0.0,0.0,0.0,0.0,0.0,0.0,0.0,0.0,0.0,0.0,0.0,0.0,0.0,0.0,0.0,0.0,0.0,0.0,0.0,0.0,0.0,0.0,0.0,0.0,0.0,0.0,0.0,0.0,0.0,0.3815,0.2963,0.2122,0.1266,0.053,-0.0235,0.0,0.0,0.0,0.0,0.0,0.0,0.0,0.0,0.0,0.0,0.0,0.0,0.0,0.0,0.0,0.0,0.0,0.0,0.0,0.0,0.0,0.0,0.0,0.0,0.0,0.0,0.0,0.0,0.0,0.0,0.0,0.0,0.0,0.0,0.0,0.0,0.0,0.0,0.0,0.0,0.0,0.0,0.0,0.0,0.0,0.0,0.0,0.0,0.0,0.0,0.0,0.0,0.0,0.0,0.0,0.0,0.0,0.0,0.0,0.0,0.0,0.0,0.0,0.0,0.0,0.0,0.0,0.0,0.0,0.0,0.0,0.0,0.0,0.0,0.0,0.0,0.0,0.0,0.0,0.0,0.0,0.0,0.0,0.0,0.0,0.0,0.0,0.0,0.0,0.0,0.0,0.0,0.0,0.0,0.0,0.0,0.0,0.0,0.0,0.0,0.0,0.0,0.0,0.0,0.0,0.0,0.0,0.0,0.0,0.3759,0.326,0.2386,0.1123,-0.0183,-0.1105,0.0,0.0,0.0,0.0,0.0,0.0,0.0,0.0,0.0,0.0,0.0,0.0,0.0,0.0,0.0,0.0,0.0,0.0,0.0,0.0,0.0,0.0,0.0,0.0,0.0,0.0,0.0,0.0,0.0,0.0,0.0,0.0,0.0,0.0,0.0,0.0,0.0,0.0,0.0,0.0,0.0,0.0,0.0,0.0,0.0,0.0,0.0,0.0,0.0,0.0,0.0,0.0,0.0,0.0,0.0,0.0,0.0,0.0,0.0,0.0,0.0,0.0,0.0,0.0,0.0,0.0,0.0,0.0,0.0,0.0,0.0,0.0,0.0,0.0,0.0,0.0,0.0,0.0,0.0,0.0,0.0,0.0,0.0,0.0,0.0,0.0,0.0,0.0,0.0,0.0,0.0,0.0,0.0,0.0,0.0,0.0,0.0,0.0,0.0,0.0,0.0,0.0,0.0,0.0,0.0,0.0,0.0,0.0,0.5664,0.4167,0.4055,0.3045,0.1035,-0.0595,-0.1692,0.0,0.0,0.0,0.0,0.0,0.0,0.0,0.0,0.0,0.0,0.0,0.0,0.0,0.0,0.0,0.0,0.0,0.0,0.0,0.0,0.0,0.0,0.0,0.0,0.0,0.0,0.0,0.0,0.0,0.0,0.0,0.0,0.0,0.0,0.0,0.0,0.0,0.0,0.0,0.0,0.0,0.0,0.0,0.0,0.0,0.0,0.0,0.0,0.0,0.0,0.0,0.0,0.0,0.0,0.0,0.0,0.0,0.0,0.0,0.0,0.0,0.0,0.0,0.0,0.0,0.0,0.0,0.0,0.0,0.0,0.0,0.0,0.0,0.0,0.0,0.0,0.0,0.0,0.0,0.0,0.0,0.0,0.0,0.0,0.0,0.0,0.0,0.0,0.0,0.0,0.0,0.0,0.0,0.0,0.0,0.0,0.0,0.0,0.0,0.0,0.0,0.0,0.0,0.0,0.0,0.0,0.0,0.0,0.6761,0.4987,0.5076,0.3854,0.1112,-0.0746,-0.2043,0.0,0.0,0.0,0.0,0.0,0.0,0.0,0.0,0.0,0.0,0.0,0.0,0.0,0.0,0.0,0.0,0.0,0.0,0.0,0.0,0.0,0.0,0.0,0.0,0.0,0.0,0.0,0.0,0.0,0.0,0.0,0.0,0.0,0.0,0.0,0.0,0.0,0.0,0.0,0.0,0.0,0.0,0.0,0.0,0.0,0.0,0.0,0.0,0.0,0.0,0.0,0.0,0.0,0.0,0.0,0.0,0.0,0.0,0.0,0.0,0.0,0.0,0.0,0.0,0.0,0.0,0.0,0.0,0.0,0.0,0.0,0.0,0.0,0.0,0.0,0.0,0.0,0.0,0.0,0.0,0.0,0.0,0.0,0.0,0.0,0.0,0.0,0.0,0.0,0.0,0.0,0.0,0.0,0.0,0.0,0.0,0.0,0.0,0.0,0.0,0.0,0.0,0.0,0.0,0.0,0.0,0.0,0.0,0.7021,0.651,0.5813,0.4245,0.1838,-0.033,-0.2006,0.0,0.0,0.0,0.0,0.0,0.0,0.0,0.0,0.0,0.0,0.0,0.0,0.0,0.0,0.0,0.0,0.0,0.0,0.0,0.0,0.0,0.0,0.0,0.0,0.0,0.0,0.0,0.0,0.0,0.0,0.0,0.0,0.0,0.0,0.0,0.0,0.0,0.0,0.0,0.0,0.0,0.0,0.0,0.0,0.0,0.0,0.0,0.0,-0.5444,0.0,0.0,0.0,0.0,0.0,0.0,0.0,0.0,0.0,0.0,0.0,0.0,0.0,0.0,0.0,0.0,0.0,0.0,0.0,0.0,0.0,0.0,0.0,0.0,0.0,0.0,0.0,0.0,0.0,0.0,0.0,0.0,0.0,0.0,0.0,0.0,0.0,0.0,0.0,0.0,0.0,0.0,0.0,0.0,0.0,0.0,0.0,0.0,0.0,0.0,0.0,0.0,0.0,0.0,0.0,0.0,0.0,0.0,0.0,0.7795,0.7678,0.6684,0.4977,0.2589,0.0096,-0.1752,0.0,0.0,0.0,0.0,0.0,0.0,0.0,0.0,0.0,0.0,0.0,0.0,0.0,0.0,0.0,0.0,0.0,0.0,0.0,0.0,0.0,0.0,0.0,0.0,0.0,0.0,0.0,0.0,0.0,0.0,0.0,0.0,0.0,0.0,0.0,0.0,0.0,0.0,0.0,0.0,0.0,0.0,0.0,0.0,0.0,0.0,0.0,0.0,0.0,0.0,0.0,0.0,0.0,0.0,0.0,0.0,0.0,0.0,0.0,0.0,0.0,0.0,0.0,0.0,0.0,0.0,0.0,0.0,0.0,0.0,0.0,0.0,0.0,0.0,0.0,0.0,0.0,0.0,0.0,0.0,0.0,0.0,0.0,0.0,0.0,0.0,0.0,0.0,0.0,0.0,0.0,0.0,0.0,0.0,0.0,0.0,0.0,0.0,0.0,0.0,0.0,0.0,0.0,0.0,0.0,0.0,0.0,0.8471,0.8743,0.8865,0.7682,0.5815,0.3295,0.0647,-0.1226,-0.2218,0.0,0.0,0.0,0.0,0.0,0.0,0.0,0.0,0.0,0.0,0.0,0.0,0.0,0.0,0.0,0.0,0.0,0.0,0.0,0.0,0.0,0.0,0.0,0.0,0.0,0.0,0.0,0.0,0.0,0.0,0.0,0.0,0.0,0.0,0.0,0.0,0.0,0.0,0.3916,0.4334,0.0,0.0,0.0,0.0,0.0,0.0,0.0,0.0,-0.4337,0.0,0.0,0.0,0.0,0.0,0.0,0.0,0.0,0.0,0.0,0.0,0.0,0.0,0.0,0.0,0.0,0.0,0.0,0.0,0.0,0.0,0.0,0.0,0.0,0.0,0.0,0.0,0.0,0.0,0.0,0.0,0.0,0.0,0.0,0.0,0.0,0.0,0.0,0.0,0.0,0.0,0.0,0.0,0.0,0.0,0.0,0.0,0.0,0.0,0.0,0.0,0.0,0.0,0.0,0.0,0.0,0.9976,0.9262,0.9474,1.0685,0.8676,0.6411,0.4061,0.1636,-0.0271,-0.1547,0.0,0.0,0.0,0.0,0.0,0.0,0.0,0.0,0.0,0.0,0.0,0.0,0.0,0.0,0.0,0.0,0.0,0.0,0.0,0.0,0.0,0.0,0.0,0.0,0.0,0.0,0.0,0.0,0.0,0.0,0.0,0.0,0.0,0.0,0.0,0.0,0.0,0.0,0.0,0.5246,0.4618,0.0,0.0,0.0,0.0,0.0,0.0,0.0,0.0,-0.7541,0.0,0.0,0.0,0.0,0.0,0.0,0.0,0.0,0.0,0.0,0.0,0.0,0.0,0.0,0.0,0.0,0.0,0.0,0.0,0.0,0.0,0.0,0.0,0.0,0.0,0.0,0.0,0.0,0.0,0.0,0.0,0.0,0.0,0.0,0.0,0.0,0.0,0.0,0.0,0.0,0.0,0.0,0.0,0.0,0.0,0.0,0.0,0.0,0.0,0.0,0.0,0.0,0.0,0.0,0.0,1.0641,1.0682,1.1116,1.2018,0.9588,0.71,0.4608,0.1843,-0.0263,0.0,0.0,0.0,0.0,0.0,0.0,0.0,0.0,0.0,0.0,0.0,0.0,0.0,0.0,0.0,0.0,0.0,0.0,0.0,0.0,0.0,0.0,0.0,0.0,0.0,0.0,0.0,0.0,0.0,0.0,0.0,0.0,0.0,0.0,0.0,0.0,0.0,0.0,0.0,0.0,0.5717,0.4537,0.2448,0.0,0.0,0.0,0.0,0.0,0.0,-0.5757,-0.7567,0.0,0.0,0.0,0.0,0.0,0.0,0.0,0.0,0.0,0.0,0.0,0.0,0.0,0.0,0.0,0.0,0.0,0.0,0.0,0.0,0.0,0.0,0.0,0.0,0.0,0.0,0.0,0.0,0.0,0.0,0.0,0.0,0.0,0.0,0.0,0.0,0.0,0.0,0.0,0.0,0.0,0.0,0.0,0.0,0.0,0.0,0.0,0.0,0.0,0.0,0.0,0.0,0.0,0.0,0.0,1.0816,1.1752,1.2414,1.2599,1.007,0.7469,0.4939,0.2138,-0.0129,0.0,0.0,0.0,0.0,0.0,0.0,0.0,0.0,0.0,0.0,0.0,0.0,0.0,0.0,0.0,0.0,0.0,0.0,0.0,0.0,0.0,0.0,0.0,0.0,0.0,0.0,0.0,0.0,0.0,0.0,0.0,0.0,0.0,0.0,0.0,0.0,0.0,0.0,0.0,0.0,0.0,0.3668,0.1621,0.1688,0.0,0.0,0.0,0.0,-0.2841,-0.5657,0.0,0.0,0.0,0.0,0.0,0.0,0.0,0.0,0.0,0.0,0.0,0.0,0.0,0.0,0.0,0.0,0.0,0.0,0.0,0.0,0.0,0.0,0.0,0.0,0.0,0.0,0.0,0.0,0.0,0.0,0.0,0.0,0.0,0.0,0.0,0.0,0.0,0.0,0.0,0.0,0.0,0.0,0.0,0.0,0.0,0.0,0.0,0.0,0.0,0.0,0.0,0.0,0.0,0.0,0.0,0.0,1.0276,1.1675,1.2241,1.1657,0.943,0.7125,0.4877,0.32,0.1146,0.0,0.0,0.0,0.0,0.0,0.0,0.0,0.0,0.0,0.0,0.0,0.0,0.0,0.0,0.0,0.0,0.0,0.0,0.0,0.0,0.0,0.0,0.0,0.0,0.0,0.0,0.0,0.0,0.0,0.0,0.0,0.0,0.0,0.0,0.0,0.0,0.0,0.0,0.0,0.0,0.0,0.0759,-0.104,-0.0226,-0.0407,0.0,0.0,-0.4173,-0.4124,-0.7076,0.0,0.0,0.0,0.0,0.0,0.0,0.0,0.0,0.0,0.0,0.0,0.0,0.0,0.0,0.0,0.0,0.0,0.0,0.0,0.0,0.0,0.0,0.0,0.0,0.0,0.0,0.0,0.0,0.0,0.0,0.0,0.0,0.0,0.0,0.0,0.0,0.0,0.0,0.0,0.0,0.0,0.0,0.0,0.0,0.0,0.0,0.0,0.0,0.0,0.0,0.0,0.0,0.0,0.0,0.0,1.12,1.0954,1.2706,1.3124,1.1952,0.9811,0.7463,0.4911,0.3189,0.1173,0.0,0.0,0.0,0.0,0.0,0.0,0.0,0.0,0.0,0.0,0.0,0.0,0.0,0.0,0.0,0.0,0.0,0.0,0.0,0.0,0.0,0.0,0.0,0.0,0.0,0.0,0.0,0.0,0.0,0.0,0.0,0.0,0.0,0.0,0.0,0.0,0.0,0.0,0.0,0.0,0.0,0.0,-0.1679,-0.1236,0.0,0.0,0.0,-0.5444,-0.5039,0.0,0.0,0.0,0.0,0.0,0.0,0.0,0.0,0.0,0.0,0.0,0.0,0.0,0.0,0.0,0.0,0.0,0.0,0.0,0.0,0.0,0.0,0.0,0.0,0.0,0.0,0.0,0.0,0.0,0.0,0.0,0.0,0.0,0.0,0.0,0.0,0.0,0.0,0.0,0.0,0.0,0.0,0.0,0.0,0.0,0.0,0.0,0.0,0.0,0.0,0.0,0.0,0.0,0.0,0.0,0.0,0.0,1.1969,1.4134,1.4563,1.3136,1.1154,0.8991,0.6597,0.451,0.0,0.0,0.0,0.0,0.0,0.0,0.0,0.0,0.0,0.0,0.0,0.0,0.0,0.0,0.0,0.0,0.0,0.0,0.0,0.0,0.0,0.0,0.0,0.0,0.0,0.0,0.0,0.373,0.0,0.0,0.0,0.0,0.0,0.0,0.0,0.0,0.0,0.0,0.0,0.0,0.0,0.0,0.0438,-0.1878,-0.1973,-0.2596,0.0,0.0,-0.6262,-0.6082,-0.9083,-1.0502,0.0,0.0,0.0,0.0,0.0,0.0,0.0,0.0,0.0,0.0,0.0,0.0,0.0,0.0,0.0,0.0,0.0,0.0,0.0,0.0,0.0,0.0,0.0,0.0,0.0,0.0,0.0,0.0,0.0,0.0,0.0,0.0,0.0,0.0,0.0,0.0,0.0,0.0,0.0,0.0,0.0,0.0,0.0,0.0,0.0,0.0,0.0,0.0,0.0,0.0,0.0,0.0,0.0,0.0,0.0,1.3198,1.59,1.6439,1.5205,1.3797,1.2389,1.1065,0.8351,0.6063,0.0,0.0,0.0,0.0,0.0,0.0,0.0,0.0,0.0,0.0,0.0,0.0,0.0,0.0,0.0,0.0,0.0,0.0,0.0,0.0,0.0,0.0,0.0,0.0,0.0,0.0,0.0,0.0,0.0,0.0,0.0,0.0,0.0,0.0,0.0,0.0,0.0,0.0,0.0,0.0,0.0,-0.0644,-0.1949,-0.2622,-0.3697,0.0,0.0,-0.5791,-0.753,-0.9737,-1.0811,-0.9559,0.0,0.0,0.0,0.0,0.0,0.0,0.0,0.0,0.0,0.0,0.0,0.0,0.0,0.0,0.0,0.0,0.0,0.0,0.0,0.0,0.0,0.0,0.0,0.0,0.0,0.0,0.0,0.0,0.0,0.0,0.0,0.0,0.0,0.0,0.0,0.0,0.0,0.0,0.0,0.0,0.0,0.0,0.0,0.0,0.0,0.0,0.0,0.0,0.0,0.0,0.0,0.0,0.0,0.8562,0.8774,0.6671,0.427,0.1641,0.1119,0.0414,-0.0611,0.1736,0.1589,0.0,0.0,0.0,0.0,0.0,0.0,0.0,0.0,0.0,0.0,0.0,0.0,0.0,0.0,0.0,0.0,0.0,0.0,0.0,0.0,0.0,0.0,0.0,0.0,0.0,0.0,0.0,0.0,0.4806,0.4439,0.369,0.0,0.0,0.0,0.0,0.0,0.0,0.0,0.0,0.0,0.0,-0.06,-0.3194,-0.3832,0.0,0.0,-0.6028,-0.6296,-0.7065,-0.9154,-0.9969,-0.7801,-0.8765,0.0,0.0,0.0,0.0,0.0,0.0,0.0,0.0,0.0,0.0,0.0,0.0,0.0,0.0,0.0,0.0,0.0,0.0,0.0,0.0,0.0,0.0,0.0,0.0,0.0,0.0,0.0,0.0,0.0,0.0,0.0,0.0,0.0,0.0,0.0,0.0,0.0,0.0,0.0,0.0,0.0,0.0,0.0,0.0,0.0,0.0,0.0,0.0,0.0,0.0,0.0,0.0,0.5487,0.6139,0.1343,-0.2333,-0.4824,-0.4808,-0.5049,-0.5565,-0.1896,-0.0608,0.0,0.0,0.0,0.0,0.0,0.0,0.0,0.0,0.0,0.0,0.0,0.0,0.0,0.0,0.0,0.0,0.0,0.0,0.0,0.0,0.0,0.0,0.0,0.0,0.0,0.0,0.0,0.0,0.493,0.4626,0.4803,0.0,0.0,0.0,0.0,0.0,0.0,0.0,0.0,0.0,0.0,0.0086,-0.421,-0.467,-0.4823,-0.5773,-0.6073,-0.6396,-0.7012,-0.8629,-0.9059,-0.6928,0.0,0.0,0.0,0.0,0.0,0.0,0.0,0.0,0.0,0.0,0.0,0.0,0.0,0.0,0.0,0.0,0.0,0.0,0.0,0.0,0.0,0.0,0.0,0.0,0.0,0.0,0.0,0.0,0.0,0.0,0.1656,0.0,0.0,0.0,0.0,0.0,0.0,0.0,0.0,0.0,0.0,0.0,0.0,0.0,0.0,0.0,0.0,0.0,0.0,0.0,0.0,0.0,0.0,0.5407,0.6104,0.2008,0.0192,-0.0,-0.0097,-0.0657,-0.0569,-0.0391,0.1356,0.5305,0.0,0.0,0.0,0.0,0.0,0.0,0.0,0.0,0.0,0.0,0.0,0.0,0.0,0.0,0.0,0.0,0.0,0.0,0.0,0.0,0.0,0.0,0.0,0.0,0.0,0.0,0.4781,0.3559,0.3573,0.0,0.0,0.0,0.0,0.0,0.0,0.0,0.0,0.0,0.0,0.1049,0.1333,-0.4706,-0.4857,-0.4767,-0.5793,-0.5625,-0.5951,-0.7632,-0.8177,-0.8207,0.0,0.0,0.0,0.0,0.0,0.0,0.0,0.0,0.0,0.0,0.0,0.0,0.0,0.0,0.0,0.0,0.0,0.0,0.0,0.0,0.0,0.0,0.0,0.0,0.0,0.0,0.0,-0.3101,-0.321,0.0,0.0,0.0,0.0,0.0,0.0,0.0,0.0,0.0,0.0,0.0,-0.7094,-0.8194,0.0,0.0,0.0,0.0,0.0,0.0,0.0,0.0,0.0,0.0,0.0,0.0,-0.3,-0.347,-0.8978,-1.1749,-1.1426,-1.3191,-1.3938,-1.3452,-0.9277,-0.4312,0.1384,0.0,0.0,0.0,0.0,0.0,0.0,0.0,0.0,0.0,0.0,0.0,0.0,0.0,0.0,0.0,0.0,0.0,0.0,0.0,0.0,0.0,0.0,0.0,0.0,0.0,0.5729,0.0,0.0,0.0,0.0,0.0,0.0,0.0,0.0,0.0,0.0,0.0,0.3799,-0.4059,-0.3342,-0.3228,-0.6363,-0.6478,-0.6431,0.0,0.0,0.0,0.0,0.0,0.0,0.0,0.0,0.0,0.0,0.0,0.0,0.0,0.0,-0.453,-0.4126,-0.2268,0.0041,0.2467,0.0,0.0,0.0,0.0,0.0,0.0,0.0,0.0,0.0,0.0,0.0,0.0,0.0,0.0,-0.4268,0.0,-0.4074,0.0,0.0,0.0,0.0,0.0,0.0,0.0,0.0,-0.7433,-0.9708,-1.1673,-1.247,-1.308,0.0,-1.2087,-0.9197,0.0,0.0,0.0,0.0,0.0,0.0,0.0,0.0,-0.7922,-0.86,-1.5177,-1.8471,-1.809,-1.9672,-2.0395,-1.987,-1.3423,-0.787,-0.3626,-0.3066,-0.2509,0.0,0.0,0.0,0.0,0.0,0.0,0.0,0.0,0.0,0.0,0.0,0.0,0.0,0.0,0.0,0.0,0.0,0.0,0.0,0.0,0.0,0.0,0.0,0.5514,0.0,0.0,0.0,0.0,0.0,0.0,0.0,0.0,0.0,0.0415,0.1302,-0.0684,-0.772,-0.612,-0.5069,-0.7333,0.0,0.0,0.0,0.0,0.0,0.0,0.0,-0.5686,-0.5341,-0.5505,-0.5583,-0.516,-0.475,-0.4349,-0.4017,0.0,0.0,-0.2152,-0.036,0.2032,0.4886,0.6424,0.8045,1.0566,0.9846,0.9047,0.0,0.0,0.0,0.0,0.0,0.0,0.0,0.0,-0.9211,-0.8991,0.0,-0.7081,0.0,0.0,0.0,0.0,0.0,-0.6068,0.0,0.0,-1.1931,-1.3873,-1.4062,-1.4467,-1.4871,-1.5239,-1.3924,-1.3103,-1.2659,-0.8641,0.0,0.0,0.0,0.0,0.0,0.0,-0.9225,-0.9515,-1.598,-1.9295,-1.9101,-1.9177,-1.9244,-1.9052,-1.2941,-0.9474,-0.9032,-0.5438,-0.2634,-0.1318,-0.3424,0.0,0.0,0.0,0.0,0.0,0.0,0.0,0.0,0.0,0.0,0.0,0.0,0.0,0.0,0.0,0.0,0.0,0.0,0.0,0.0,0.612,0.0,0.0,0.0,0.0,0.0,0.0,0.0,0.0,0.0,0.0,-0.2382,-0.2837,-0.5574,-1.1984,0.0,0.0,0.0,0.0,-0.6471,-0.562,-0.5065,-0.4864,-0.5007,-0.5092,-0.5284,-0.5699,0.0,0.0,-0.57,-0.5005,-0.4179,-0.3143,-0.1759,-0.0313,0.0972,0.1309,0.3114,0.8072,0.9246,1.0137,1.2111,1.2015,1.1426,-0.6526,0.0,0.0,0.0,0.0,-0.8051,-0.8431,-0.8837,-0.9092,-0.8973,-0.8521,-0.8103,0.0,0.0,0.0,0.0,0.0,0.0,-1.0856,-1.1543,-1.3639,-1.5104,-1.5996,-1.6579,-1.6844,-1.6857,-1.6199,-1.5688,-1.5274,-1.4051,-1.1464,-0.765,0.0,0.0,0.0,0.0,-1.2857,-1.4262,-1.7504,-1.9229,-1.9184,-1.942,-1.942,-1.9117,-1.7177,-1.575,-1.5033,-1.1615,-0.9474,-0.883,-0.5291,0.0,0.0,0.0,0.0,0.0,0.0,0.0,0.0,0.0,0.0,0.0,0.0,0.0,0.0,0.0,0.0,0.0,0.0,0.0,0.2551,0.2741,0.2557,0.0,0.0,0.0,0.0,0.0,0.0,0.0,0.0,0.0,-0.9929,-0.7969,-0.8182,0.0,0.0,-0.9169,-0.875,-0.8554,-0.8331,-0.7874,-0.717,0.0,-0.6532,-0.5894,-0.546,-0.5602,-0.5445,-0.5182,-0.4939,-0.3646,-0.2477,-0.2081,-0.0596,0.1311,0.3646,0.3873,0.5155,0.9003,1.0467,1.1464,1.329,1.3385,1.3001,-0.8002,-0.7649,-0.7468,-0.7815,-0.8594,-0.8916,-0.9262,-0.9652,-0.9785,-0.9737,-0.9447,-0.9224,-0.8887,-0.8457,-0.872,0.0,0.0,0.0,-1.3055,-1.3942,-1.4973,-1.6145,-1.7294,-1.7538,-1.776,-1.7981,-1.7693,-1.728,-1.6866,-1.6322,-1.4736,-1.2166,0.0,0.0,-1.2289,-1.3839,-1.5188,-1.6338,-1.8375,-1.9406,-1.9406,-1.9603,-1.9574,-1.9354,-1.9065,-1.8556,-1.7828,-1.5695,-1.393,-1.2764,-0.8966,-0.5686,0.0,0.0,0.0,0.0,0.0,0.0,0.0,0.0,0.0,0.0,0.0,0.7794,0.4407,0.0,0.0,0.0,-0.0043,-0.1074,-0.017,0.0592,0.0,0.0,0.0,0.0,0.0,0.0,0.0,-0.7051,-1.2019,-1.5574,-1.5842,-1.4092,-1.3476,-1.5374,-1.4404,-1.2793,-1.0849,0.0,-0.9734,-0.9222,-0.8078,-0.715,-0.6675,-0.6008,-0.5731,-0.611,-0.5458,-0.4898,-0.4809,-0.3148,-0.1732,-0.1342,-0.0168,0.1783,0.4448,0.4629,0.5752,0.9755,1.1296,1.2484,1.4356,1.4574,1.451,-0.9662,-0.9559,-0.89,-0.9042,-0.9691,-0.9952,-1.053,-1.1217,-1.0968,-1.0972,-1.1091,-1.0261,-1.0218,-1.0667,-1.0689,0.0,-1.2314,-1.3124,-1.4286,-1.5623,-1.6088,-1.6915,-1.7994,-1.7605,-1.7814,-1.8655,-1.8376,-1.8061,-1.7612,-1.6501,-1.5638,-1.519,-1.4639,-1.39,-1.3097,-1.5145,-1.6334,-1.6522,-1.8626,-1.9717,-1.9682,-1.9697,-1.9682,-1.9646,-1.9236,-1.8765,-1.8219,-1.7894,-1.6511,-1.4068,-1.3444,-0.9799,-0.2629,0.0,0.0,0.0,0.0,0.0,0.0,0.0,0.0,0.0,0.0,0.0,0.0,0.0,0.0,0.0,-0.1235,0.0,-0.2276,-0.1279,0.0,0.0,0.0,-0.5122,-0.8075,-0.9961,-1.206,-1.4794,0.0,0.0,-2.0144,-2.0256,-2.0087,-1.975,-1.7594,-1.5408,-1.3644,-1.2242,-1.0964,-0.9921,-0.8277,-0.6864,-0.6183,-0.5856,-0.6049,-0.6815,-0.61,-0.5314,-0.5089,-0.3223,-0.1677,-0.1342,-0.0168,0.1562,0.37,0.4303,0.5698,1.0234,1.1819,1.3093,1.4881,1.5461,1.578,-1.0265,-1.01,-1.0456,-1.0449,-1.0158,-0.9942,-1.0288,-1.0964,-1.0718,-1.0458,-1.0119,-0.994,-1.0101,-1.0639,-1.1244,-1.2039,-1.3,-1.4074,-1.4883,-1.5585,-1.657,-1.716,-1.7427,-1.7862,-1.7909,-1.7598,-1.7605,-1.7531,-1.7422,-1.7502,-1.7013,-1.6064,-1.5987,-1.5039,-1.3335,-1.4992,-1.6163,-1.6655,-1.8192,-1.9188,-1.9675,-1.9697,-1.9522,-1.9125,-1.9814,-1.939,-1.7787,-1.8693,-1.7951,-1.5194,-1.499,-1.1716,-0.4718,-0.5789,0.0,0.0,0.0,0.0,0.0,0.0,0.0,0.0,0.0,0.3955,0.0047,0.0,-0.3181,0.0,-0.3259,-0.56,-0.8125,-0.7815,0.0,0.0,-0.8736,-1.0292,-1.3998,-1.657,-1.8178,-1.8468,-2.0477,-2.1956,-2.2206,-2.2134,-2.2343,-2.2995,-1.9881,-1.6956,-1.552,-1.4224,-1.2803,-1.1138,-0.9426,-0.7944,-0.6909,-0.6353,-0.6299,-0.7009,-0.6095,-0.5275,-0.5162,-0.3171,-0.1566,-0.123,0.0447,0.2557,0.4716,0.5167,0.6778,1.0633,1.1928,1.2735,1.4823,1.56,1.6079,-1.1133,-1.1036,-1.146,-1.1319,-1.0817,-1.0578,-1.0698,-1.1074,-1.112,-1.0998,-1.0787,-1.0787,-1.0935,-1.1283,-1.2016,-1.274,-1.3558,-1.4721,-1.5427,-1.5869,-1.671,-1.7227,-1.7475,-1.7882,-1.8084,-1.8147,-1.8189,-1.815,-1.8007,-1.8284,-1.7981,-1.716,-1.7197,-1.6473,-1.4978,-1.5305,-1.5649,-1.5976,-1.7471,-1.8698,-1.9624,-1.969,-1.9319,-1.8604,-1.917,-1.8652,-1.6775,-1.7763,-1.7051,-1.4273,-1.4399,-1.0956,-0.3292,-0.5876,-0.4665,0.0,0.0,0.0,0.0,0.0,0.0,0.0,0.0,0.0,0.0,0.0,-0.6293,-0.7932,-0.9081,-1.0283,-1.1653,-1.1422,-1.1601,-1.2712,-1.3605,-1.55,-1.8921,-2.0968,-2.2106,-2.2156,-2.339,-2.4215,-2.4102,-2.3996,-2.4052,-2.4516,-2.2278,-1.9973,-1.8174,-1.6515,-1.4607,-1.2385,-1.0563,-0.8857,-0.7343,-0.6912,-0.6696,-0.6642,-0.5934,-0.5111,-0.4498,-0.2839,-0.1286,-0.0615,0.0894,0.2728,0.4839,0.5965,0.7594,1.0806,1.2835,1.383,1.4708,1.56,1.6254,-1.2098,-1.2053,-1.2103,-1.19,-1.1524,-1.1478,-1.1412,-1.1234,-1.1765,-1.2008,-1.2008,-1.2049,-1.2098,-1.2147,-1.2866,-1.3516,-1.4095,-1.5163,-1.5876,-1.6231,-1.6742,-1.7234,-1.7747,-1.7801,-1.8279,-1.9094,-1.9176,-1.9071,-1.8777,-1.8815,-1.8598,-1.8092,-1.8117,-1.7699,-1.6776,-1.5761,-1.5297,-1.5424,-1.6998,-1.8306,-1.93,-1.934,-1.8812,-1.7783,-1.7976,-1.7326,-1.575,-1.6323,-1.5485,-1.2964,-1.329,-0.9747,-0.1583,-0.6325,-0.6352,0.0,-0.2577,0.0,0.0,0.0,0.0,0.0,0.0,0.0,0.0,-0.5086,-0.8801,-1.5788,-1.5583,-1.4822,-1.4246,-1.3938,-1.4578,-1.663,-1.8267,-2.0179,-2.2602,-2.3715,-2.4504,-2.5202,-2.5519,-2.5681,-2.5535,-2.5482,-2.5281,-2.4838,-2.4204,-2.286,-2.0914,-1.8633,-1.6241,-1.3715,-1.1603,-0.942,-0.7706,-0.7182,-0.6904,-0.6369,-0.5664,-0.4835,-0.3779,-0.2284,-0.0893,0.0223,0.1451,0.2946,0.4916,0.6605,0.8645,1.1566,1.3858,1.5201,1.4934,1.558,1.5903,-1.253,-1.2358,-1.2579,-1.2487,-1.2245,-1.2453,-1.1864,-1.0861,-1.1628,-1.2008,-1.2049,-1.2486,-1.2623,-1.272,-1.3747,-1.4318,-1.4601,-1.5682,-1.6225,-1.6318,-1.7054,-1.738,-1.7401,-1.7666,-1.7868,-1.8108,-1.8475,-1.8616,-1.8546,-1.8981,-1.8615,-1.7522,-1.7802,-1.7334,-1.6159,0.0,0.0,0.0,-1.7955,-1.829,-1.7967,-1.752,-1.6749,-1.567,-1.692,0.0,-1.5508,-1.6501,-1.6317,-1.4732,-1.5007,0.0,0.0,0.0,0.0,0.0,0.0,0.0,0.0,0.0,0.0,0.0,-0.9345,-0.8623,-0.9113,-1.0082,-1.2673,-1.7228,-1.6383,-1.6325,-1.8311,-1.8401,-1.8707,-1.9706,-2.1013,-2.2331,-2.3504,-2.4478,-2.5215,-2.5552,-2.5669,-2.5673,-2.5612,-2.5579,-2.5405,-2.5013,-2.4633,-2.3787,-2.2328,-1.9933,-1.7623,-1.5557,-1.232,-0.9522,-0.7815,-0.7117,-0.6794,-0.647,-0.5494,-0.4398,-0.3396,-0.1891,-0.0557,0.0391,0.2551,0.4634,0.5974,0.7874,1.0031,1.2469,1.4384,1.5602,1.5629,1.5731,1.5499,-1.3122,0.0,-1.3122,-1.2954,0.0,-1.3212,-1.2802,-1.1704,-1.2461,-1.2788,-1.2827,-1.3351,-1.3589,-1.3627,-1.4135,-1.4755,-1.5344,-1.561,-1.6039,-1.6515,-1.6911,-1.7262,-1.7571,-1.7747,-1.8082,-1.8546,-1.8714,-1.8815,-1.8898,-1.9108,-1.8841,-1.8214,-1.8515,-1.8425,-1.7955,-1.82,-1.8184,-1.7906,-1.7977,-1.819,-1.8562,-1.7423,-1.6702,-1.652,-1.7326,0.0,0.0,0.0,0.0,0.0,0.0,0.0,0.0,-1.0549,0.0,-0.7341,-0.8042,-0.9043,-1.0023,-1.0318,-1.1222,-1.3075,-1.4057,-1.4179,-1.3347,-1.4819,-1.6668,-1.8675,-1.8125,-1.8116,-1.9243,-1.9806,-2.0383,-2.1108,-2.2246,-2.3331,-2.4221,-2.4874,-2.5326,-2.5553,-2.5664,-2.5672,-2.5609,-2.5567,-2.5454,-2.5228,-2.4906,-2.4347,-2.3275,-2.1336,-1.8979,-1.6141,-1.2959,-1.0358,-0.9193,-0.8231,-0.7275,-0.6571,-0.5479,-0.4271,-0.2788,-0.0887,0.0774,0.1829,0.3973,0.5986,0.7373,0.8996,1.0951,1.3308,1.4599,1.54,1.5997,1.5898,1.4943,-1.3968,-1.3852,-1.3852,-1.3579,-1.3214,-1.4003,-1.3824,-1.3012,0.0,0.0,0.0,-1.428,-1.4507,-1.4536,-1.4578,-1.5101,-1.5946,-1.5666,-1.5969,-1.6725,-1.6797,-1.7109,-1.77,-1.7868,-1.8344,-1.9139,-1.9101,-1.9146,-1.9265,-1.9213,-1.9176,-1.9206,-1.9486,-1.9826,-2.0131,-2.0357,-1.99,-1.8772,-1.7985,-1.8171,-1.9278,-1.7849,-1.7262,-1.7646,-1.7753,-1.7159,-1.5802,-1.6175,-1.5359,-1.3099,-1.3116,-1.231,-1.0424,-1.2563,-1.3329,-1.2071,-1.3112,-1.3804,-1.3789,-1.3601,-1.385,-1.4744,-1.689,-1.7806,-1.6899,-1.8659,-1.9861,-1.9945,-1.9889,-1.9703,-1.9508,-2.0252,-2.1066,-2.1804,-2.2853,-2.3887,-2.4691,-2.5061,-2.5289,-2.5444,-2.5584,-2.5654,-2.5612,-2.5549,-2.5492,-2.5395,-2.5118,-2.474,-2.3958,-2.2284,-1.976,-1.6445,-1.3993,-1.2038,-1.0718,-0.9662,-0.8435,-0.6838,-0.5627,-0.4197,-0.2219,0.0166,0.2093,0.3262,0.5279,0.7211,0.8795,1.016,1.1847,1.4564,1.5127,1.5335,1.6044,1.5751,1.4322,-1.5277,-1.4875,-1.4875,-1.4789,-1.4619,-1.4738,-1.4625,-1.4383,-1.4161,-1.4356,-1.4875,-1.4863,-1.4869,-1.5006,-1.5514,-1.5834,-1.6032,-1.6489,-1.6714,-1.6876,-1.7089,-1.7277,-1.7401,-1.8101,-1.8468,-1.8623,-1.8936,-1.9101,-1.9139,-1.9354,-1.945,-1.9515,-1.998,-2.0402,-2.0662,-2.072,-2.0667,-2.0421,-1.9119,-1.8278,-1.7999,-1.7908,-1.7311,-1.6267,-1.6577,-1.65,-1.5977,-1.5844,-1.541,-1.4668,-1.3984,-1.3983,-1.4786,-1.4793,-1.505,-1.5508,-1.4868,-1.4383,-1.4448,-1.4727,-1.5636,-1.731,-1.8846,-1.9791,-2.0095,-2.0175,-2.0452,-2.0983,-2.0538,-2.0452,-2.0934,-2.1319,-2.1786,-2.2426,-2.3368,-2.4172,-2.4542,-2.4986,-2.5283,-2.5337,-2.5441,-2.5552,-2.559,-2.5591,-2.5552,-2.546,-2.5233,-2.486,-2.4125,-2.2342,-1.9979,-1.7512,-1.6027,-1.4295,-1.2206,-1.0388,-0.9247,-0.801,-0.5941,-0.4133,-0.2592,0.011,0.2523,0.3917,0.6294,0.8505,1.0154,1.1581,1.3408,1.5697,1.6349,1.6435,1.5762,1.4873,1.3492,-1.5251,-1.5017,-1.5011,-1.4909,-1.4806,-1.504,-1.5226,-1.5371,-1.5216,-1.5062,-1.5,-1.5181,-1.5361,-1.5517,-1.5727,-1.5984,-1.6287,-1.6256,-1.6414,-1.6686,-1.6808,-1.7111,-1.7571,-1.7948,-1.8383,-1.8815,-1.9033,-1.9108,-1.9108,-1.9117,-1.9236,-1.9464,-1.9995,-2.0376,-2.0628,-2.0711,-2.0677,-2.0535,-1.976,-1.9216,-1.8951,-1.9027,-1.8646,-1.777,-1.769,-1.7484,-1.7146,-1.681,-1.6342,-1.5676,-1.5763,-1.5931,-1.6224,-1.6665,-1.6928,-1.6924,-1.6469,-1.6157,-1.6114,-1.6421,-1.7183,-1.8629,-1.9096,-1.9814,-2.087,-2.0886,-2.095,-2.1268,-2.1023,-2.1031,-2.1466,-2.1906,-2.2389,-2.2877,-2.371,-2.4291,-2.4573,-2.4933,-2.5214,-2.5292,-2.5415,-2.5504,-2.5546,-2.5587,-2.5582,-2.5535,-2.5297,-2.4994,-2.4733,-2.3621,-2.2027,-2.0037,-1.8372,-1.658,-1.4456,-1.2533,-1.0857,-0.9243,-0.7248,-0.5149,-0.3239,-0.0382,0.2432,0.5208,0.7722,1.007,1.2,1.3284,1.4654,1.5767,1.5797,1.5438,1.5326,1.3973,1.1691,-1.5642,-1.544,-1.5318,-1.5227,-1.5228,-1.5357,-1.576,-1.6284,-1.606,-1.5695,-1.5417,-1.5638,-1.5856,-1.5922,-1.5877,-1.6114,-1.6421,-1.6076,-1.6107,-1.649,-1.6528,-1.6928,-1.7632,-1.7754,-1.8187,-1.8905,-1.9019,-1.9056,-1.9101,-1.9011,-1.9206,-1.9617,-2.0003,-2.0273,-2.0501,-2.0652,-2.0585,-2.0365,-2.0223,-2.0169,-2.0111,-2.0017,-1.9797,-1.9472,-1.9011,-1.8577,-1.8238,-1.7901,-1.738,-1.6693,-1.7273,-1.7474,-1.7098,-1.7848,-1.8138,-1.774,-1.7666,-1.7713,-1.7673,-1.7881,-1.8383,-1.9243,-1.9229,-1.9679,-2.0805,-2.1189,-2.1393,-2.1493,-2.1362,-2.1438,-2.1894,-2.2334,-2.2829,-2.3271,-2.3956,-2.4458,-2.4693,-2.4965,-2.515,-2.5244,-2.5372,-2.5466,-2.5453,-2.5522,-2.5593,-2.5555,-2.5352,-2.5204,-2.5138,-2.4768,-2.3914,-2.2667,-2.0761,-1.874,-1.7072,-1.5175,-1.3172,-1.1177,-0.9126,-0.7139,-0.4739,-0.1769,0.1661,0.4974,0.8238,1.0742,1.3134,1.4468,1.532,1.6072,1.5637,1.4947,1.4754,1.2696,1.0134,-1.7601,-1.7109,-1.6585,-1.6553,-1.6663,-1.6059,-1.6384,-1.7057,-1.6263,-1.6152,-1.6529,-1.6435,-1.6349,-1.6423,-1.6403,-1.6459,-1.6522,-1.6471,-1.6465,-1.6515,-1.6528,-1.6772,-1.731,-1.7632,-1.8068,-1.8546,-1.8777,-1.8943,-1.9094,-1.9325,-1.9747,-2.0315,-2.0452,-2.0452,-2.0535,-2.061,-2.0677,-2.0571,-2.066,-2.06,-2.0342,-1.9949,-1.9801,-1.9927,-1.9479,-1.9026,-1.8539,-1.8539,-1.8312,-1.7882,-1.7801,-1.7962,-1.8226,-1.8042,-1.8042,-1.8422,-1.8224,-1.8152,-1.8369,-1.8738,-1.9042,-1.9258,-1.9801,-2.0212,-2.0573,-2.1126,-2.1691,-2.1953,-2.157,-2.1675,-2.2446,-2.2721,-2.3049,-2.3608,-2.4237,-2.4678,-2.4742,-2.503,-2.5223,-2.5044,-2.5274,-2.5357,-2.5312,-2.5467,-2.5602,-2.5609,-2.5507,-2.5446,-2.5412,-2.5197,-2.4949,-2.4396,-2.2942,-2.0875,-1.8917,-1.7518,-1.6051,-1.46,-1.1734,-0.9449,-0.7306,-0.341,0.1396,0.3225,0.6486,1.0045,1.2666,1.4216,1.5574,1.5926,1.5856,1.5641,1.3394,1.1295,0.9533,-1.7893,-1.7386,-1.7307,-1.7263,-1.7235,-1.7445,-1.752,-1.7364,-1.7169,-1.6952,-1.6797,-1.6729,-1.6614,-1.6436,-1.6479,-1.6528,-1.6528,-1.6528,-1.6528,-1.6528,-1.6528,-1.6899,-1.7509,-1.7707,-1.8154,-1.8829,-1.8943,-1.9019,-1.9094,-1.9199,-1.9522,-1.9967,-2.0045,-2.015,-2.0373,-2.0501,-2.0561,-2.0538,-2.0717,-2.0758,-2.0587,-2.003,-1.961,-1.9435,-1.9056,-1.8738,-1.8553,-1.8273,-1.8042,-1.7908,-1.8075,-1.8319,-1.8507,-1.8546,-1.8707,-1.8981,-1.8921,-1.9027,-1.9427,-1.9391,-1.9464,-1.9737,-1.9844,-2.0004,-2.0348,-2.082,-2.1285,-2.1713,-2.194,-2.2209,-2.252,-2.2931,-2.3419,-2.3966,-2.4386,-2.4638,-2.4766,-2.5063,-2.5233,-2.5141,-2.5284,-2.5405,-2.5403,-2.5508,-2.5591,-2.5609,-2.5574,-2.5566,-2.5547,-2.5449,-2.5327,-2.51,-2.434,-2.3153,-2.1275,-1.9762,-1.8493,-1.7001,-1.4861,-1.2715,-0.9846,-0.7452,-0.3426,0.1304,0.4868,0.8763,1.3036,1.3251,1.3986,1.4931,1.4486,1.3531,1.1687,1.0518,0.921,-1.8091,-1.7782,-1.7995,-1.8019,-1.7897,-1.8499,-1.8526,-1.8172,-1.8142,-1.7834,-1.7362,-1.7263,-1.7049,-1.6696,-1.6723,-1.676,-1.6773,-1.6905,-1.7068,-1.7111,-1.6991,-1.7414,-1.8187,-1.8057,-1.8383,-1.8988,-1.9019,-1.9026,-1.9019,-1.9139,-1.9354,-1.9682,-1.979,-2.0018,-2.027,-2.0441,-2.0494,-2.0535,-2.0711,-2.0728,-2.0563,-2.0076,-1.9626,-1.9339,-1.8912,-1.8669,-1.8669,-1.8344,-1.8101,-1.8075,-1.839,-1.8616,-1.8693,-1.8898,-1.9131,-1.9362,-1.945,-1.9654,-2.0115,-1.9866,-1.9887,-2.0269,-2.0035,-2.0012,-2.0431,-2.0763,-2.1007,-2.1316,-2.2039,-2.2448,-2.2486,-2.2972,-2.3579,-2.4081,-2.4386,-2.4635,-2.4881,-2.5158,-2.5273,-2.5203,-2.5293,-2.5424,-2.5498,-2.5547,-2.5579,-2.5624,-2.5627,-2.5609,-2.56,-2.5591,-2.5511,-2.5327,-2.5241,-2.4603,-2.3274,-2.1956,-2.0613,-1.949,-1.7819,-1.5548,-1.2753,-1.0944,-0.7758,-0.2152,0.1649,0.6292,1.1417,1.2548,1.3612,1.4518,1.3726,1.1821,1.1019,1.0152,0.8957,-1.851,-1.8492,-1.8784,-1.8902,-1.8901,-1.8785,-1.9198,-1.9813,-1.8999,-1.8618,-1.8585,-1.8314,-1.7875,-1.7367,-1.7441,-1.7402,-1.7407,-1.7827,-1.8242,-1.8591,-1.8156,-1.8428,-1.9263,-1.8763,-1.8683,-1.9064,-1.8912,-1.8822,-1.8853,-1.9191,-1.9493,-1.9718,-2.0045,-2.027,-2.0312,-2.0381,-2.0457,-2.0566,-2.066,-2.0563,-2.0249,-2.01,-1.997,-1.9856,-1.9362,-1.9071,-1.9064,-1.9026,-1.8936,-1.8738,-1.8784,-1.8884,-1.9102,-1.8959,-1.9079,-1.9603,-1.9682,-1.9861,-2.0235,-2.0254,-2.0376,-2.0607,-2.0504,-2.0597,-2.0894,-2.1095,-2.1143,-2.0909,-2.1782,-2.2322,-2.2395,-2.2797,-2.3296,-2.3828,-2.4355,-2.4752,-2.5069,-2.5253,-2.5284,-2.5194,-2.5293,-2.5403,-2.5499,-2.5513,-2.5574,-2.5643,-2.5642,-2.5606,-2.5608,-2.5606,-2.5587,-2.5534,-2.5393,-2.5059,-2.4395,-2.3503,-2.297,-2.201,-2.0312,-1.8578,-1.6491,-1.3941,-0.9517,-0.4493,0.2064,0.7133,1.0552,1.3105,1.4968,1.5025,1.2523,1.0829,1.0555,0.9809,0.8583,-1.8698,-1.8977,-1.9267,-1.9363,-1.944,-1.9817,-2.0083,-2.0194,-1.9943,-1.9551,-1.9185,-1.8979,-1.8661,-1.8316,-1.8942,-1.8739,-1.7993,-1.8129,-1.8286,-1.8495,-1.8604,-1.8748,-1.892,-1.9014,-1.9063,-1.9069,-1.8898,-1.8815,-1.8829,-1.8966,-1.9229,-1.9654,-1.9826,-2.0018,-2.027,-2.0399,-2.0494,-2.0551,-2.0669,-2.0605,-2.0345,-2.0115,-1.9919,-1.9682,-1.9317,-1.9108,-1.9108,-1.8988,-1.8853,-1.8815,-1.8974,-1.9035,-1.8959,-1.9147,-1.942,-1.9848,-1.9884,-2.0038,-2.041,-2.0486,-2.0663,-2.1007,-2.0844,-2.0853,-2.1102,-2.1142,-2.1134,-2.1346,-2.165,-2.199,-2.2144,-2.2678,-2.3365,-2.396,-2.4335,-2.4662,-2.503,-2.5264,-2.5341,-2.5274,-2.534,-2.5397,-2.5439,-2.5507,-2.5583,-2.5629,-2.5654,-2.5661,-2.5638,-2.562,-2.5605,-2.5595,-2.5537,-2.5419,-2.5261,-2.472,-2.4163,-2.3617,-2.2434,-2.0811,-1.8889,-1.3283,-0.8476,-0.4234,0.2389,0.8301,1.1544,1.2236,1.4332,1.3413,1.0938,1.0307,1.0261,0.9211,0.7823,-1.8821,-1.9158,-1.946,-1.9668,-1.9875,-2.051,-2.0716,-2.0584,-2.0709,-2.0501,-2.0057,-1.9893,-1.9687,-1.9571,-2.0055,-1.9906,-1.9112,-1.9064,-1.9147,-1.9453,-1.9317,-1.9311,-1.9432,-1.9397,-1.9225,-1.8991,-1.8714,-1.8676,-1.8829,-1.886,-1.9199,-1.9697,-1.9841,-2.0018,-2.0277,-2.0399,-2.0467,-2.0527,-2.0603,-2.0636,-2.0486,-2.0227,-1.994,-1.9711,-1.931,-1.9064,-1.9011,-1.8874,-1.8714,-1.863,-1.8777,-1.8853,-1.8876,-1.9398,-1.9925,-2.022,-2.0193,-2.041,-2.0893,-2.0893,-2.1047,-2.1529,-2.1362,-2.1346,-2.1625,-2.1452,-2.1491,-2.1688,-2.1764,-2.1811,-2.2007,-2.2554,-2.3206,-2.3715,-2.4072,-2.4429,-2.4824,-2.5139,-2.5283,-2.5293,-2.534,-2.5383,-2.5405,-2.547,-2.5527,-2.556,-2.5625,-2.5671,-2.5661,-2.5631,-2.5603,-2.5605,-2.5576,-2.5537,-2.5451,-2.5143,-2.4907,-2.4436,-2.3997,-2.2579,-1.9931,-1.3768,-0.8286,-0.3752,0.183,0.8057,1.1235,1.1663,1.1306,1.0619,1.0424,0.9664,0.9162,0.841,0.6724,-1.8993,-1.9046,-1.9454,-1.9817,-2.0169,-2.056,-2.1013,-2.1257,-2.1375,-2.1345,-2.1215,-2.1023,-2.0944,-2.0893,-2.0817,-2.0686,-2.0841,-2.0667,-2.0964,-2.1565,-2.0455,-2.022,-2.0732,-1.9905,-1.9195,-1.8812,-1.8425,-1.8418,-1.8738,-1.8974,-1.928,-1.969,-2.0088,-2.0235,-2.0304,-2.0339,-2.0373,-2.0467,-2.0475,-2.0535,-2.0695,-2.0315,-2.0115,-2.0123,-1.9508,-1.9056,-1.8867,-1.8777,-1.8599,-1.834,-1.8307,-1.8482,-1.9058,-1.9795,-2.046,-2.0671,-2.0563,-2.0893,-2.1501,-2.1363,-2.1432,-2.1886,-2.1973,-2.1911,-2.2243,-2.2036,-2.1836,-2.1932,-2.1861,-2.1869,-2.2047,-2.2362,-2.2686,-2.2939,-2.3632,-2.4145,-2.444,-2.4826,-2.5141,-2.5253,-2.5313,-2.5331,-2.5372,-2.541,-2.5434,-2.5506,-2.5549,-2.5602,-2.561,-2.558,-2.5593,-2.5564,-2.5508,-2.5451,-2.5497,-2.5517,-2.541,-2.5223,-2.4827,-2.3879,-2.1496,-1.6614,-1.1255,-0.6368,0.05,0.6418,0.6762,0.7014,0.6121,0.5744,0.6825,0.7149,0.5986,0.4765,0.4923,-1.8507,-1.8993,-1.9152,-1.9558,-2.0175,-2.0321,-2.0779,-2.1422,-2.1837,-2.2011,-2.2062,-2.2342,-2.2486,-2.2506,-2.2569,-2.2407,-2.2183,-2.2049,-2.1943,-2.1691,-2.1478,-2.1222,-2.106,-2.0668,-1.9826,-1.8722,-1.8307,-1.8333,-1.8623,-1.895,-1.9325,-1.969,-2.0123,-2.027,-2.0304,-2.0346,-2.0381,-2.0415,-2.046,-2.0433,-2.035,-2.0177,-2.003,-1.9869,-1.9646,-1.9428,-1.9199,-1.8676,-1.8489,-1.8606,-1.8777,-1.9214,-1.9887,-2.0319,-2.0538,-2.0613,-2.086,-2.0909,-2.099,-2.1015,-2.1253,-2.1667,-2.1485,-2.1748,-2.2417,-2.1882,-2.1645,-2.1932,-2.184,-2.1746,-2.1978,-2.2287,-2.2624,-2.3014,-2.3617,-2.4091,-2.4374,-2.4794,-2.5072,-2.516,-2.5253,-2.5313,-2.534,-2.5357,-2.5405,-2.5425,-2.5485,-2.5532,-2.5522,-2.5496,-2.5418,-2.5345,-2.5314,-2.5306,-2.5313,-2.536,-2.5367,-2.533,-2.5138,-2.4933,-2.2636,-1.8426,-1.333,-0.8083,-0.1229,0.1691,0.2095,0.1521,0.0337,0.0146,0.0502,0.0667,0.0676,0.081,0.0994,-1.8257,-1.8987,-1.8993,-1.9356,-1.9978,-2.0137,-2.0716,-2.1529,-2.2085,-2.2427,-2.2698,-2.3006,-2.3189,-2.3187,-2.3152,-2.2984,-2.2698,-2.2484,-2.2207,-2.1861,-2.1813,-2.1608,-2.1024,-2.0416,-1.9666,-1.8658,-1.8282,-1.8379,-1.8738,-1.8988,-1.9391,-1.9904,-2.0193,-2.0304,-2.0304,-2.0331,-2.0388,-2.0388,-2.0407,-2.0357,-2.0247,-2.0204,-2.0123,-1.9983,-1.9797,-1.9639,-1.9442,-1.8867,-1.8651,-1.8898,-1.9229,-1.9696,-2.0189,-2.0402,-2.0579,-2.0704,-2.0827,-2.0941,-2.1015,-2.1119,-2.1331,-2.1718,-2.156,-2.1642,-2.2245,-2.1697,-2.1524,-2.1726,-2.1648,-2.1526,-2.1691,-2.213,-2.2492,-2.2712,-2.3428,-2.4016,-2.4414,-2.4794,-2.5061,-2.515,-2.5244,-2.5293,-2.5303,-2.5322,-2.5357,-2.5364,-2.5408,-2.546,-2.5444,-2.5425,-2.5325,-2.5226,-2.5197,-2.5157,-2.5083,-2.5158,-2.5269,-2.5295,-2.5276,-2.5121,-2.4058,-1.8247,-1.2769,-0.8938,-0.3058,-0.425,-0.4179,-0.5568,-0.6721,-0.6293,-0.5485,-0.3919,-0.3039,-0.2975,-0.2815,-1.8263,-1.8987,-1.8993,-1.9245,-1.9668,-2.0022,-2.0675,-2.1575,-2.2132,-2.2643,-2.3095,-2.3392,-2.3398,-2.3209,-2.3065,-2.2886,-2.2641,-2.238,-2.2226,-2.2187,-2.1852,-2.1408,-2.0916,-1.9911,-1.912,-1.8552,-1.8437,-1.8592,-1.9019,-1.9176,-1.9508,-2.0208,-2.0277,-2.0304,-2.0304,-2.0304,-2.0346,-2.0388,-2.0346,-2.0373,-2.0426,-2.0357,-2.0304,-2.0312,-1.9983,-1.9754,-1.9718,-1.9391,-1.9169,-1.9213,-1.9545,-1.9818,-1.9917,-2.022,-2.0628,-2.0853,-2.0679,-2.095,-2.1368,-2.1469,-2.171,-2.2051,-2.1994,-2.2192,-2.2116,-2.171,-2.1401,-2.1584,-2.1456,-2.1371,-2.1532,-2.1924,-2.2256,-2.2349,-2.3203,-2.3958,-2.465,-2.4846,-2.4978,-2.5192,-2.5283,-2.5293,-2.5293,-2.5284,-2.5274,-2.5303,-2.5338,-2.5346,-2.5354,-2.531,-2.5282,-2.5177,-2.5044,-2.4974,-2.4875,-2.4998,-2.5096,-2.5168,-2.5203,-2.5166,-2.4989,-1.9684,-1.592,-1.1719,-0.8663,-0.9861,-1.1026,-1.2297,-1.2676,-1.2073,-1.0405,-0.7932,-0.7102,-0.7345,-0.6627,-1.8015,-1.8987,-1.8993,-1.9251,-1.9558,-1.9714,-2.03,-2.1256,-2.2168,-2.2824,-2.3417,-2.4181,-2.4414,-2.451,-2.4313,-2.3899,-2.3203,-2.3029,-2.258,-2.2087,-2.2037,-2.161,-2.108,-2.0479,-1.9563,-1.8735,-1.9021,-1.9234,-1.9123,-1.9413,-1.9799,-2.027,-2.0327,-2.0304,-2.0304,-2.0304,-2.0296,-2.0304,-2.0304,-2.0346,-2.0365,-2.0323,-2.0304,-2.0304,-2.02,-2.0131,-2.0123,-2.0045,-1.9841,-1.9574,-1.994,-2.015,-2.0185,-2.046,-2.0595,-2.0553,-2.0934,-2.1079,-2.1134,-2.1462,-2.1811,-2.1961,-2.1807,-2.1688,-2.2079,-2.1415,-2.1316,-2.1532,-2.1562,-2.1615,-2.1973,-2.2301,-2.2608,-2.3085,-2.3446,-2.3896,-2.4496,-2.4776,-2.4907,-2.5105,-2.5158,-2.5191,-2.5253,-2.5222,-2.5182,-2.5243,-2.5224,-2.5174,-2.5174,-2.5141,-2.5077,-2.4894,-2.4756,-2.4712,-2.4712,-2.4828,-2.4936,-2.5009,-2.5061,-2.51,-2.4849,-2.2832,-2.1022,-1.9209,-1.6497,-1.6593,-1.7576,-1.8662,-1.8295,-1.6766,-1.5575,-1.3386,-1.2866,-1.273,-1.0946,-1.7918,-1.8993,-1.8993,-1.9093,-1.9275,-1.9695,-2.0316,-2.1071,-2.2014,-2.2972,-2.3727,-2.4242,-2.4701,-2.4978,-2.4727,-2.4272,-2.3607,-2.3234,-2.2686,-2.2284,-2.1883,-2.1473,-2.1083,-2.0805,-2.0125,-1.9286,-1.962,-1.9838,-1.9875,-1.9868,-2.013,-2.0604,-2.0581,-2.0441,-2.0312,-2.046,-2.0501,-2.0494,-2.0407,-2.0339,-2.0501,-2.0373,-2.0304,-2.0304,-2.0304,-2.0304,-2.0304,-2.0304,-2.0166,-2.0053,-2.0158,-2.0304,-2.0304,-2.0467,-2.0494,-2.0331,-2.0877,-2.1103,-2.1103,-2.1515,-2.1911,-2.199,-2.1756,-2.1823,-2.1932,-2.1501,-2.1425,-2.1648,-2.1653,-2.1786,-2.2076,-2.2392,-2.2857,-2.3355,-2.3628,-2.3932,-2.451,-2.4617,-2.4776,-2.4952,-2.5031,-2.5043,-2.5189,-2.508,-2.5037,-2.5061,-2.5046,-2.5012,-2.4987,-2.4929,-2.4842,-2.4695,-2.4559,-2.4533,-2.4508,-2.4586,-2.4653,-2.4752,-2.4651,-2.4755,-2.4667,-2.4298,-2.3474,-2.2548,-2.2623,-2.241,-2.1769,-2.1309,-2.0606,-1.9477,-1.9269,-1.8316,-1.697,-1.5569,-1.406,-1.7875,-1.8946,-1.9,-1.8857,-1.8839,-1.9782,-2.0336,-2.0927,-2.1621,-2.2744,-2.3787,-2.3852,-2.4343,-2.4908,-2.4605,-2.4198,-2.4042,-2.318,-2.2729,-2.238,-2.1942,-2.1461,-2.1206,-2.0975,-2.0471,-1.996,-2.0055,-2.0444,-2.0638,-2.036,-2.06,-2.1036,-2.0986,-2.0689,-2.0465,-2.0654,-2.0786,-2.0654,-2.0494,-2.0467,-2.0569,-2.0407,-2.0304,-2.0304,-2.0304,-2.0304,-2.0304,-2.0304,-2.027,-2.027,-2.0304,-2.0304,-2.0304,-2.0312,-2.0373,-2.0467,-2.0771,-2.1055,-2.1197,-2.1777,-2.2133,-2.2141,-2.2124,-2.2059,-2.1982,-2.1773,-2.1678,-2.1811,-2.1827,-2.1928,-2.2064,-2.2385,-2.289,-2.341,-2.3671,-2.4001,-2.4329,-2.45,-2.4632,-2.4919,-2.4851,-2.4865,-2.4942,-2.4919,-2.4823,-2.4987,-2.4958,-2.4896,-2.4842,-2.4741,-2.466,-2.4559,-2.445,-2.4372,-2.4355,-2.4328,-2.4396,-2.4428,-2.4216,-2.4214,-2.4364,-2.4099,-2.373,-2.3316,-2.2917,-2.2367,-2.1657,-2.1439,-2.1303,-2.0695,-1.9506,-1.8994,-1.8328,-1.6972,-1.5506,-1.7606,-1.8703,-1.889,-1.8904,-1.886,-1.9138,-1.9755,-2.0544,-2.074,-2.1811,-2.305,-2.3623,-2.4163,-2.4828,-2.4759,-2.4578,-2.4198,-2.3736,-2.3328,-2.2392,-2.2462,-2.1918,-2.1505,-2.1202,-2.0717,-2.0376,-2.0864,-2.1083,-2.1026,-2.112,-2.1226,-2.1262,-2.1388,-2.1153,-2.048,-2.0877,-2.0909,-2.0553,-2.0561,-2.0561,-2.0441,-2.0373,-2.0304,-2.0304,-2.0296,-2.0312,-2.0304,-2.0304,-2.0304,-2.0304,-2.0304,-2.0339,-2.0304,-2.0304,-2.0433,-2.0687,-2.1031,-2.1339,-2.1645,-2.2073,-2.2379,-2.2332,-2.2254,-2.2136,-2.2068,-2.192,-2.192,-2.2019,-2.2124,-2.2226,-2.2417,-2.2756,-2.3074,-2.3387,-2.364,-2.3908,-2.4219,-2.4418,-2.4591,-2.4712,-2.4672,-2.4632,-2.4832,-2.4809,-2.4799,-2.4896,-2.4869,-2.4809,-2.4706,-2.4572,-2.45,-2.4417,-2.4238,-2.4136,-2.4108,-2.408,-2.4071,-2.4072,-2.3861,-2.3703,-2.385,-2.3671,-2.3235,-2.3056,-2.2944,-2.2235,-2.1203,-2.1044,-2.0807,-2.021,-1.9656,-1.903,-1.8299,-1.7477,-1.6505,-1.7288,-1.8495,-1.8538,-1.873,-1.9032,-1.944,-1.9841,-2.0153,-2.0438,-2.1397,-2.2687,-2.3081,-2.3682,-2.4664,-2.4828,-2.4689,-2.4419,-2.4156,-2.3628,-2.2821,-2.2613,-2.2215,-2.1947,-2.1698,-2.1354,-2.0834,-2.113,-2.1389,-2.1412,-2.1303,-2.1237,-2.1299,-2.1495,-2.1177,-2.0675,-2.1023,-2.1119,-2.0836,-2.0587,-2.0527,-2.0543,-2.0373,-2.0304,-2.0339,-2.0433,-2.0535,-2.0527,-2.0543,-2.062,-2.0687,-2.0628,-2.0433,-2.0365,-2.0441,-2.0636,-2.0877,-2.1339,-2.1645,-2.1949,-2.2231,-2.2479,-2.2468,-2.2362,-2.2335,-2.2298,-2.2195,-2.2251,-2.2345,-2.2428,-2.2517,-2.2685,-2.2936,-2.3173,-2.3387,-2.3619,-2.3867,-2.4113,-2.4284,-2.4418,-2.4533,-2.445,-2.4493,-2.4559,-2.4614,-2.4556,-2.4563,-2.4588,-2.4533,-2.4484,-2.4382,-2.4356,-2.4248,-2.4019,-2.3899,-2.386,-2.3801,-2.3744,-2.3681,-2.3517,-2.3392,-2.3383,-2.3062,-2.2642,-2.2462,-2.2218,-2.1302,-2.0442,-2.0371,-2.0241,-1.9849,-1.9361,-1.875,-1.8104,-1.7321,-1.6243,-1.6895,-1.8196,-1.8162,-1.8471,-1.913,-1.9759,-1.9969,-2.0024,-2.0234,-2.1122,-2.2427,-2.2341,-2.3135,-2.4183,-2.4671,-2.4778,-2.4687,-2.4481,-2.3953,-2.3384,-2.2977,-2.2563,-2.2305,-2.2158,-2.1893,-2.1491,-2.156,-2.1692,-2.1576,-2.1345,-2.1225,-2.1243,-2.1393,-2.114,-2.089,-2.1087,-2.1174,-2.0934,-2.0654,-2.0494,-2.0595,-2.0399,-2.0304,-2.0339,-2.0501,-2.0628,-2.0595,-2.0662,-2.0786,-2.1119,-2.0909,-2.0662,-2.0535,-2.0695,-2.095,-2.1047,-2.1615,-2.189,-2.2101,-2.2324,-2.2487,-2.2487,-2.2506,-2.2506,-2.247,-2.2497,-2.2525,-2.2552,-2.2605,-2.2632,-2.272,-2.2944,-2.3149,-2.3373,-2.3557,-2.3807,-2.4016,-2.4151,-2.4247,-2.4302,-2.4302,-2.4348,-2.4374,-2.4391,-2.4293,-2.4229,-2.4266,-2.4275,-2.4257,-2.4173,-2.4135,-2.4057,-2.3846,-2.3655,-2.3624,-2.3455,-2.3405,-2.3323,-2.3203,-2.3038,-2.2889,-2.2539,-2.2154,-2.1641,-2.1163,-2.0368,-1.9823,-1.9664,-1.9565,-1.9406,-1.8998,-1.832,-1.7746,-1.7164,-1.5849,-1.6435,-1.7245,-1.7749,-1.8309,-1.8758,-1.8978,-1.9508,-1.9947,-1.9766,-2.0329,-2.1404,-2.2033,-2.2707,-2.3505,-2.4312,-2.4657,-2.461,-2.4543,-2.44,-2.392,-2.3574,-2.3234,-2.2407,-2.2298,-2.1986,-2.1722,-2.1742,-2.1794,-2.1539,-2.1564,-2.1197,-2.1016,-2.1358,-2.124,-2.0823,-2.0934,-2.1023,-2.0803,-2.0654,-2.062,-2.052,-2.0433,-2.0304,-2.0339,-2.046,-2.052,-2.046,-2.0433,-2.0407,-2.0494,-2.0654,-2.0761,-2.0852,-2.1095,-2.1362,-2.1598,-2.1823,-2.2044,-2.2324,-2.2432,-2.2487,-2.2506,-2.2533,-2.2533,-2.2533,-2.256,-2.2579,-2.256,-2.2579,-2.2605,-2.2624,-2.291,-2.314,-2.3341,-2.3544,-2.3795,-2.4007,-2.4065,-2.4065,-2.4135,-2.4162,-2.42,-2.4238,-2.4266,-2.4266,-2.4229,-2.4248,-2.4238,-2.422,-2.4058,-2.3899,-2.3783,-2.3642,-2.3486,-2.338,-2.3155,-2.304,-2.3,-2.2858,-2.2617,-2.2422,-2.2088,-2.1685,-2.1131,-2.0621,-2.0066,-1.9579,-1.9161,-1.9049,-1.9035,-1.8496,-1.7927,-1.7335,-1.6686,-1.4846,-1.6282,-1.7321,-1.7528,-1.8301,-1.9329,-1.9441,-1.9697,-2.0004,-1.9894,-2.0278,-2.1003,-2.1547,-2.2039,-2.2646,-2.3129,-2.3617,-2.4105,-2.4343,-2.419,-2.3971,-2.373,-2.3234,-2.2373,-2.2312,-2.1939,-2.164,-2.1661,-2.1479,-2.0899,-2.1176,-2.0911,-2.055,-2.0907,-2.1009,-2.074,-2.0844,-2.0966,-2.0771,-2.0778,-2.0811,-2.0771,-2.0654,-2.0501,-2.0407,-2.0613,-2.0795,-2.0828,-2.1031,-2.119,-2.1316,-2.1324,-2.1417,-2.1548,-2.1678,-2.1811,-2.189,-2.2023,-2.2192,-2.2377,-2.2441,-2.2413,-2.2468,-2.2515,-2.2533,-2.2533,-2.2542,-2.2552,-2.2533,-2.2533,-2.2597,-2.2782,-2.2936,-2.314,-2.3441,-2.3606,-2.3753,-2.3917,-2.3937,-2.3967,-2.3996,-2.4065,-2.4133,-2.4161,-2.4191,-2.4229,-2.4238,-2.422,-2.4192,-2.4164,-2.3961,-2.3723,-2.3667,-2.3544,-2.3315,-2.3157,-2.2969,-2.2712,-2.2669,-2.2589,-2.232,-2.2014,-2.1718,-2.1189,-2.055,-2.0089,-1.9758,-1.9273,-1.8867,-1.8784,-1.8738,-1.857,-1.8185,-1.7205,-1.6022,-1.4363,-1.6151,-1.739,-1.7296,-1.8317,-1.9792,-1.9927,-1.9976,-2.0069,-2.0074,-2.0366,-2.088,-2.1066,-2.1434,-2.1859,-2.228,-2.2774,-2.3452,-2.3623,-2.372,-2.3745,-2.3501,-2.2935,-2.2475,-2.2244,-2.2,-2.1477,-2.122,-2.083,-2.0372,-2.0436,-2.0146,-1.9953,-2.0296,-2.0662,-2.0654,-2.0662,-2.0909,-2.0942,-2.0982,-2.0974,-2.1055,-2.0877,-2.061,-2.0381,-2.0869,-2.115,-2.1087,-2.137,-2.1631,-2.1759,-2.1835,-2.1894,-2.2152,-2.2262,-2.2217,-2.2069,-2.2209,-2.233,-2.2386,-2.2366,-2.2366,-2.2422,-2.246,-2.2451,-2.2451,-2.2487,-2.2497,-2.2479,-2.2479,-2.2597,-2.2833,-2.2986,-2.3188,-2.3504,-2.3655,-2.3716,-2.3843,-2.3905,-2.3896,-2.3946,-2.4016,-2.3996,-2.3967,-2.3937,-2.3941,-2.3941,-2.3941,-2.401,-2.3961,-2.3789,-2.3628,-2.3615,-2.3491,-2.3203,-2.2985,-2.279,-2.2535,-2.2362,-2.229,-2.2133,-2.1761,-2.1399,-2.0829,-2.0319,-1.9965,-1.9594,-1.9065,-1.8669,-1.8662,-1.8738,-1.8829,-1.8355,-1.7321,-1.6059,-1.45,-1.5855,-1.6724,-1.7112,-1.8119,-1.9438,-1.9561,-1.9774,-2.0069,-2.0091,-2.0145,-2.0324,-2.0811,-2.1066,-2.1313,-2.191,-2.247,-2.2803,-2.2968,-2.3058,-2.3132,-2.3126,-2.2771,-2.2343,-2.2319,-2.1925,-2.1396,-2.0867,-2.0324,-1.9921,-1.974,-1.9515,-1.9375,-1.9675,-2.0045,-2.0399,-2.0441,-2.0365,-2.0467,-2.0703,-2.086,-2.0852,-2.0628,-2.046,-2.0501,-2.0695,-2.1038,-2.1207,-2.1516,-2.1702,-2.1726,-2.1859,-2.186,-2.1878,-2.216,-2.2245,-2.2265,-2.2321,-2.2396,-2.2432,-2.2413,-2.2366,-2.2394,-2.2422,-2.2386,-2.2386,-2.2358,-2.2377,-2.2405,-2.2413,-2.2605,-2.2893,-2.3084,-2.3312,-2.354,-2.3732,-2.3813,-2.3905,-2.3855,-2.3855,-2.3855,-2.3926,-2.3765,-2.3662,-2.3653,-2.3644,-2.3653,-2.3662,-2.3735,-2.3765,-2.3628,-2.335,-2.3321,-2.3376,-2.3116,-2.291,-2.2685,-2.2407,-2.2118,-2.2052,-2.194,-2.1529,-2.1118,-2.0748,-2.0261,-1.9914,-1.9493,-1.8997,-1.87,-1.8662,-1.87,-1.8829,-1.8217,-1.7349,-1.6034,-1.4761,-1.6114,-1.7032,-1.7451,-1.8415,-1.9742,-1.9828,-1.9878,-2.0053,-2.0091,-2.0091,-2.014,-2.0394,-2.0512,-2.0705,-2.0944,-2.1202,-2.1491,-2.1674,-2.1878,-2.2127,-2.2163,-2.2082,-2.188,-2.1803,-2.1593,-2.1369,-2.0772,-2.0283,-1.9799,-1.9488,-1.93,-1.9195,-1.9508,-1.994,-2.0235,-2.0304,-2.0441,-2.0695,-2.1039,-2.1253,-2.1095,-2.0934,-2.0869,-2.0869,-2.1007,-2.1376,-2.1898,-2.2293,-2.2726,-2.2973,-2.3301,-2.3075,-2.2836,-2.2819,-2.2801,-2.2319,-2.231,-2.2366,-2.2386,-2.2366,-2.2366,-2.2358,-2.2366,-2.2394,-2.2366,-2.2338,-2.2386,-2.256,-2.2413,-2.2605,-2.3001,-2.3164,-2.3399,-2.3624,-2.3795,-2.3795,-2.3855,-2.3825,-2.3804,-2.3825,-2.3804,-2.3658,-2.3531,-2.35,-2.3477,-2.3432,-2.3427,-2.3445,-2.3535,-2.3567,-2.3259,-2.291,-2.301,-2.3035,-2.2842,-2.2659,-2.2315,-2.2052,-2.1936,-2.1735,-2.126,-2.087,-2.0424,-2.0081,-1.9745,-1.9325,-1.8891,-1.8815,-1.886,-1.8822,-1.8791,-1.8099,-1.7362,-1.6593,-1.518,-1.6256,-1.7126,-1.7679,-1.8711,-1.9928,-2.0004,-2.008,-2.0091,-2.0091,-2.0091,-2.0091,-2.0151,-2.0151,-2.0156,-2.0177,-2.0325,-2.0339,-2.041,-2.0531,-2.0716,-2.0982,-2.1127,-2.1196,-2.1207,-2.1402,-2.1396,-2.0732,-2.0158,-1.9704,-1.9319,-1.9067,-1.8979,-1.928,-1.9718,-2.0045,-2.0254,-2.046,-2.0934,-2.1118,-2.1282,-2.1401,-2.1379,-2.1301,-2.1364,-2.1596,-2.2079,-2.282,-2.3415,-2.3963,-2.4191,-2.4143,-2.3809,-2.3659,-2.3165,-2.2966,-2.2595,-2.253,-2.2319,-2.2319,-2.2319,-2.2319,-2.231,-2.2338,-2.2366,-2.2349,-2.233,-2.233,-2.2533,-2.2533,-2.2782,-2.3179,-2.3236,-2.3468,-2.3676,-2.3825,-2.3825,-2.3804,-2.3783,-2.3783,-2.3804,-2.3762,-2.3624,-2.3504,-2.3396,-2.3327,-2.3248,-2.3227,-2.3182,-2.3253,-2.3371,-2.3133,-2.2773,-2.2764,-2.2773,-2.2482,-2.2315,-2.2081,-2.1899,-2.1781,-2.1477,-2.0991,-2.0483,-2.0039,-1.9737,-1.9508,-1.9221,-1.8822,-1.8943,-1.9056,-1.8784,-1.8507,-1.804,-1.7423,-1.6648,-1.5389,-1.606,-1.6655,-1.7531,-1.8424,-1.9441,-1.9868,-2.0091,-2.0091,-2.0091,-2.0091,-2.0091,-2.0091,-2.0091,-2.0069,-2.0041,-1.9982,-1.9924,-1.9947,-1.9866,-1.9955,-2.0289,-2.0552,-2.076,-2.1019,-2.1257,-2.1238,-2.0792,-2.0173,-1.9553,-1.9098,-1.8797,-1.8592,-1.8981,-1.9347,-1.9754,-2.015,-2.0587,-2.0902,-2.0935,-2.1147,-2.1485,-2.1614,-2.1539,-2.1644,-2.2223,-2.2839,-2.2969,-2.393,-2.4591,-2.4729,-2.4548,-2.4236,-2.4107,-2.3519,-2.3182,-2.2856,-2.2547,-2.2353,-2.2319,-2.2319,-2.2319,-2.2319,-2.2347,-2.2366,-2.233,-2.231,-2.2338,-2.2396,-2.2533,-2.2799,-2.3133,-2.3324,-2.3553,-2.3719,-2.3804,-2.3762,-2.3762,-2.3741,-2.3762,-2.3783,-2.3689,-2.3491,-2.3339,-2.3212,-2.3082,-2.3009,-2.2976,-2.2927,-2.2969,-2.3035,-2.2918,-2.2694,-2.2642,-2.2436,-2.1986,-2.1789,-2.1713,-2.1493,-2.1316,-2.1023,-2.0674,-2.0162,-1.9694,-1.9376,-1.914,-1.8974,-1.8874,-1.8905,-1.8867,-1.8592,-1.8226,-1.7881,-1.6867,-1.5706,-1.4444,-1.566,-1.5731,-1.6636,-1.791,-1.9309,-1.9873,-2.0091,-2.0091,-2.0091,-2.0091,-2.0058,-2.0085,-2.0085,-2.0004,-1.9704,-1.9487,-1.9144,-1.8818,-1.8983,-1.9279,-1.9635,-2.0129,-2.0529,-2.0885,-2.1082,-2.1084,-2.0795,-2.0221,-1.938,-1.9043,-1.8443,-1.835,-1.8637,-1.9147,-1.9595,-2.0003,-2.0553,-2.0893,-2.0983,-2.1266,-2.1598,-2.1826,-2.1994,-2.2662,-2.2553,-2.3585,-2.4406,-2.492,-2.5397,-2.5651,-2.5576,-2.5162,-2.4619,-2.4056,-2.3507,-2.2961,-2.2468,-2.2361,-2.2319,-2.2319,-2.2319,-2.2347,-2.2449,-2.2496,-2.233,-2.231,-2.2405,-2.2506,-2.2641,-2.2876,-2.3286,-2.3458,-2.3562,-2.3719,-2.3783,-2.3741,-2.3676,-2.3676,-2.3602,-2.3602,-2.3445,-2.3268,-2.3133,-2.3019,-2.2867,-2.2747,-2.2712,-2.2694,-2.2694,-2.2695,-2.2571,-2.2381,-2.229,-2.2056,-2.1593,-2.1471,-2.1378,-2.1127,-2.0844,-2.0532,-2.023,-1.9864,-1.9427,-1.9102,-1.8815,-1.8721,-1.869,-1.8798,-1.8753,-1.8592,-1.8259,-1.7841,-1.6517,-1.4982,-1.3898,-1.5282,-1.5072,-1.5937,-1.7312,-1.8856,-1.9452,-1.9884,-2.0036,-1.9911,-1.9764,-1.965,-1.9644,-1.9714,-1.9599,-1.9375,-1.8944,-1.8637,-1.8455,-1.8565,-1.8904,-1.9368,-1.9895,-2.0472,-2.0898,-2.1003,-2.0963,-2.0691,-2.0126,-1.9269,-1.909,-1.8365,-1.7969,-1.8219,-1.8755,-1.9132,-1.9767,-2.0326,-2.0893,-2.115,-2.1524,-2.1848,-2.2333,-2.2568,-2.3418,-2.3586,-2.4313,-2.5216,-2.5727,-2.6116,-2.6404,-2.6412,-2.5947,-2.5302,-2.4599,-2.3977,-2.3117,-2.2437,-2.2336,-2.2319,-2.2386,-2.2366,-2.2338,-2.2659,-2.2605,-2.2432,-2.2358,-2.2506,-2.2506,-2.2677,-2.2986,-2.343,-2.3495,-2.362,-2.3795,-2.3804,-2.3762,-2.362,-2.3562,-2.3454,-2.3385,-2.323,-2.3135,-2.285,-2.2677,-2.2426,-2.2315,-2.2279,-2.226,-2.2251,-2.2234,-2.2206,-2.2007,-2.1802,-2.1524,-2.1222,-2.1127,-2.0999,-2.0681,-2.0387,-2.0019,-1.9694,-1.9391,-1.9027,-1.8584,-1.8411,-1.84,-1.851,-1.8644,-1.8714,-1.8714,-1.8126,-1.7299,-1.6293,-1.4846,-1.4122,-1.4902,-1.4706,-1.5501,-1.6615,-1.7924,-1.8515,-1.9196,-1.977,-1.9536,-1.9222,-1.89,-1.8856,-1.8851,-1.8824,-1.8791,-1.8496,-1.8297,-1.8469,-1.8596,-1.8613,-1.9371,-1.994,-2.0258,-2.0636,-2.0838,-2.0795,-2.0402,-1.9779,-1.9046,-1.8676,-1.7949,-1.7591,-1.7828,-1.8298,-1.8408,-1.9148,-2.0097,-2.1086,-2.1245,-2.1653,-2.2191,-2.2954,-2.3359,-2.376,-2.454,-2.5282,-2.5771,-2.6234,-2.6539,-2.6657,-2.67,-2.6226,-2.5532,-2.4456,-2.3789,-2.335,-2.2632,-2.2353,-2.2319,-2.2525,-2.2552,-2.246,-2.2782,-2.2807,-2.2516,-2.2506,-2.2699,-2.2747,-2.2816,-2.3081,-2.333,-2.3534,-2.3768,-2.3955,-2.4,-2.388,-2.3745,-2.3664,-2.3614,-2.3741,-2.3393,-2.303,-2.2658,-2.233,-2.2007,-2.1852,-2.1827,-2.1819,-2.1819,-2.1811,-2.1802,-2.1593,-2.1378,-2.1158,-2.0909,-2.0786,-2.0613,-2.03,-1.9937,-1.9565,-1.9229,-1.8938,-1.8539,-1.8102,-1.8076,-1.8202,-1.8347,-1.8528,-1.8436,-1.8226,-1.7299,-1.641,-1.5537,-1.4738,-1.4009,-1.4335,-1.4196,-1.4243,-1.5219,-1.6614,-1.7797,-1.84,-1.8683,-1.887,-1.8834,-1.872,-1.8698,-1.8698,-1.8622,-1.8348,-1.813,-1.8093,-1.8171,-1.8276,-1.8798,-1.9546,-2.0061,-2.0416,-2.0521,-2.0552,-2.0237,-1.9869,-1.9285,-1.8424,-1.8181,-1.7833,-1.7462,-1.755,-1.8219,-1.8907,-1.9565,-2.0139,-2.0861,-2.119,-2.1556,-2.2053,-2.2992,-2.3761,-2.4112,-2.5143,-2.582,-2.6209,-2.6598,-2.6674,-2.67,-2.67,-2.6302,-2.5558,-2.4458,-2.3767,-2.3338,-2.2725,-2.2336,-2.2441,-2.2624,-2.2825,-2.2782,-2.2867,-2.3051,-2.2859,-2.2694,-2.2891,-2.3084,-2.3048,-2.3528,-2.4417,-2.4151,-2.4244,-2.4541,-2.455,-2.4278,-2.4102,-2.4045,-2.405,-2.4309,-2.4206,-2.3471,-2.2954,-2.2308,-2.191,-2.147,-2.1374,-2.1425,-2.1462,-2.1432,-2.1393,-2.119,-2.0982,-2.0761,-2.0595,-2.046,-2.0247,-1.9925,-1.9551,-1.9147,-1.8838,-1.8447,-1.8233,-1.7868,-1.7956,-1.8003,-1.8069,-1.8088,-1.7915,-1.753,-1.6629,-1.6039,-1.5478,-1.4612,-1.3689,-1.3945,-1.3816,-1.3575,-1.4004,-1.5088,-1.6449,-1.7318,-1.7759,-1.8066,-1.8181,-1.8206,-1.819,-1.8168,-1.8081,-1.7923,-1.7748,-1.7767,-1.8035,-1.8446,-1.904,-1.954,-2.0118,-2.0459,-2.0476,-2.0195,-1.9773,-1.9303,-1.8728,-1.8146,-1.7891,-1.7565,-1.7325,-1.7365,-1.7955,-1.8738,-1.9325,-2.0013,-2.0677,-2.1095,-2.1526,-2.225,-2.3157,-2.4079,-2.4833,-2.5609,-2.6209,-2.6556,-2.67,-2.67,-2.67,-2.6581,-2.6209,-2.534,-2.4791,-2.3907,-2.3211,-2.2657,-2.2446,-2.2736,-2.2585,-2.2738,-2.2867,-2.3149,-2.3188,-2.3147,-2.3163,-2.3324,-2.3448,-2.3424,-2.4123,-2.4896,-2.4583,-2.482,-2.5106,-2.5124,-2.4869,-2.469,-2.4638,-2.452,-2.4792,-2.464,-2.3953,-2.3209,-2.2459,-2.1855,-2.1394,-2.0952,-2.1006,-2.1079,-2.1087,-2.1023,-2.0836,-2.0662,-2.0494,-2.0289,-2.008,-1.9833,-1.9552,-1.9124,-1.8616,-1.8219,-1.7821,-1.7733,-1.7713,-1.7666,-1.7666,-1.7706,-1.7652,-1.738,-1.6847,-1.6108,-1.565,-1.5412,-1.4582,-1.3563,-1.3765,-1.3511,-1.3494,-1.3321,-1.3414,-1.4886,-1.6197,-1.7252,-1.7311,-1.7359,-1.7289,-1.7355,-1.7398,-1.7316,-1.7262,-1.7356,-1.7396,-1.7807,-1.8342,-1.8865,-1.9306,-1.9939,-2.0096,-1.9982,-1.9649,-1.9303,-1.8858,-1.8329,-1.7996,-1.7617,-1.7303,-1.7225,-1.735,-1.7774,-1.8347,-1.9024,-1.9786,-2.0365,-2.0851,-2.1448,-2.2327,-2.3397,-2.4214,-2.5071,-2.5916,-2.6328,-2.6581,-2.6666,-2.67,-2.67,-2.6674,-2.5837,-2.5321,-2.5236,-2.4052,-2.3071,-2.2462,-2.2792,-2.3067,-2.2787,-2.2864,-2.318,-2.3679,-2.3392,-2.3242,-2.3519,-2.3821,-2.397,-2.4076,-2.46,-2.5066,-2.5251,-2.5428,-2.5631,-2.5787,-2.5597,-2.5409,-2.527,-2.5086,-2.5017,-2.4793,-2.4248,-2.3484,-2.274,-2.1948,-2.1272,-2.0817,-2.0506,-2.0563,-2.0753,-2.0679,-2.0563,-2.0384,-2.0289,-2.0045,-1.9726,-1.9391,-1.9094,-1.8493,-1.7981,-1.755,-1.7393,-1.7441,-1.7447,-1.7371,-1.733,-1.7371,-1.7102,-1.6704,-1.6126,-1.5632,-1.5427,-1.5232,-1.4501,-1.3758,-1.322,-1.3134,-1.2868,-1.2961,-1.3511,-1.4464,-1.565,-1.6775,-1.7123,-1.709,-1.6765,-1.7125,-1.7043,-1.6754,-1.6738,-1.7207,-1.7388,-1.7554,-1.804,-1.8454,-1.8734,-1.9015,-1.922,-1.9264,-1.8956,-1.8636,-1.8231,-1.7839,-1.7532,-1.7205,-1.7205,-1.7212,-1.7315,-1.7625,-1.8055,-1.8666,-1.9339,-1.9935,-2.0423,-2.132,-2.2203,-2.3141,-2.4037,-2.4921,-2.5826,-2.6195,-2.628,-2.6556,-2.6632,-2.6657,-2.67,-2.6268,-2.6251,-2.5361,-2.41,-2.3342,-2.3105,-2.3198,-2.3338,-2.3383,-2.3442,-2.3744,-2.4312,-2.414,-2.3841,-2.3841,-2.4336,-2.4522,-2.4743,-2.5205,-2.5682,-2.5962,-2.6072,-2.6181,-2.6273,-2.6181,-2.5982,-2.5815,-2.5612,-2.5354,-2.5128,-2.4636,-2.3839,-2.2972,-2.2177,-2.1371,-2.0717,-2.0279,-2.0108,-2.0289,-2.0357,-2.0239,-2.0135,-2.001,-1.9675,-1.931,-1.8974,-1.8592,-1.8068,-1.7713,-1.7645,-1.7482,-1.7317,-1.7192,-1.7109,-1.708,-1.7093,-1.6729,-1.6281,-1.587,-1.5371,-1.5254,-1.4949,-1.4316,-1.381,-1.2617,-1.2516,-1.2191,-1.2647,-1.365,-1.4396,-1.5318,-1.6257,-1.6829,-1.6818,-1.6536,-1.683,-1.6705,-1.6306,-1.6268,-1.6536,-1.6961,-1.6706,-1.7037,-1.7861,-1.8016,-1.8462,-1.8661,-1.8656,-1.8447,-1.812,-1.7826,-1.7525,-1.7264,-1.7205,-1.7205,-1.7205,-1.7308,-1.7454,-1.7808,-1.8347,-1.9001,-1.9583,-2.0228,-2.1082,-2.2008,-2.2853,-2.3635,-2.4705,-2.557,-2.575,-2.5908,-2.6254,-2.6436,-2.6505,-2.6547,-2.6505,-2.6218,-2.5101,-2.5031,-2.4399,-2.4078,-2.4171,-2.4294,-2.4151,-2.4161,-2.4348,-2.4791,-2.4644,-2.4637,-2.4685,-2.4945,-2.5193,-2.5445,-2.5756,-2.6258,-2.6667,-2.6692,-2.6726,-2.6726,-2.6688,-2.6528,-2.6342,-2.6084,-2.5815,-2.5407,-2.4954,-2.4227,-2.3288,-2.2452,-2.1692,-2.0749,-1.9876,-1.9754,-1.9854,-1.9967,-1.9925,-1.9861,-1.9769,-1.9347,-1.9004,-1.87,-1.839,-1.7908,-1.7639,-1.7652,-1.7495,-1.7205,-1.6983,-1.6808,-1.6778,-1.6754,-1.6392,-1.5988,-1.5528,-1.5158,-1.4897,-1.468,-1.4228,-1.381,-1.196,-1.1921,-1.172,-1.25,-1.3722,-1.4395,-1.5139,-1.5787,-1.6324,-1.6458,-1.6357,-1.6437,-1.6219,-1.5785,-1.5776,-1.5904,-1.6091,-1.5931,-1.6374,-1.7316,-1.7199,-1.7607,-1.8164,-1.8283,-1.7983,-1.7793,-1.7591,-1.7323,-1.7251,-1.7205,-1.7205,-1.7205,-1.7212,-1.7424,-1.7799,-1.8235,-1.8992,-1.9965,-2.0385,-2.1039,-2.2298,-2.3007,-2.3518,-2.4924,-2.5351,-2.5414,-2.554,-2.5799,-2.6087,-2.6245,-2.636,-2.6328,-2.5676,-2.5355,-2.5659,-2.5558,-2.5008,-2.4974,-2.4991,-2.4876,-2.4795,-2.4863,-2.5016,-2.5209,-2.5381,-2.5374,-2.5532,-2.5604,-2.5776,-2.6123,-2.6578,-2.6794,-2.6883,-2.6894,-2.6885,-2.6751,-2.6517,-2.6194,-2.5741,-2.5427,-2.5113,-2.4674,-2.4422,-2.3476,-2.2706,-2.2002,-2.0978,-1.9812,-1.9457,-1.956,-1.9435,-1.9472,-1.9384,-1.931,-1.9161,-1.8815,-1.8507,-1.8154,-1.7754,-1.7645,-1.77,-1.7419,-1.7051,-1.6869,-1.665,-1.6528,-1.6368,-1.6094,-1.573,-1.522,-1.4897,-1.4582,-1.4269,-1.3952,-1.3658,-1.1535,-1.1459,-1.2026,-1.2869,-1.3795,-1.4392,-1.501,-1.5672,-1.5895,-1.581,-1.558,-1.5776,-1.5682,-1.5329,-1.5285,-1.5549,-1.6025,-1.5355,-1.5957,-1.6528,-1.6651,-1.6952,-1.7517,-1.7643,-1.7473,-1.7382,-1.7258,-1.7205,-1.7205,-1.7205,-1.7205,-1.7205,-1.7218,-1.7448,-1.813,-1.8523,-1.9194,-2.0421,-2.0844,-2.15,-2.2723,-2.3061,-2.3486,-2.43,-2.4655,-2.4934,-2.5176,-2.5652,-2.5944,-2.6167,-2.6513,-2.6269,-2.5642,-2.5938,-2.5989,-2.5837,-2.5609,-2.5559,-2.5526,-2.5483,-2.5435,-2.558,-2.5813,-2.6128,-2.6219,-2.6088,-2.6011,-2.5993,-2.6141,-2.6488,-2.6733,-2.6891,-2.698,-2.7012,-2.6971,-2.6699,-2.6454,-2.5892,-2.5335,-2.5005,-2.4687,-2.4488,-2.429,-2.3745,-2.2971,-2.1987,-2.0876,-1.9916,-1.9485,-1.9331,-1.891,-1.8858,-1.8815,-1.8731,-1.8738,-1.8592,-1.8286,-1.8055,-1.7733,-1.7706,-1.7713,-1.7343,-1.6967,-1.6705,-1.6485,-1.6362,-1.6144,-1.5969,-1.5558,-1.5045,-1.4674,-1.4398,-1.3936,-1.3525,-1.3271,-1.0968,-1.103,-1.2001,-1.2913,-1.3754,-1.4241,-1.4763,-1.5209,-1.523,-1.5039,-1.4881,-1.5225,-1.5241,-1.4837,-1.4788,-1.4993,-1.5541,-1.4846,-1.5389,-1.6008,-1.6372,-1.6609,-1.685,-1.7205,-1.7244,-1.7205,-1.7205,-1.7205,-1.7205,-1.7205,-1.7205,-1.7205,-1.7273,-1.7606,-1.8405,-1.8765,-1.9608,-2.099,-2.1382,-2.2227,-2.3122,-2.3179,-2.3319,-2.3895,-2.4268,-2.4508,-2.4735,-2.5206,-2.5577,-2.5944,-2.6385,-2.6539,-2.6227,-2.6362,-2.6337,-2.6202,-2.6059,-2.6017,-2.5991,-2.5966,-2.5958,-2.6135,-2.6278,-2.643,-2.6505,-2.6366,-2.6364,-2.637,-2.6404,-2.67,-2.6691,-2.6816,-2.6816,-2.6816,-2.6548,-2.6264,-2.5827,-2.5351,-2.4934,-2.4639,-2.4459,-2.4403,-2.4128,-2.3759,-2.3086,-2.2706,-2.1436,-2.032,-1.9829,-1.9171,-1.8718,-1.8416,-1.846,-1.8482,-1.8584,-1.8372,-1.8036,-1.7835,-1.7713,-1.7666,-1.7577,-1.7212,-1.684,-1.6663,-1.6399,-1.6132,-1.5963,-1.583,-1.5373,-1.4772,-1.449,-1.4258,-1.3705,-1.3195,-1.3084,-1.0597,-1.0822,-1.1878,-1.2828,-1.3636,-1.4091,-1.4447,-1.4693,-1.4544,-1.4463,-1.446,-1.4843,-1.4706,-1.4551,-1.4425,-1.4425,-1.4441,-1.4474,-1.5091,-1.5665,-1.5875,-1.6404,-1.6892,-1.7205,-1.7205,-1.7205,-1.7205,-1.7205,-1.7205,-1.7205,-1.7205,-1.7205,-1.7356,-1.7527,-1.8228,-1.8974,-2.005,-2.1437,-2.2245,-2.2877,-2.3136,-2.3185,-2.3427,-2.3731,-2.3982,-2.4074,-2.4268,-2.4647,-2.509,-2.554,-2.6104,-2.6298,-2.6437,-2.647,-2.6496,-2.6395,-2.6404,-2.6395,-2.6445,-2.6429,-2.6437,-2.6486,-2.6546,-2.6529,-2.6504,-2.6513,-2.6539,-2.6573,-2.6615,-2.6641,-2.6641,-2.6683,-2.6683,-2.6496,-2.6123,-2.5783,-2.5313,-2.4871,-2.4566,-2.4302,-2.4211,-2.4219,-2.3932,-2.3542,-2.3231,-2.2905,-2.2206,-2.1204,-2.02,-1.9445,-1.8802,-1.8499,-1.84,-1.8423,-1.8418,-1.8221,-1.7889,-1.7882,-1.7801,-1.7659,-1.7441,-1.6983,-1.6735,-1.6656,-1.6392,-1.6044,-1.5913,-1.5875,-1.5277,-1.4628,-1.4398,-1.4165,-1.3525,-1.3104,-1.3099,-1.0871,-1.1523,-1.2131,-1.2748,-1.3354,-1.4037,-1.4321,-1.4185,-1.4345,-1.4425,-1.4452,-1.4428,-1.4433,-1.4425,-1.4425,-1.4425,-1.4425,-1.4425,-1.5,-1.5712,-1.5882,-1.6454,-1.6934,-1.7205,-1.7205,-1.7205,-1.7205,-1.7205,-1.7205,-1.7205,-1.7231,-1.7264,-1.7251,-1.8033,-1.9621,-2.0189,-2.0581,-2.1995,-2.2639,-2.3064,-2.3415,-2.3503,-2.354,-2.3724,-2.3882,-2.3982,-2.4177,-2.4591,-2.4863,-2.5222,-2.5684,-2.6002,-2.6162,-2.625,-2.6329,-2.632,-2.6355,-2.6407,-2.6407,-2.632,-2.6277,-2.6312,-2.6268,-2.6145,-2.6173,-2.62,-2.6202,-2.6229,-2.6307,-2.6437,-2.6471,-2.6598,-2.6573,-2.6052,-2.5644,-2.5305,-2.4942,-2.4639,-2.4377,-2.4128,-2.3952,-2.3859,-2.3636,-2.3266,-2.2896,-2.2568,-2.2148,-2.1176,-2.0694,-1.9831,-1.8863,-1.8604,-1.8391,-1.8139,-1.8036,-1.8069,-1.7889,-1.7889,-1.7842,-1.7666,-1.731,-1.6746,-1.6497,-1.6429,-1.6225,-1.5875,-1.5836,-1.5875,-1.5271,-1.4669,-1.4444,-1.4124,-1.3435,-1.307,-1.306]},{"header":{"parameterUnit":"m.s-1","parameterCategory":1,"la1":31.0,"la2":29.5877,"lo1":-88.7671,"lo2":-86.6584,"dy":0.0162,"dx":0.0185,"nx":115,"ny":88,"refTime":"2023-06-09T12:00:00:Z","depth":0,"parameterNumber":3,"parameterNumberName":"V-component_of_WINDS"},"data":[0.0,0.0,0.0,0.0,0.0,0.0,0.0,0.0,0.0,0.0,0.0,0.0,0.0,0.0,0.0,0.0,0.0,0.0,0.0,0.0,0.0,0.0,0.0,0.0,0.0,0.0,0.0,0.0,0.0,0.0,0.0,0.0,0.0,0.0,0.0,0.0,0.0,0.0,0.0,0.0,0.0,0.0,0.0,0.0,0.0,0.0,0.0,0.0,0.0,0.0,0.0,0.0,0.0,0.0,0.0,0.0,0.0,0.0,0.0,0.0,0.0,0.0,0.0,0.0,0.0,0.0,0.0,0.0,0.0,0.0,0.0,0.0,0.0,0.0,0.0,0.0,0.0,0.0,0.0,0.0,0.0,0.0,0.0,0.0,0.0,0.0,0.0,0.0,0.0,0.0,0.0,0.0,0.0,0.0,0.0,0.0,0.0,0.0,0.0,0.0,0.0,0.0,0.0,0.0,0.0,0.0,0.0,0.0,0.0,0.0,0.0,0.0,0.0,0.0,0.0,0.0,0.0,0.0,0.0,0.0,0.0,0.0,0.0,0.0,0.0,0.0,0.0,0.0,0.0,0.0,0.0,0.0,0.0,0.0,0.0,0.0,0.0,0.0,0.0,0.0,0.0,0.0,0.0,0.0,0.0,0.0,0.0,0.0,0.0,0.0,0.0,0.0,0.0,0.0,0.0,0.0,0.0,0.0,0.0,0.0,0.0,0.0,0.0,0.0,0.0,0.0,0.0,0.0,0.0,0.0,0.0,0.0,0.0,0.0,0.0,0.0,0.0,0.0,0.0,0.0,0.0,0.0,0.0,0.0,0.0,0.0,0.0,0.0,0.0,0.0,0.0,0.0,0.0,0.0,0.0,0.0,0.0,0.0,0.0,0.0,0.0,0.0,0.0,0.0,0.0,0.0,0.0,0.0,0.0,0.0,0.0,0.0,0.0,0.0,0.0,0.0,0.0,0.0,0.0,0.0,0.0,0.0,0.0,0.0,0.0,0.0,0.0,0.0,0.0,0.0,0.0,0.0,0.0,0.0,0.0,0.0,0.0,0.0,0.0,0.0,0.0,0.0,0.0,0.0,0.0,0.0,0.0,0.0,0.0,0.0,0.0,0.0,0.0,0.0,0.0,0.0,0.0,0.0,0.0,0.0,0.0,0.0,0.0,0.0,0.0,0.0,0.0,0.0,0.0,0.0,0.0,0.0,0.0,0.0,0.0,0.0,0.0,0.0,0.0,0.0,0.0,0.0,0.0,0.0,0.0,0.0,0.0,0.0,0.0,0.0,0.0,0.0,0.0,0.0,0.0,0.0,0.0,0.0,0.0,0.0,0.0,0.0,0.0,0.0,0.0,0.0,0.0,0.0,0.0,0.0,0.0,0.0,0.0,0.0,0.0,0.0,0.0,0.0,0.0,0.0,0.0,0.0,0.0,0.0,0.0,0.0,0.0,0.0,0.0,0.0,0.0,0.0,0.0,0.0,0.0,0.0,0.0,0.0,0.0,0.0,0.0,0.0,0.0,0.0,0.0,0.0,0.0,0.0,0.0,0.0,0.0,0.0,0.0,0.0,0.0,0.0,0.0,0.0,0.0,0.0,0.0,0.0,0.0,0.0,0.0,0.0,0.0,0.0,0.0,0.0,0.0,0.0,0.0,0.0,0.0,0.0,0.0,0.0,0.0,0.0,0.0,0.0,0.0,0.0,0.0,0.0,0.0,0.0,0.0,0.0,0.0,0.0,0.0,0.0,0.0,0.0,0.0,0.0,0.0,0.0,0.0,0.0,0.0,0.0,0.0,0.0,0.0,0.0,0.0,0.0,0.0,0.0,0.0,0.0,0.0,0.0,0.0,0.0,0.0,0.0,0.0,0.0,0.0,0.0,0.0,0.0,0.0,0.0,0.0,0.0,0.0,0.0,0.0,0.0,0.0,0.0,0.0,0.0,0.0,0.0,0.0,0.0,0.0,0.0,0.0,0.0,0.0,0.0,0.0,0.0,0.0,0.0,0.0,0.0,0.0,0.0,0.0,0.0,0.0,0.0,0.0,0.0,0.0,0.0,0.0,0.0,0.0,0.0,0.0,0.0,0.0,0.0,0.0,0.0,0.0,0.0,0.0,0.0,0.0,0.0,0.0,0.0,0.0,0.0,0.0,0.0,0.0,0.0,0.0,0.0,0.0,0.0,0.0,0.0,0.0,0.0,0.0,0.0,0.0,0.0,0.0,0.0,0.0,0.0,0.0,0.0,0.0,0.0,0.0,0.0,0.0,0.0,0.0,0.0,0.0,0.0,0.0,0.0,0.0,0.0,0.0,0.0,0.0,0.0,0.0,0.0,0.0,0.0,0.0,0.0,0.0,0.0,0.0,0.0,0.0,0.0,0.0,0.0,0.0,0.0,0.0,0.0,0.0,0.0,0.0,0.0,0.0,0.0,0.0,0.0,0.0,0.0,0.0,0.0,0.0,0.0,0.0,0.0,0.0,0.0,0.0,0.0,0.0,0.0,0.0,0.0,0.0,0.0,0.0,0.0,0.0,0.0,0.0,0.0,0.0,0.0,0.0,0.0,0.0,0.0,0.0,0.0,0.0,0.0,0.0,0.0,0.0,0.0,0.0,0.0,0.0,0.0,0.0,0.0,0.0,0.0,0.0,0.0,0.0,0.0,0.0,0.0,0.0,0.0,0.0,0.0,0.0,0.0,0.0,0.0,0.0,0.0,0.0,0.0,0.0,0.0,0.0,0.0,0.0,0.0,0.0,0.0,0.0,0.0,0.0,0.0,0.0,0.0,0.0,0.0,0.0,0.0,0.0,0.0,0.0,0.0,0.0,0.0,0.0,0.0,0.0,0.0,0.0,0.0,0.0,0.0,0.0,0.0,0.0,0.0,0.0,0.0,0.0,0.0,0.0,0.0,0.0,0.0,0.0,0.0,0.0,0.0,0.0,0.0,0.0,0.0,0.0,0.0,0.0,0.0,0.0,0.0,0.0,0.0,0.0,0.0,0.0,0.0,0.0,0.0,0.0,0.0,0.0,0.0,0.0,0.0,0.0,0.0,0.0,0.0,0.0,0.0,0.0,0.0,0.0,0.0,0.0,0.0,0.0,0.0,0.0,0.0,0.0,0.0,0.0,0.0,0.0,0.0,0.0,0.0,0.0,0.0,0.0,0.0,0.0,0.0,0.0,0.0,0.0,0.0,0.0,0.0,0.0,0.0,0.0,0.0,0.0,0.0,0.0,0.0,0.0,0.0,0.0,0.0,0.0,0.0,0.0,0.0,0.0,0.0,0.0,0.0,0.0,0.0,0.0,0.0,0.0,0.0,0.0,0.0,0.0,0.0,0.0,0.0,0.0,0.0,0.0,0.0,0.0,0.0,0.0,0.0,0.0,0.0,0.0,0.0,0.0,0.0,0.0,0.0,0.0,0.0,0.0,0.0,0.0,0.0,0.0,0.0,0.0,0.0,0.0,0.0,0.0,0.0,0.0,0.0,0.0,0.0,0.0,0.0,0.0,0.0,0.0,0.0,0.0,0.0,0.0,0.0,0.0,0.0,0.0,0.0,0.0,0.0,0.0,0.0,0.0,0.0,0.0,0.0,0.0,0.0,0.0,0.0,0.0,0.0,0.0,0.0,0.0,0.0,0.0,0.0,0.0,0.0,0.0,0.0,0.0,0.0,0.0,0.0,0.0,0.0,0.0,0.0,0.0,0.0,0.0,0.0,0.0,0.0,0.0,0.0,0.0,0.0,0.0,0.0,0.0,0.0,0.0,0.0,0.0,0.0,0.0,0.0,0.0,0.0,0.0,0.0,0.0,0.0,0.0,0.0,0.0,0.0,0.0,0.0,0.0,0.0,0.0,0.0,0.0,0.0,0.0,0.0,0.0,0.0,0.0,0.0,0.0,0.0,0.0,0.0,0.0,0.0,0.0,0.0,0.0,0.0,0.0,0.0,0.0,0.0,0.0,0.0,0.0,0.0,0.0,0.0,0.0,0.0,0.0,0.0,0.0,0.0,0.0,0.0,0.0,0.0,0.0,0.0,0.0,0.0,0.0,0.0,0.0,0.0,0.0,0.0,0.0,0.0,0.0,0.0,0.0,0.0,0.0,0.0,0.0,0.0,0.0,0.0,0.0,0.0,0.0,0.0,0.0,0.0,0.0,0.0,0.0,0.0,0.0,0.0,0.0,0.0,0.0,0.0,0.0,0.0,0.0,0.0,0.0,0.0,0.0,0.0,0.0,0.0,0.0,0.0,0.0,0.0,0.0,0.0,0.0,0.0,0.0,0.0,1.4102,0.0,0.0,0.0,0.0,0.0,0.0,0.0,0.0,0.0,0.0,0.0,0.0,0.0,0.0,0.0,0.0,0.0,0.0,0.0,0.0,0.0,0.0,0.0,0.0,0.0,0.0,0.0,0.0,0.0,0.0,0.0,0.0,0.0,0.0,0.0,0.0,0.0,0.0,0.0,0.0,0.0,0.0,0.0,0.0,0.0,0.0,0.0,0.0,0.0,0.0,0.0,0.0,0.0,0.0,0.0,0.0,0.0,0.0,0.0,0.0,0.0,0.0,0.0,0.0,0.0,0.0,0.0,0.0,0.0,0.0,0.0,0.0,0.0,0.0,0.0,0.0,0.0,0.0,0.0,0.0,0.0,0.0,0.0,0.0,0.0,0.0,0.0,0.0,0.0,0.0,0.0,0.0,0.0,0.0,0.0,0.0,0.0,0.0,0.0,0.0,0.0,0.0,0.0,0.0,0.0,0.0,0.0,0.0,0.0,0.0,1.3956,1.3849,1.3395,1.3416,1.4033,0.0,0.0,0.0,0.0,0.0,0.0,0.0,0.0,0.0,0.0,0.0,0.0,0.0,0.0,0.0,0.0,0.0,0.0,0.0,0.0,0.0,0.0,0.0,0.0,0.0,0.0,0.0,0.0,0.0,0.0,0.0,0.0,0.0,0.0,0.0,0.0,0.0,0.0,0.0,0.0,0.0,0.0,0.0,0.0,0.0,0.0,0.0,0.0,0.0,0.0,0.0,0.0,0.0,0.0,0.0,0.0,0.0,0.0,0.0,0.0,0.0,0.0,0.0,0.0,0.0,0.0,0.0,0.0,0.0,0.0,0.0,0.0,0.0,0.0,0.0,0.0,0.0,0.0,0.0,0.0,0.0,0.0,0.0,0.0,0.0,0.0,0.0,0.0,0.0,0.0,0.0,0.0,0.0,0.0,0.0,0.0,0.0,0.0,0.0,0.0,0.0,0.0,0.0,0.0,0.0,0.0,0.0,0.0,0.0,0.0,0.0,0.0,1.3153,1.33,1.4707,0.0,0.0,0.0,0.0,0.0,0.0,0.0,0.0,0.0,0.0,0.0,0.0,0.0,0.0,0.0,0.0,0.0,0.0,0.0,0.0,0.0,0.0,0.0,0.0,0.0,0.0,0.0,0.0,0.0,0.0,0.0,0.0,0.0,0.0,0.0,0.0,0.0,0.0,0.0,0.0,0.0,0.0,0.0,0.0,0.0,0.0,0.0,0.0,0.0,0.0,0.0,0.0,0.0,0.0,0.0,0.0,0.0,0.0,0.0,0.0,0.0,0.0,0.0,0.0,0.0,0.0,0.0,0.0,0.0,0.0,0.0,0.0,0.0,0.0,0.0,0.0,0.0,0.0,0.0,0.0,0.0,0.0,0.0,0.0,0.0,0.0,0.0,0.0,0.0,0.0,0.0,0.0,0.0,0.0,0.0,0.0,0.0,0.0,0.0,0.0,0.0,0.0,0.0,0.0,0.0,0.0,0.0,0.0,0.0,0.0,1.415,1.4961,1.5582,0.0,1.7007,0.0,0.0,0.0,0.0,0.0,0.0,0.0,0.0,0.0,0.0,0.0,0.0,0.0,0.0,0.0,0.0,0.0,0.0,0.0,0.0,0.0,0.0,0.0,0.0,0.0,0.0,0.0,0.0,0.0,0.0,0.0,0.0,0.0,0.0,0.0,0.0,0.0,0.0,0.0,0.0,0.0,0.0,0.0,0.0,0.0,0.0,0.0,0.0,0.0,0.0,0.0,0.0,0.0,0.0,0.0,0.0,0.0,0.0,0.0,0.0,0.0,0.0,0.0,0.0,0.0,0.0,0.0,0.0,0.0,0.0,0.0,0.0,0.0,0.0,0.0,0.0,0.0,0.0,0.0,0.0,0.0,0.0,0.0,0.0,0.0,0.0,0.0,0.0,0.0,0.0,0.0,0.0,0.0,0.0,0.0,0.0,0.0,0.0,0.0,0.0,0.0,0.0,0.0,0.0,0.0,0.0,0.0,0.0,0.0,0.0,1.2942,1.4359,1.5195,1.5305,0.0,0.0,0.0,0.0,0.0,0.0,0.0,0.0,0.0,0.0,0.0,0.0,0.0,0.0,0.0,0.0,0.0,0.0,0.0,0.0,0.0,0.0,0.0,0.0,0.0,0.0,0.0,0.0,0.0,0.0,0.0,0.0,0.0,0.0,0.0,0.0,0.0,0.0,0.0,0.0,0.0,0.0,0.0,0.0,0.0,0.0,0.0,0.0,0.0,0.0,0.0,0.0,0.0,0.0,0.0,0.0,0.0,0.0,0.0,0.0,0.0,0.0,0.0,0.0,0.0,0.0,0.0,0.0,0.0,0.0,0.0,0.0,0.0,0.0,0.0,0.0,0.0,0.0,0.0,0.0,0.0,0.0,0.0,0.0,0.0,0.0,0.0,0.0,0.0,0.0,0.0,0.0,0.0,0.0,0.0,0.0,0.0,0.0,0.0,0.0,0.0,0.0,0.0,0.0,0.0,0.0,0.0,0.0,0.0,0.0,1.2393,1.2416,1.4094,1.3891,1.3679,1.3591,0.0,0.0,0.0,0.0,0.0,0.0,0.0,0.0,0.0,0.0,0.0,0.0,0.0,0.0,0.0,0.0,0.0,0.0,0.0,0.0,0.0,0.0,0.0,0.0,0.0,0.0,0.0,0.0,0.0,0.0,0.0,0.0,0.0,0.0,0.0,0.0,0.0,0.0,0.0,0.0,0.0,0.0,0.0,0.0,0.0,0.0,0.0,0.0,0.0,0.0,0.0,0.0,0.0,0.0,0.0,0.0,0.0,0.0,0.0,0.0,0.0,0.0,0.0,0.0,0.0,0.0,0.0,0.0,0.0,0.0,0.0,0.0,0.0,0.0,0.0,0.0,0.0,0.0,0.0,0.0,0.0,0.0,0.0,0.0,0.0,0.0,0.0,0.0,0.0,0.0,0.0,0.0,0.0,0.0,0.0,0.0,0.0,0.0,0.0,0.0,0.0,0.0,0.0,0.0,0.0,0.0,0.0,0.0,1.5484,1.3539,1.327,1.4853,1.1984,1.2133,0.0,0.0,0.0,0.0,0.0,0.0,0.0,0.0,0.0,0.0,0.0,0.0,0.0,0.0,0.0,0.0,0.0,0.0,0.0,0.0,0.0,0.0,0.0,0.0,0.0,0.0,0.0,0.0,0.0,0.0,0.0,0.0,0.0,0.0,0.0,0.0,0.0,0.0,0.0,0.0,0.0,0.0,0.0,0.0,0.0,0.0,0.0,0.0,0.0,0.0,0.0,0.0,0.0,0.0,0.0,0.0,0.0,0.0,0.0,0.0,0.0,0.0,0.0,0.0,0.0,0.0,0.0,0.0,0.0,0.0,0.0,0.0,0.0,0.0,0.0,0.0,0.0,0.0,0.0,0.0,0.0,0.0,0.0,0.0,0.0,0.0,0.0,0.0,0.0,0.0,0.0,0.0,0.0,0.0,0.0,0.0,0.0,0.0,0.0,0.0,0.0,0.0,0.0,0.0,0.0,0.0,0.0,0.0,0.0,1.2697,1.3182,1.3244,1.284,1.3676,1.4389,0.0,0.0,0.0,0.0,0.0,0.0,0.0,0.0,0.0,0.0,0.0,0.0,0.0,0.0,0.0,0.0,0.0,0.0,0.0,0.0,0.0,0.0,0.0,0.0,0.0,0.0,0.0,0.0,0.0,0.0,0.0,0.0,0.0,0.0,0.0,0.0,0.0,0.0,0.0,0.0,0.0,0.0,0.0,0.0,0.0,0.0,0.0,0.0,0.0,0.0,0.0,0.0,0.0,0.0,0.0,0.0,0.0,0.0,0.0,0.0,0.0,0.0,0.0,0.0,0.0,0.0,0.0,0.0,0.0,0.0,0.0,0.0,0.0,0.0,0.0,0.0,0.0,0.0,0.0,0.0,0.0,0.0,0.0,0.0,0.0,0.0,0.0,0.0,0.0,0.0,0.0,0.0,0.0,0.0,0.0,0.0,0.0,0.0,0.0,0.0,0.0,0.0,0.0,0.0,0.0,0.0,0.0,0.0,0.0,1.1509,0.0,1.3308,1.2049,1.3838,1.4477,0.0,0.0,0.0,0.0,0.0,0.0,0.0,0.0,0.0,0.0,0.0,0.0,0.0,0.0,0.0,0.0,0.0,0.0,0.0,0.0,0.0,0.0,0.0,0.0,0.0,0.0,0.0,0.0,0.0,0.0,0.0,0.0,0.0,0.0,0.0,0.0,0.0,0.0,0.0,0.0,0.0,0.0,0.0,0.0,0.0,0.0,0.0,0.0,0.0,0.0,0.0,0.0,0.0,0.0,0.0,0.0,0.0,0.0,0.0,0.0,0.0,0.0,0.0,0.0,0.0,0.0,0.0,0.0,0.0,0.0,0.0,0.0,0.0,0.0,0.0,0.0,0.0,0.0,0.0,0.0,0.0,0.0,0.0,0.0,0.0,0.0,0.0,0.0,0.0,0.0,0.0,0.0,0.0,0.0,0.0,0.0,0.0,0.0,0.0,0.0,0.0,0.0,0.0,0.0,0.0,0.0,0.0,0.0,1.121,1.2422,1.334,1.3462,1.2812,1.2099,1.2033,0.0,0.0,0.0,0.0,0.0,0.0,0.0,0.0,0.0,0.0,0.0,0.0,0.0,0.0,0.0,0.0,0.0,0.0,0.0,0.0,0.0,0.0,0.0,0.0,0.0,0.0,0.0,0.0,0.0,0.0,0.0,0.0,0.0,0.0,0.0,0.0,0.0,0.0,0.0,0.0,0.0,0.0,0.0,0.0,0.0,0.0,0.0,0.0,0.0,0.0,0.0,0.0,0.0,0.0,0.0,0.0,0.0,0.0,0.0,0.0,0.0,0.0,0.0,0.0,0.0,0.0,0.0,0.0,0.0,0.0,0.0,0.0,0.0,0.0,0.0,0.0,0.0,0.0,0.0,0.0,0.0,0.0,0.0,0.0,0.0,0.0,0.0,0.0,0.0,0.0,0.0,0.0,0.0,0.0,0.0,0.0,0.0,0.0,0.0,0.0,0.0,0.0,0.0,0.0,0.0,0.0,0.0,0.0,0.0,1.1525,1.1945,1.2662,1.3605,1.285,1.3069,0.0,0.0,0.0,0.0,0.0,0.0,0.0,0.0,0.0,0.0,0.0,0.0,0.0,0.0,0.0,0.0,0.0,0.0,0.0,0.0,0.0,0.0,0.0,0.0,0.0,0.0,0.0,0.0,0.0,0.0,0.0,0.0,0.0,0.0,0.0,0.0,0.0,0.0,0.0,0.0,0.0,0.0,0.0,0.0,0.0,0.0,0.0,0.0,0.0,0.0,0.0,0.0,0.0,0.0,0.0,0.0,0.0,0.0,0.0,0.0,0.0,0.0,0.0,0.0,0.0,0.0,0.0,0.0,0.0,0.0,0.0,0.0,0.0,0.0,0.0,0.0,0.0,0.0,0.0,0.0,0.0,0.0,0.0,0.0,0.0,0.0,0.0,0.0,0.0,0.0,0.0,0.0,0.0,0.0,0.0,0.0,0.0,0.0,0.0,0.0,0.0,0.0,0.0,0.0,0.0,0.0,0.0,0.0,0.0,1.2518,1.3019,1.3704,1.4535,1.4331,1.4234,1.4311,0.0,0.0,0.0,0.0,0.0,0.0,0.0,0.0,0.0,0.0,0.0,0.0,0.0,0.0,0.0,0.0,0.0,0.0,0.0,0.0,0.0,0.0,0.0,0.0,0.0,0.0,0.0,0.0,0.0,0.0,0.0,0.0,0.0,0.0,0.0,0.0,0.0,0.0,0.0,0.0,0.0,0.0,0.0,0.0,0.0,0.0,0.0,0.0,0.0,0.0,0.0,0.0,0.0,0.0,0.0,0.0,0.0,0.0,0.0,0.0,0.0,0.0,0.0,0.0,0.0,0.0,0.0,0.0,0.0,0.0,0.0,0.0,0.0,0.0,0.0,0.0,0.0,0.0,0.0,0.0,0.0,0.0,0.0,0.0,0.0,0.0,0.0,0.0,0.0,0.0,0.0,0.0,0.0,0.0,0.0,0.0,0.0,0.0,0.0,0.0,0.0,0.0,0.0,0.0,0.0,0.0,0.0,0.0,1.5021,1.6186,1.6396,1.5652,1.6183,1.5399,0.0,0.0,0.0,0.0,0.0,0.0,0.0,0.0,0.0,0.0,0.0,0.0,0.0,0.0,0.0,0.0,0.0,0.0,0.0,0.0,0.0,0.0,0.0,0.0,0.0,0.0,0.0,0.0,0.0,0.0,0.0,0.0,0.0,0.0,0.0,0.0,0.0,0.0,0.0,0.0,0.0,0.0,0.0,0.0,0.0,0.0,0.0,0.0,0.0,0.0,0.0,0.0,0.0,0.0,0.0,0.0,0.0,0.0,0.0,0.0,0.0,0.0,0.0,0.0,0.0,0.0,0.0,0.0,0.0,0.0,0.0,0.0,0.0,0.0,0.0,0.0,0.0,0.0,0.0,0.0,0.0,0.0,0.0,0.0,0.0,0.0,0.0,0.0,0.0,0.0,0.0,0.0,0.0,0.0,0.0,0.0,0.0,0.0,0.0,0.0,0.0,0.0,0.0,0.0,0.0,0.0,0.0,0.0,0.0,1.6781,1.897,1.9788,1.9039,1.6747,1.5801,0.0,0.0,0.0,0.0,0.0,0.0,0.0,0.0,0.0,0.0,0.0,0.0,0.0,0.0,0.0,0.0,0.0,0.0,0.0,0.0,0.0,0.0,0.0,0.0,0.0,0.0,0.0,0.0,0.0,0.0,0.0,0.0,0.0,0.0,0.0,0.0,0.0,0.0,0.0,0.0,0.0,0.0,0.0,0.0,0.0,0.0,0.0,0.0,0.0,0.0,0.0,0.0,0.0,0.0,0.0,0.0,0.0,0.0,0.0,0.0,0.0,0.0,0.0,0.0,0.0,0.0,0.0,0.0,0.0,0.0,0.0,0.0,0.0,0.0,0.0,0.0,0.0,0.0,0.0,0.0,0.0,0.0,0.0,0.0,0.0,0.0,0.0,0.0,0.0,0.0,0.0,0.0,0.0,0.0,0.0,0.0,0.0,0.0,0.0,0.0,0.0,0.0,0.0,0.0,0.0,0.0,0.0,0.0,1.5886,1.787,2.1108,2.2746,2.2584,1.9483,1.7575,0.0,0.0,0.0,0.0,0.0,0.0,0.0,0.0,0.0,0.0,0.0,0.0,0.0,0.0,0.0,0.0,0.0,0.0,0.0,0.0,0.0,0.0,0.0,0.0,0.0,0.0,0.0,0.0,0.0,0.0,0.0,0.0,0.0,0.0,0.0,0.0,0.0,0.0,0.0,0.0,0.0,0.0,0.0,0.0,0.0,0.0,0.0,0.0,0.0,0.0,0.0,0.0,0.0,0.0,0.0,0.0,0.0,0.0,0.0,0.0,0.0,0.0,0.0,0.0,0.0,0.0,0.0,0.0,0.0,0.0,0.0,0.0,0.0,0.0,0.0,0.0,0.0,0.0,0.0,0.0,0.0,0.0,0.0,0.0,0.0,0.0,0.0,0.0,0.0,0.0,0.0,0.0,0.0,0.0,0.0,0.0,0.0,0.0,0.0,0.0,0.0,0.0,0.0,0.0,0.0,0.0,0.0,0.0,1.7844,1.8611,2.2661,2.5037,2.5464,2.2781,1.9856,0.0,0.0,0.0,0.0,0.0,0.0,0.0,0.0,0.0,0.0,0.0,0.0,0.0,0.0,0.0,0.0,0.0,0.0,0.0,0.0,0.0,0.0,0.0,0.0,0.0,0.0,0.0,0.0,0.0,0.0,0.0,0.0,0.0,0.0,0.0,0.0,0.0,0.0,0.0,0.0,0.0,0.0,0.0,0.0,0.0,0.0,0.0,0.0,0.0,0.0,0.0,0.0,0.0,0.0,0.0,0.0,0.0,0.0,0.0,0.0,0.0,0.0,0.0,0.0,0.0,0.0,0.0,0.0,0.0,0.0,0.0,0.0,0.0,0.0,0.0,0.0,0.0,0.0,0.0,0.0,0.0,0.0,0.0,0.0,0.0,0.0,0.0,0.0,0.0,0.0,0.0,0.0,0.0,0.0,0.0,0.0,0.0,0.0,0.0,0.0,0.0,0.0,0.0,0.0,0.0,0.0,0.0,0.0,1.7712,1.9889,2.3098,2.5033,2.5481,2.1628,1.9497,0.0,0.0,0.0,0.0,0.0,0.0,0.0,0.0,0.0,0.0,0.0,0.0,0.0,0.0,0.0,0.0,0.0,0.0,0.0,0.0,0.0,0.0,0.0,0.0,0.0,0.0,0.0,0.0,0.0,0.0,0.0,0.0,0.0,0.0,0.0,0.0,0.0,0.0,0.0,0.0,0.0,0.0,0.0,0.0,0.0,0.0,0.0,0.0,1.6271,0.0,0.0,0.0,0.0,0.0,0.0,0.0,0.0,0.0,0.0,0.0,0.0,0.0,0.0,0.0,0.0,0.0,0.0,0.0,0.0,0.0,0.0,0.0,0.0,0.0,0.0,0.0,0.0,0.0,0.0,0.0,0.0,0.0,0.0,0.0,0.0,0.0,0.0,0.0,0.0,0.0,0.0,0.0,0.0,0.0,0.0,0.0,0.0,0.0,0.0,0.0,0.0,0.0,0.0,0.0,0.0,0.0,0.0,0.0,1.7406,2.0003,2.2932,2.4739,2.516,2.2011,2.0021,0.0,0.0,0.0,0.0,0.0,0.0,0.0,0.0,0.0,0.0,0.0,0.0,0.0,0.0,0.0,0.0,0.0,0.0,0.0,0.0,0.0,0.0,0.0,0.0,0.0,0.0,0.0,0.0,0.0,0.0,0.0,0.0,0.0,0.0,0.0,0.0,0.0,0.0,0.0,0.0,0.0,0.0,0.0,0.0,0.0,0.0,0.0,0.0,0.0,0.0,0.0,0.0,0.0,0.0,0.0,0.0,0.0,0.0,0.0,0.0,0.0,0.0,0.0,0.0,0.0,0.0,0.0,0.0,0.0,0.0,0.0,0.0,0.0,0.0,0.0,0.0,0.0,0.0,0.0,0.0,0.0,0.0,0.0,0.0,0.0,0.0,0.0,0.0,0.0,0.0,0.0,0.0,0.0,0.0,0.0,0.0,0.0,0.0,0.0,0.0,0.0,0.0,0.0,0.0,0.0,0.0,0.0,1.482,1.7345,2.0148,2.2793,2.4455,2.5028,2.2803,2.0784,1.91,0.0,0.0,0.0,0.0,0.0,0.0,0.0,0.0,0.0,0.0,0.0,0.0,0.0,0.0,0.0,0.0,0.0,0.0,0.0,0.0,0.0,0.0,0.0,0.0,0.0,0.0,0.0,0.0,0.0,0.0,0.0,0.0,0.0,0.0,0.0,0.0,0.0,0.0,1.5005,1.4991,0.0,0.0,0.0,0.0,0.0,0.0,0.0,0.0,1.441,0.0,0.0,0.0,0.0,0.0,0.0,0.0,0.0,0.0,0.0,0.0,0.0,0.0,0.0,0.0,0.0,0.0,0.0,0.0,0.0,0.0,0.0,0.0,0.0,0.0,0.0,0.0,0.0,0.0,0.0,0.0,0.0,0.0,0.0,0.0,0.0,0.0,0.0,0.0,0.0,0.0,0.0,0.0,0.0,0.0,0.0,0.0,0.0,0.0,0.0,0.0,0.0,0.0,0.0,0.0,0.0,1.5436,1.637,1.8594,2.2277,2.3675,2.4568,2.4935,2.2685,2.0682,1.9127,0.0,0.0,0.0,0.0,0.0,0.0,0.0,0.0,0.0,0.0,0.0,0.0,0.0,0.0,0.0,0.0,0.0,0.0,0.0,0.0,0.0,0.0,0.0,0.0,0.0,0.0,0.0,0.0,0.0,0.0,0.0,0.0,0.0,0.0,0.0,0.0,0.0,0.0,0.0,1.4219,1.3603,0.0,0.0,0.0,0.0,0.0,0.0,0.0,0.0,1.6739,0.0,0.0,0.0,0.0,0.0,0.0,0.0,0.0,0.0,0.0,0.0,0.0,0.0,0.0,0.0,0.0,0.0,0.0,0.0,0.0,0.0,0.0,0.0,0.0,0.0,0.0,0.0,0.0,0.0,0.0,0.0,0.0,0.0,0.0,0.0,0.0,0.0,0.0,0.0,0.0,0.0,0.0,0.0,0.0,0.0,0.0,0.0,0.0,0.0,0.0,0.0,0.0,0.0,0.0,0.0,1.5851,1.7012,1.9157,2.2366,2.3437,2.4164,2.4562,2.2179,2.0067,0.0,0.0,0.0,0.0,0.0,0.0,0.0,0.0,0.0,0.0,0.0,0.0,0.0,0.0,0.0,0.0,0.0,0.0,0.0,0.0,0.0,0.0,0.0,0.0,0.0,0.0,0.0,0.0,0.0,0.0,0.0,0.0,0.0,0.0,0.0,0.0,0.0,0.0,0.0,0.0,1.519,1.5196,1.6884,0.0,0.0,0.0,0.0,0.0,0.0,1.6485,1.6136,0.0,0.0,0.0,0.0,0.0,0.0,0.0,0.0,0.0,0.0,0.0,0.0,0.0,0.0,0.0,0.0,0.0,0.0,0.0,0.0,0.0,0.0,0.0,0.0,0.0,0.0,0.0,0.0,0.0,0.0,0.0,0.0,0.0,0.0,0.0,0.0,0.0,0.0,0.0,0.0,0.0,0.0,0.0,0.0,0.0,0.0,0.0,0.0,0.0,0.0,0.0,0.0,0.0,0.0,0.0,1.5886,1.7505,1.958,2.2156,2.3159,2.3869,2.4278,2.1711,1.9648,0.0,0.0,0.0,0.0,0.0,0.0,0.0,0.0,0.0,0.0,0.0,0.0,0.0,0.0,0.0,0.0,0.0,0.0,0.0,0.0,0.0,0.0,0.0,0.0,0.0,0.0,0.0,0.0,0.0,0.0,0.0,0.0,0.0,0.0,0.0,0.0,0.0,0.0,0.0,0.0,0.0,1.6892,1.8072,1.7144,0.0,0.0,0.0,0.0,1.6535,1.6199,0.0,0.0,0.0,0.0,0.0,0.0,0.0,0.0,0.0,0.0,0.0,0.0,0.0,0.0,0.0,0.0,0.0,0.0,0.0,0.0,0.0,0.0,0.0,0.0,0.0,0.0,0.0,0.0,0.0,0.0,0.0,0.0,0.0,0.0,0.0,0.0,0.0,0.0,0.0,0.0,0.0,0.0,0.0,0.0,0.0,0.0,0.0,0.0,0.0,0.0,0.0,0.0,0.0,0.0,0.0,0.0,1.6287,1.8151,2.0272,2.2633,2.3637,2.4248,2.452,2.1738,2.0182,0.0,0.0,0.0,0.0,0.0,0.0,0.0,0.0,0.0,0.0,0.0,0.0,0.0,0.0,0.0,0.0,0.0,0.0,0.0,0.0,0.0,0.0,0.0,0.0,0.0,0.0,0.0,0.0,0.0,0.0,0.0,0.0,0.0,0.0,0.0,0.0,0.0,0.0,0.0,0.0,0.0,1.6555,1.9054,1.7274,1.5551,0.0,0.0,1.863,1.7178,1.88,0.0,0.0,0.0,0.0,0.0,0.0,0.0,0.0,0.0,0.0,0.0,0.0,0.0,0.0,0.0,0.0,0.0,0.0,0.0,0.0,0.0,0.0,0.0,0.0,0.0,0.0,0.0,0.0,0.0,0.0,0.0,0.0,0.0,0.0,0.0,0.0,0.0,0.0,0.0,0.0,0.0,0.0,0.0,0.0,0.0,0.0,0.0,0.0,0.0,0.0,0.0,0.0,0.0,0.0,0.0,1.5558,1.6628,1.9017,2.1002,2.2479,2.3397,2.4034,2.4413,1.9853,1.7891,0.0,0.0,0.0,0.0,0.0,0.0,0.0,0.0,0.0,0.0,0.0,0.0,0.0,0.0,0.0,0.0,0.0,0.0,0.0,0.0,0.0,0.0,0.0,0.0,0.0,0.0,0.0,0.0,0.0,0.0,0.0,0.0,0.0,0.0,0.0,0.0,0.0,0.0,0.0,0.0,0.0,0.0,1.9684,1.8856,0.0,0.0,0.0,1.8676,1.6483,0.0,0.0,0.0,0.0,0.0,0.0,0.0,0.0,0.0,0.0,0.0,0.0,0.0,0.0,0.0,0.0,0.0,0.0,0.0,0.0,0.0,0.0,0.0,0.0,0.0,0.0,0.0,0.0,0.0,0.0,0.0,0.0,0.0,0.0,0.0,0.0,0.0,0.0,0.0,0.0,0.0,0.0,0.0,0.0,0.0,0.0,0.0,0.0,0.0,0.0,0.0,0.0,0.0,0.0,0.0,0.0,0.0,1.6399,1.9014,2.0799,2.1648,2.2494,2.2393,2.1245,1.6686,0.0,0.0,0.0,0.0,0.0,0.0,0.0,0.0,0.0,0.0,0.0,0.0,0.0,0.0,0.0,0.0,0.0,0.0,0.0,0.0,0.0,0.0,0.0,0.0,0.0,0.0,0.0,1.368,0.0,0.0,0.0,0.0,0.0,0.0,0.0,0.0,0.0,0.0,0.0,0.0,0.0,0.0,2.0083,1.9961,2.003,2.0057,0.0,0.0,1.8716,1.6939,1.8832,1.9044,0.0,0.0,0.0,0.0,0.0,0.0,0.0,0.0,0.0,0.0,0.0,0.0,0.0,0.0,0.0,0.0,0.0,0.0,0.0,0.0,0.0,0.0,0.0,0.0,0.0,0.0,0.0,0.0,0.0,0.0,0.0,0.0,0.0,0.0,0.0,0.0,0.0,0.0,0.0,0.0,0.0,0.0,0.0,0.0,0.0,0.0,0.0,0.0,0.0,0.0,0.0,0.0,0.0,0.0,0.0,1.5453,1.7352,1.8745,1.9906,2.0649,1.8454,1.3305,1.2094,1.1109,0.0,0.0,0.0,0.0,0.0,0.0,0.0,0.0,0.0,0.0,0.0,0.0,0.0,0.0,0.0,0.0,0.0,0.0,0.0,0.0,0.0,0.0,0.0,0.0,0.0,0.0,0.0,0.0,0.0,0.0,0.0,0.0,0.0,0.0,0.0,0.0,0.0,0.0,0.0,0.0,0.0,1.9677,1.9787,1.9916,2.0192,0.0,0.0,1.9551,1.9746,2.1491,2.1683,1.8265,0.0,0.0,0.0,0.0,0.0,0.0,0.0,0.0,0.0,0.0,0.0,0.0,0.0,0.0,0.0,0.0,0.0,0.0,0.0,0.0,0.0,0.0,0.0,0.0,0.0,0.0,0.0,0.0,0.0,0.0,0.0,0.0,0.0,0.0,0.0,0.0,0.0,0.0,0.0,0.0,0.0,0.0,0.0,0.0,0.0,0.0,0.0,0.0,0.0,0.0,0.0,0.0,0.0,0.9426,0.9617,0.8655,0.8291,0.8644,1.0644,1.0529,0.7984,0.6004,0.5984,0.0,0.0,0.0,0.0,0.0,0.0,0.0,0.0,0.0,0.0,0.0,0.0,0.0,0.0,0.0,0.0,0.0,0.0,0.0,0.0,0.0,0.0,0.0,0.0,0.0,0.0,0.0,0.0,1.6898,1.7321,1.6997,0.0,0.0,0.0,0.0,0.0,0.0,0.0,0.0,0.0,0.0,1.9639,2.1058,2.1457,0.0,0.0,2.1373,2.0755,1.9813,2.0682,2.0105,1.6263,1.6398,0.0,0.0,0.0,0.0,0.0,0.0,0.0,0.0,0.0,0.0,0.0,0.0,0.0,0.0,0.0,0.0,0.0,0.0,0.0,0.0,0.0,0.0,0.0,0.0,0.0,0.0,0.0,0.0,0.0,0.0,0.0,0.0,0.0,0.0,0.0,0.0,0.0,0.0,0.0,0.0,0.0,0.0,0.0,0.0,0.0,0.0,0.0,0.0,0.0,0.0,0.0,0.0,0.5657,0.5601,0.2636,0.1027,0.0927,0.3122,0.3216,0.1056,-0.0756,-0.0372,0.0,0.0,0.0,0.0,0.0,0.0,0.0,0.0,0.0,0.0,0.0,0.0,0.0,0.0,0.0,0.0,0.0,0.0,0.0,0.0,0.0,0.0,0.0,0.0,0.0,0.0,0.0,0.0,1.7776,1.7888,1.7173,0.0,0.0,0.0,0.0,0.0,0.0,0.0,0.0,0.0,0.0,1.9648,2.0928,2.151,2.1757,2.1545,2.1005,2.0285,1.9396,1.9611,1.8887,1.6028,0.0,0.0,0.0,0.0,0.0,0.0,0.0,0.0,0.0,0.0,0.0,0.0,0.0,0.0,0.0,0.0,0.0,0.0,0.0,0.0,0.0,0.0,0.0,0.0,0.0,0.0,0.0,0.0,0.0,0.0,-0.4123,0.0,0.0,0.0,0.0,0.0,0.0,0.0,0.0,0.0,0.0,0.0,0.0,0.0,0.0,0.0,0.0,0.0,0.0,0.0,0.0,0.0,0.0,0.4868,0.4374,0.0647,-0.0967,-0.0918,-0.0224,-0.2735,-0.8144,-0.8135,-0.81,-0.8408,0.0,0.0,0.0,0.0,0.0,0.0,0.0,0.0,0.0,0.0,0.0,0.0,0.0,0.0,0.0,0.0,0.0,0.0,0.0,0.0,0.0,0.0,0.0,0.0,0.0,0.0,1.505,1.6565,1.756,0.0,0.0,0.0,0.0,0.0,0.0,0.0,0.0,0.0,0.0,1.5002,1.9681,1.8875,1.9482,2.0047,1.9876,1.8398,1.7657,1.8771,1.8807,1.8762,0.0,0.0,0.0,0.0,0.0,0.0,0.0,0.0,0.0,0.0,0.0,0.0,0.0,0.0,0.0,0.0,0.0,0.0,0.0,0.0,0.0,0.0,0.0,0.0,0.0,0.0,0.0,-1.0814,-0.9954,0.0,0.0,0.0,0.0,0.0,0.0,0.0,0.0,0.0,0.0,0.0,-1.5042,-1.3704,0.0,0.0,0.0,0.0,0.0,0.0,0.0,0.0,0.0,0.0,0.0,0.0,-0.5169,-0.5292,-0.9628,-1.2167,-1.2524,-1.0493,-1.0599,-1.3104,-1.3067,-1.3272,-1.3749,0.0,0.0,0.0,0.0,0.0,0.0,0.0,0.0,0.0,0.0,0.0,0.0,0.0,0.0,0.0,0.0,0.0,0.0,0.0,0.0,0.0,0.0,0.0,0.0,0.0,1.7,0.0,0.0,0.0,0.0,0.0,0.0,0.0,0.0,0.0,0.0,0.0,1.1354,0.9011,1.2258,1.5866,1.861,1.9221,1.9792,0.0,0.0,0.0,0.0,0.0,0.0,0.0,0.0,0.0,0.0,0.0,0.0,0.0,0.0,2.0021,1.8611,1.8809,1.8887,1.7838,0.0,0.0,0.0,0.0,0.0,0.0,0.0,0.0,0.0,0.0,0.0,0.0,0.0,0.0,-1.4644,0.0,-1.1424,0.0,0.0,0.0,0.0,0.0,0.0,0.0,0.0,-1.5497,-1.7071,-1.7804,-1.6624,-1.6224,0.0,-1.641,-1.423,0.0,0.0,0.0,0.0,0.0,0.0,0.0,0.0,-0.987,-0.985,-1.472,-1.7605,-1.8011,-1.6145,-1.5369,-1.5948,-1.6068,-1.6316,-1.6701,-1.2531,-1.1087,0.0,0.0,0.0,0.0,0.0,0.0,0.0,0.0,0.0,0.0,0.0,0.0,0.0,0.0,0.0,0.0,0.0,0.0,0.0,0.0,0.0,0.0,0.0,1.7225,0.0,0.0,0.0,0.0,0.0,0.0,0.0,0.0,0.0,0.5424,0.8336,1.0094,0.8726,1.182,1.5151,1.7595,0.0,0.0,0.0,0.0,0.0,0.0,0.0,1.687,1.6439,1.6817,1.7572,1.8766,2.0371,2.1618,2.194,0.0,0.0,2.0473,2.0602,2.0633,1.9414,1.7532,1.422,0.8255,0.0387,-0.6817,0.0,0.0,0.0,0.0,0.0,0.0,0.0,0.0,-2.0934,-2.0434,0.0,-1.9194,0.0,0.0,0.0,0.0,0.0,-1.7875,0.0,0.0,-1.9661,-1.9721,-1.6833,-1.755,-1.7722,-1.7224,-1.6375,-1.5966,-1.5985,-1.6959,0.0,0.0,0.0,0.0,0.0,0.0,-0.9185,-0.9599,-1.4389,-1.6996,-1.7199,-1.7041,-1.6951,-1.7005,-1.7174,-1.7358,-1.7537,-1.7648,-1.8169,-1.885,-1.2559,0.0,0.0,0.0,0.0,0.0,0.0,0.0,0.0,0.0,0.0,0.0,0.0,0.0,0.0,0.0,0.0,0.0,0.0,0.0,0.0,1.6478,0.0,0.0,0.0,0.0,0.0,0.0,0.0,0.0,0.0,0.0,0.4803,0.7342,0.8792,0.7525,0.0,0.0,0.0,0.0,1.8148,1.5133,1.4709,1.4859,1.4966,1.6273,1.7837,1.9395,0.0,0.0,2.224,2.2347,2.2277,2.1678,2.2989,2.3914,2.3447,2.2198,2.1149,2.0625,1.5464,1.0316,0.848,-0.063,-0.9673,-2.1512,0.0,0.0,0.0,0.0,-1.92,-1.9389,-1.939,-1.995,-2.0153,-2.0073,-1.9929,0.0,0.0,0.0,0.0,0.0,0.0,-1.8709,-1.8294,-1.8517,-1.8568,-1.8483,-1.8252,-1.8222,-1.8316,-1.807,-1.8207,-1.8694,-1.899,-1.7239,-1.359,0.0,0.0,0.0,0.0,-1.3728,-1.445,-1.611,-1.7012,-1.7047,-1.6808,-1.6808,-1.7137,-1.7252,-1.7646,-1.8399,-1.9236,-1.9533,-1.9264,-1.758,0.0,0.0,0.0,0.0,0.0,0.0,0.0,0.0,0.0,0.0,0.0,0.0,0.0,0.0,0.0,0.0,0.0,0.0,0.0,0.7909,0.9404,1.0162,0.0,0.0,0.0,0.0,0.0,0.0,0.0,0.0,0.0,0.5732,0.7562,0.7764,0.0,0.0,1.1172,1.2791,1.5043,1.671,1.7178,1.7526,0.0,1.9666,1.9428,1.92,1.9697,2.1247,2.2447,2.2511,2.3686,2.4602,2.4404,2.4837,2.5014,2.4397,2.4115,2.3494,2.2283,2.0214,1.6448,1.0015,0.1941,-0.5586,-2.3076,-2.116,-2.0519,-2.0096,-1.9882,-2.0264,-2.0441,-2.0465,-2.0985,-2.1244,-2.1343,-2.1088,-2.1063,-2.1197,-2.0795,0.0,0.0,0.0,-1.9264,-1.9636,-1.8824,-1.8573,-1.879,-1.8562,-1.8391,-1.8298,-1.8401,-1.8776,-1.9317,-1.8859,-1.7797,-1.6144,0.0,0.0,-1.5243,-1.5437,-1.5797,-1.6338,-1.6618,-1.6795,-1.6795,-1.6595,-1.6644,-1.6899,-1.7166,-1.7686,-1.8461,-1.9296,-1.9895,-2.0133,-1.9674,-1.7117,0.0,0.0,0.0,0.0,0.0,0.0,0.0,0.0,0.0,0.0,0.0,1.3101,0.6534,0.0,0.0,0.0,-0.1777,0.1122,0.5183,0.6291,0.0,0.0,0.0,0.0,0.0,0.0,0.0,0.2584,0.1957,0.2293,0.473,0.6091,0.6609,0.6134,0.8527,1.0975,1.2759,0.0,1.7471,1.8099,1.869,1.9512,2.0852,2.0952,2.102,2.1665,2.2733,2.3549,2.3637,2.4742,2.5566,2.5609,2.5654,2.5504,2.4909,2.4975,2.467,2.3262,2.2412,1.9882,1.4232,0.5413,-0.3084,-2.3765,-2.3659,-2.2167,-2.1432,-2.1265,-2.1101,-2.1831,-2.3126,-2.3256,-2.3265,-2.3122,-2.2647,-2.2291,-2.1993,-2.0209,0.0,-2.1115,-1.9642,-1.9484,-2.0361,-2.0045,-1.9288,-1.8231,-1.8633,-1.8447,-1.7625,-1.7901,-1.8219,-1.8559,-1.7541,-1.7141,-1.7397,-1.7838,-1.7319,-1.5958,-1.596,-1.6051,-1.6095,-1.6263,-1.6398,-1.6515,-1.6528,-1.6515,-1.6558,-1.6944,-1.7422,-1.8061,-1.8369,-1.9417,-2.1055,-1.9744,-1.8724,-1.8131,0.0,0.0,0.0,0.0,0.0,0.0,0.0,0.0,0.0,0.0,0.0,0.0,0.0,0.0,0.0,-0.0248,0.0,0.4854,0.4652,0.0,0.0,0.0,-0.103,-0.0706,-0.3093,-0.3175,0.0775,0.0,0.0,0.2607,0.3617,0.5476,0.9315,1.2262,1.4119,1.4315,1.7322,1.9379,1.8271,1.8923,1.9656,2.0545,2.1664,2.2977,2.4165,2.4929,2.4998,2.5015,2.5333,2.558,2.5609,2.5644,2.5538,2.5129,2.5043,2.4683,2.3397,2.2229,2.1056,1.9132,0.8135,-0.1938,-2.3468,-2.3508,-2.2944,-2.2797,-2.295,-2.3002,-2.3106,-2.3247,-2.3383,-2.349,-2.3553,-2.3417,-2.3231,-2.2946,-2.2187,-2.1832,-2.1742,-2.0768,-2.039,-2.0402,-1.9573,-1.9058,-1.8853,-1.8659,-1.8627,-1.8707,-1.8471,-1.8555,-1.8765,-1.8124,-1.7388,-1.6635,-1.6627,-1.634,-1.5683,-1.5457,-1.554,-1.5944,-1.5884,-1.6101,-1.6509,-1.6528,-1.6674,-1.707,-1.6188,-1.6634,-1.85,-1.7356,-1.7873,-2.044,-1.9983,-1.6425,-0.9411,-0.9635,0.0,0.0,0.0,0.0,0.0,0.0,0.0,0.0,0.0,0.1628,-0.2167,0.0,-0.4145,0.0,-1.146,-1.0758,-0.722,-0.7256,0.0,0.0,-0.5892,-0.5942,-0.8001,-0.6237,-0.3864,-0.1332,-0.0268,0.0863,0.2481,0.3259,0.4749,0.7694,0.9218,1.0698,1.2568,1.5866,1.8455,1.9291,2.117,2.291,2.3324,2.3917,2.4355,2.4648,2.491,2.5086,2.509,2.5369,2.5606,2.5605,2.5602,2.5389,2.4839,2.4839,2.4439,2.3197,2.2315,2.1513,2.0216,0.8916,-0.1054,-2.308,-2.3138,-2.2985,-2.2826,-2.2679,-2.3211,-2.3339,-2.3217,-2.3184,-2.3188,-2.3265,-2.3265,-2.3185,-2.3007,-2.26,-2.2177,-2.1698,-2.0927,-2.0473,-2.022,-1.9479,-1.9049,-1.8822,-1.8599,-1.8402,-1.8147,-1.7953,-1.7992,-1.8245,-1.7968,-1.7593,-1.716,-1.7122,-1.6617,-1.5646,-1.491,-1.4721,-1.5028,-1.5254,-1.5759,-1.6539,-1.6522,-1.6355,-1.596,-1.5181,-1.5171,-1.62,-1.4577,-1.4181,-1.5306,-1.4589,-1.0767,-0.3672,-0.7727,-0.5634,0.0,0.0,0.0,0.0,0.0,0.0,0.0,0.0,0.0,0.0,0.0,-0.6989,-1.2881,-1.4891,-1.5032,-1.3056,-1.2356,-1.2066,-1.2169,-1.0439,-0.9638,-1.0542,-0.7374,-0.4447,-0.2573,-0.0612,0.1057,0.2268,0.2893,0.4133,0.6569,0.7944,0.9796,1.2964,1.6019,1.8529,2.0311,2.227,2.3848,2.4591,2.4716,2.4775,2.479,2.4958,2.512,2.5187,2.5408,2.5602,2.5608,2.56,2.542,2.4895,2.461,2.4085,2.2782,2.1681,1.9751,1.6192,0.6662,-0.1924,-2.2634,-2.2669,-2.2642,-2.2263,-2.1788,-2.2648,-2.2889,-2.2781,-2.2721,-2.2703,-2.2703,-2.266,-2.2634,-2.2607,-2.2172,-2.1736,-2.1295,-2.0585,-2.0139,-1.9955,-1.9516,-1.9056,-1.8539,-1.8514,-1.8042,-1.7192,-1.7115,-1.7247,-1.7509,-1.7468,-1.7572,-1.7857,-1.7803,-1.6943,-1.5372,-1.4253,-1.3834,-1.4072,-1.4711,-1.5497,-1.6484,-1.63,-1.5577,-1.4336,-1.4045,-1.3782,-1.3392,-1.1859,-1.0693,-1.0038,-0.8672,-0.5656,-0.1023,-0.6325,-0.6187,0.0,-0.4353,0.0,0.0,0.0,0.0,0.0,0.0,0.0,0.0,-0.7794,-0.7484,-1.4091,-1.4217,-1.4314,-1.5277,-1.3877,-1.3535,-1.4908,-1.3517,-1.1768,-1.0004,-0.7137,-0.4597,-0.2927,-0.0947,0.0785,0.1898,0.251,0.3609,0.5677,0.7342,0.9703,1.3517,1.6269,1.8683,2.1019,2.2408,2.361,2.4439,2.4639,2.4687,2.4851,2.5031,2.5165,2.5286,2.5464,2.558,2.5595,2.5545,2.5367,2.5,2.4436,2.3593,2.2219,2.0937,1.7877,1.1305,0.3669,-0.4187,-2.2375,-2.2526,-2.2347,-2.2298,-2.2321,-2.2351,-2.185,-2.1088,-2.2219,-2.2703,-2.266,-2.2411,-2.2311,-2.2256,-2.1579,-2.1228,-2.1047,-2.0254,-1.9859,-1.9795,-1.9191,-1.8884,-1.8824,-1.8616,-1.8422,-1.8187,-1.7841,-1.7666,-1.7754,-1.7317,-1.6688,-1.5916,-1.5543,-1.474,-1.3559,0.0,0.0,0.0,-1.5471,-1.5621,-1.5413,-1.4898,-1.4432,-1.4048,-1.3398,0.0,-1.4911,-1.3482,-1.3213,-1.4351,-1.3631,0.0,0.0,0.0,0.0,0.0,0.0,0.0,0.0,0.0,0.0,0.0,-1.2862,-1.1391,-1.3384,-1.0532,-1.0171,-1.3951,-1.3808,-1.4191,-1.6059,-1.5926,-1.5489,-1.4985,-1.2564,-1.0059,-0.7864,-0.5315,-0.2984,-0.1116,-0.0504,0.0168,0.1286,0.1957,0.2951,0.4692,0.6313,0.8365,1.1071,1.4549,1.747,1.947,2.1776,2.3569,2.4414,2.4617,2.4708,2.4795,2.5039,2.5265,2.5369,2.5447,2.5541,2.5573,2.5331,2.5004,2.4648,2.4056,2.3208,2.1927,2.0638,1.7712,1.0394,0.2845,-0.4408,-2.2056,0.0,-2.2056,-2.1883,0.0,-2.1773,-2.1097,-2.0069,-2.1583,-2.2262,-2.2217,-2.1895,-2.1748,-2.1702,-2.0857,-2.0495,-2.0548,-1.9802,-1.9544,-1.9682,-1.9369,-1.9004,-1.8679,-1.8539,-1.824,-1.7754,-1.7605,-1.7468,-1.7393,-1.7205,-1.6816,-1.6257,-1.5883,-1.5324,-1.4604,-1.4219,-1.4271,-1.4695,-1.5084,-1.5467,-1.5783,-1.5619,-1.5105,-1.4234,-1.3782,0.0,0.0,0.0,0.0,0.0,0.0,0.0,0.0,-0.7594,0.0,-0.4744,-0.8738,-1.2562,-1.5288,-1.5515,-1.6637,-1.9204,-1.7204,-1.5139,-1.3582,-1.3168,-1.3679,-1.519,-1.5074,-1.5404,-1.6654,-1.6182,-1.5221,-1.3971,-1.1704,-0.9249,-0.6831,-0.4948,-0.3278,-0.1787,-0.1008,-0.028,0.0559,0.1396,0.2395,0.377,0.5181,0.6924,0.9286,1.2631,1.5925,1.8899,2.1356,2.3128,2.3794,2.4247,2.456,2.4738,2.4972,2.5187,2.5453,2.5404,2.5349,2.5364,2.5088,2.4695,2.4307,2.3744,2.2832,2.099,1.7631,1.236,0.5121,0.0139,-0.5736,-2.1716,-2.1639,-2.1639,-2.1315,-2.0842,-2.1157,-2.0689,-1.9752,0.0,0.0,0.0,-2.1371,-2.1206,-2.115,-2.025,-1.9949,-2.0047,-1.9432,-1.9286,-1.9582,-1.9494,-1.9169,-1.857,-1.8422,-1.7948,-1.7157,-1.7199,-1.7164,-1.7044,-1.7073,-1.7115,-1.7067,-1.6716,-1.6343,-1.6013,-1.5691,-1.5132,-1.4405,-1.4629,-1.5247,-1.6176,-1.6355,-1.568,-1.4163,-1.4248,-1.402,-1.3437,-1.2189,-1.1108,-1.0326,-0.8847,-0.6614,-0.3768,-0.9339,-1.2268,-1.1455,-1.7559,-2.1461,-2.1541,-2.1556,-2.1327,-2.0671,-1.884,-1.646,-1.3502,-1.5178,-1.63,-1.6151,-1.625,-1.646,-1.6661,-1.554,-1.4209,-1.278,-1.0839,-0.8694,-0.6558,-0.5156,-0.3949,-0.2955,-0.1901,-0.1008,-0.0391,0.0613,0.1671,0.2781,0.4091,0.5712,0.8016,1.1354,1.5026,1.8426,2.0552,2.2056,2.2985,2.3617,2.4155,2.4655,2.4869,2.5081,2.5362,2.5331,2.5187,2.52,2.4836,2.4345,2.384,2.3227,2.2281,2.0512,1.5393,0.837,0.0175,-0.2495,-0.7102,-2.1418,-2.095,-2.095,-2.0926,-2.0879,-2.0951,-2.0887,-2.0734,-2.0413,-2.0503,-2.095,-2.0934,-2.0942,-2.0844,-2.0309,-2.0085,-2.0065,-1.9564,-1.9398,-1.9413,-1.9147,-1.8938,-1.8824,-1.818,-1.7834,-1.7673,-1.7352,-1.7199,-1.7157,-1.6899,-1.6759,-1.6667,-1.6107,-1.5585,-1.5289,-1.5193,-1.5084,-1.4973,-1.5072,-1.5134,-1.5103,-1.4631,-1.4018,-1.329,-1.3972,-1.4407,-1.464,-1.4582,-1.4688,-1.4927,-1.4544,-1.4354,-1.4658,-1.6286,-1.7621,-1.8078,-2.0001,-2.1125,-2.1022,-2.0839,-2.0104,-1.8562,-1.7044,-1.5813,-1.4938,-1.5481,-1.5552,-1.476,-1.5406,-1.5552,-1.4795,-1.4111,-1.3285,-1.2113,-0.998,-0.8146,-0.727,-0.5597,-0.4231,-0.3561,-0.2899,-0.2179,-0.1509,-0.0503,0.0502,0.139,0.3154,0.5114,0.7433,1.1261,1.4783,1.736,1.8932,2.0415,2.1907,2.3061,2.3626,2.429,2.4746,2.5032,2.5189,2.5156,2.5059,2.5087,2.4558,2.3851,2.2941,2.2365,2.1354,1.9646,1.7079,1.1669,0.0,-0.3297,-0.8187,-2.1088,-2.086,-2.0852,-2.0901,-2.095,-2.0795,-2.0671,-2.0491,-2.0192,-2.0355,-2.0836,-2.0704,-2.0571,-2.0405,-1.9684,-1.9564,-1.9846,-1.9288,-1.9218,-1.9537,-1.942,-1.9088,-1.8679,-1.8344,-1.7908,-1.7468,-1.7288,-1.7205,-1.7205,-1.7137,-1.7018,-1.6772,-1.612,-1.5635,-1.5334,-1.5255,-1.53,-1.5474,-1.5647,-1.57,-1.5622,-1.5685,-1.5577,-1.5177,-1.5789,-1.6304,-1.6631,-1.6957,-1.7448,-1.8113,-1.7661,-1.7693,-1.8257,-1.8346,-1.8555,-1.9045,-1.9453,-1.9688,-1.9723,-1.957,-1.8917,-1.7524,-1.7044,-1.6188,-1.4886,-1.4897,-1.4806,-1.4346,-1.472,-1.4658,-1.394,-1.3163,-1.2283,-1.1282,-0.9459,-0.8069,-0.7162,-0.5871,-0.473,-0.4119,-0.3346,-0.2681,-0.246,-0.1397,-0.0447,0.0334,0.2492,0.4689,0.5995,0.8539,1.1405,1.3965,1.6182,1.8173,1.9988,2.1383,2.2509,2.3617,2.4273,2.4753,2.5026,2.5036,2.4695,2.4242,2.3767,2.3021,2.1987,2.1466,2.0639,1.8958,1.2122,0.5165,-0.1173,-0.7986,-1.6239,-2.0947,-2.0866,-2.0701,-2.0767,-2.096,-2.066,-2.0539,-2.0564,-2.028,-2.0454,-2.0834,-2.0472,-2.0204,-2.0016,-1.926,-1.9203,-1.957,-1.9159,-1.9196,-1.9652,-1.9697,-1.9303,-1.8662,-1.8546,-1.8108,-1.7399,-1.7275,-1.7234,-1.7199,-1.7269,-1.7067,-1.6607,-1.6126,-1.5768,-1.5519,-1.5351,-1.5441,-1.5697,-1.5943,-1.6043,-1.6069,-1.6648,-1.6908,-1.6852,-1.7269,-1.7707,-1.8001,-1.8376,-1.8884,-1.9545,-1.91,-1.8903,-1.9073,-1.8645,-1.8377,-1.8451,-1.8454,-1.8423,-1.8461,-1.8355,-1.7908,-1.7025,-1.7012,-1.6367,-1.4909,-1.4427,-1.416,-1.4025,-1.4206,-1.4055,-1.322,-1.2444,-1.1444,-1.0422,-0.8957,-0.7711,-0.6848,-0.5821,-0.506,-0.4622,-0.3792,-0.3183,-0.3125,-0.2289,-0.1061,0.0279,0.233,0.4048,0.4716,0.5889,0.7712,0.9856,1.2847,1.5724,1.7602,1.9249,2.0776,2.2297,2.3317,2.3908,2.4378,2.4526,2.4524,2.3912,2.3262,2.2521,2.1433,2.0758,1.9259,1.6355,0.8892,0.0849,-0.4581,-1.4101,-2.2629,-2.1257,-2.0662,-2.0119,-2.026,-2.0948,-2.0554,-2.097,-2.1832,-2.0816,-2.0581,-2.0967,-2.0205,-1.9833,-1.9747,-1.9636,-1.9615,-1.969,-1.963,-1.9622,-1.9682,-1.9697,-1.9464,-1.8974,-1.8662,-1.8226,-1.7754,-1.7509,-1.7358,-1.7192,-1.6947,-1.6423,-1.573,-1.5552,-1.5552,-1.5474,-1.539,-1.53,-1.5361,-1.5568,-1.5664,-1.568,-1.6083,-1.625,-1.6281,-1.6784,-1.7282,-1.7747,-1.7747,-1.7995,-1.8436,-1.8514,-1.8358,-1.8068,-1.8279,-1.8279,-1.7868,-1.7987,-1.8073,-1.7894,-1.755,-1.7221,-1.6964,-1.625,-1.572,-1.5293,-1.452,-1.3752,-1.3387,-1.3941,-1.3742,-1.2442,-1.1765,-1.0994,-0.9839,-0.8168,-0.6902,-0.663,-0.5492,-0.4789,-0.538,-0.4343,-0.3959,-0.4179,-0.3014,-0.1286,0.0559,0.2007,0.3181,0.3515,0.4273,0.5019,0.6139,0.9037,1.2792,1.5387,1.7215,1.8383,1.9641,2.1499,2.2533,2.2998,2.3889,2.4589,2.4092,2.3587,2.2562,2.1395,2.0303,1.6922,1.1624,0.6608,0.2373,-0.8992,-1.8253,-2.3301,-2.161,-2.147,-2.1182,-2.1318,-2.1667,-2.1069,-2.1348,-2.2125,-2.0828,-2.0564,-2.0929,-2.0025,-1.9625,-1.9762,-1.9726,-1.9697,-1.9697,-1.9697,-1.9697,-1.9697,-1.9697,-1.9354,-1.8777,-1.8577,-1.8154,-1.7482,-1.7358,-1.7275,-1.7192,-1.706,-1.6674,-1.6169,-1.6088,-1.5957,-1.5703,-1.5519,-1.5424,-1.5406,-1.5329,-1.529,-1.5373,-1.6076,-1.6601,-1.682,-1.7234,-1.755,-1.776,-1.8035,-1.8279,-1.8383,-1.8233,-1.8002,-1.7794,-1.7754,-1.7598,-1.7317,-1.7338,-1.7208,-1.674,-1.6782,-1.6697,-1.6343,-1.6213,-1.5983,-1.5543,-1.4988,-1.4357,-1.37,-1.3314,-1.2822,-1.2164,-1.1371,-1.0305,-0.896,-0.7806,-0.7007,-0.6463,-0.5384,-0.4791,-0.5058,-0.4515,-0.3967,-0.3853,-0.2737,-0.1117,0.0559,0.162,0.2124,0.2741,0.3238,0.356,0.4144,0.5956,0.837,1.1491,1.3966,1.5517,1.7001,1.8851,2.0348,2.1731,2.2766,2.363,2.389,2.3405,2.2389,2.0862,1.6437,1.2104,0.6962,-0.1267,-0.7656,-1.7408,-2.1566,-2.3682,-2.2143,-2.2255,-2.2221,-2.2252,-2.23,-2.1469,-2.1691,-2.2341,-2.1055,-2.0881,-2.144,-2.0482,-2.0139,-2.0344,-2.0107,-1.9974,-1.9989,-2.0146,-2.0162,-2.0035,-1.9894,-1.9341,-1.8588,-1.8375,-1.7908,-1.7323,-1.7275,-1.7282,-1.7275,-1.7157,-1.6899,-1.6515,-1.6386,-1.6138,-1.5836,-1.5614,-1.5513,-1.5474,-1.5255,-1.5198,-1.5355,-1.6113,-1.6688,-1.696,-1.7406,-1.7639,-1.7639,-1.7948,-1.818,-1.8233,-1.7915,-1.7666,-1.7585,-1.7393,-1.715,-1.6905,-1.6833,-1.6565,-1.6001,-1.6232,-1.6176,-1.5694,-1.6008,-1.599,-1.5466,-1.5085,-1.4777,-1.431,-1.3112,-1.2379,-1.2146,-1.1266,-1.0009,-0.8646,-0.7806,-0.6948,-0.6088,-0.5119,-0.4627,-0.4842,-0.4517,-0.397,-0.3244,-0.2347,-0.1173,0.0224,0.0951,0.1342,0.2071,0.2295,0.2513,0.2774,0.3323,0.5006,0.7844,1.0473,1.2508,1.4095,1.5834,1.8044,1.9827,2.1023,2.253,2.2868,2.286,2.2496,2.1248,1.606,0.884,0.3653,-0.5442,-1.6048,-2.1281,-2.3347,-2.3956,-2.296,-2.2937,-2.2686,-2.2626,-2.2525,-2.1609,-2.1988,-2.3096,-2.176,-2.1702,-2.2445,-2.1729,-2.1588,-2.1736,-2.097,-2.0647,-2.0744,-2.1246,-2.1265,-2.083,-2.0342,-1.9589,-1.8684,-1.8119,-1.7652,-1.724,-1.7406,-1.7475,-1.7427,-1.7054,-1.6723,-1.6472,-1.6088,-1.5836,-1.5798,-1.5709,-1.5626,-1.5498,-1.5357,-1.5355,-1.5608,-1.5988,-1.6244,-1.6368,-1.6905,-1.7247,-1.724,-1.7282,-1.7352,-1.755,-1.7516,-1.738,-1.7124,-1.7297,-1.7179,-1.6595,-1.6515,-1.63,-1.5881,-1.5824,-1.5635,-1.5248,-1.5451,-1.5311,-1.4835,-1.4634,-1.4599,-1.4915,-1.3479,-1.2565,-1.2414,-1.1616,-1.0555,-0.9266,-0.7679,-0.6517,-0.5673,-0.4737,-0.4458,-0.4783,-0.4517,-0.3853,-0.2905,-0.2288,-0.1452,-0.028,0.0783,0.1398,0.1174,0.1398,0.1397,0.1282,0.1831,0.3132,0.5464,0.7523,0.9048,1.0676,1.2754,1.5246,1.6928,1.8585,2.041,2.1838,2.1934,2.1792,2.1397,1.6926,0.9217,0.0656,-1.2041,-2.1368,-2.3028,-2.3536,-2.4072,-2.3933,-2.375,-2.3477,-2.3385,-2.3271,-2.2497,-2.26,-2.3128,-2.1859,-2.1714,-2.2167,-2.1452,-2.1186,-2.1446,-2.1316,-2.1273,-2.1349,-2.1605,-2.16,-2.137,-2.0844,-2.0105,-1.9169,-1.8604,-1.7932,-1.7321,-1.7393,-1.7468,-1.7482,-1.7304,-1.7012,-1.6565,-1.6343,-1.6138,-1.5836,-1.5653,-1.5513,-1.5486,-1.5295,-1.5316,-1.5611,-1.6001,-1.6275,-1.6515,-1.6941,-1.7205,-1.7205,-1.7323,-1.7427,-1.7468,-1.731,-1.7214,-1.7297,-1.7089,-1.6808,-1.6362,-1.6318,-1.6082,-1.5591,-1.5507,-1.522,-1.4709,-1.5006,-1.4943,-1.4503,-1.4463,-1.4525,-1.4195,-1.3726,-1.3213,-1.2914,-1.1931,-1.0403,-0.878,-0.7614,-0.6551,-0.5492,-0.4625,-0.4298,-0.4513,-0.4184,-0.3626,-0.3236,-0.2456,-0.1621,-0.0895,-0.0056,0.0392,0.0559,0.0503,0.0168,-0.0168,0.0111,0.0721,0.1048,0.386,0.6024,0.7617,0.9581,1.2137,1.417,1.6624,1.8599,2.0136,2.0565,2.0418,1.9404,0.9432,0.2981,-0.525,-1.8025,-2.2358,-2.3459,-2.3839,-2.4258,-2.4418,-2.4193,-2.3925,-2.3754,-2.3581,-2.2979,-2.2806,-2.286,-2.2015,-2.1889,-2.2178,-2.1614,-2.1485,-2.1735,-2.1982,-2.2011,-2.1985,-2.2027,-2.1929,-2.1605,-2.136,-2.0528,-1.9348,-1.8896,-1.8244,-1.7479,-1.7605,-1.7645,-1.7482,-1.7434,-1.706,-1.6528,-1.6355,-1.6138,-1.5842,-1.5653,-1.5564,-1.5468,-1.5385,-1.534,-1.5507,-1.5875,-1.6219,-1.6466,-1.6934,-1.724,-1.7269,-1.7447,-1.7605,-1.7679,-1.7509,-1.7427,-1.7373,-1.6788,-1.6207,-1.5869,-1.5919,-1.5591,-1.4903,-1.4903,-1.4669,-1.3915,-1.4206,-1.4195,-1.3711,-1.3998,-1.3956,-1.3684,-1.36,-1.3563,-1.3223,-1.2246,-1.0821,-0.9341,-0.8289,-0.7236,-0.6074,-0.5115,-0.4629,-0.446,-0.4184,-0.385,-0.357,-0.2902,-0.2233,-0.1675,-0.1007,-0.0392,-0.0392,-0.0447,-0.0782,-0.123,-0.1228,-0.1227,-0.0944,0.0823,0.3003,0.4639,0.6318,0.8894,1.1277,1.3949,1.6087,1.7842,1.8582,1.8529,1.3097,0.2746,-0.5123,-1.1898,-1.8147,-2.3332,-2.3868,-2.4082,-2.4454,-2.431,-2.4268,-2.3917,-2.3617,-2.3304,-2.2934,-2.2533,-2.2303,-2.2231,-2.2395,-2.2651,-2.2644,-2.2757,-2.3002,-2.3018,-2.2873,-2.2546,-2.2653,-2.2285,-2.1565,-2.1744,-2.0848,-1.9164,-1.8889,-1.8375,-1.7543,-1.7949,-1.7942,-1.755,-1.731,-1.6983,-1.6522,-1.605,-1.5881,-1.5792,-1.5748,-1.5703,-1.5564,-1.557,-1.5474,-1.5244,-1.573,-1.6001,-1.6007,-1.6735,-1.7234,-1.7441,-1.7509,-1.7727,-1.8022,-1.8069,-1.7848,-1.716,-1.6318,-1.5558,-1.5226,-1.5355,-1.4903,-1.403,-1.4274,-1.4118,-1.3346,-1.3203,-1.3362,-1.2842,-1.3175,-1.3447,-1.3309,-1.3462,-1.3467,-1.3117,-1.2652,-1.1999,-1.1312,-0.9548,-0.8255,-0.7472,-0.619,-0.5058,-0.468,-0.4463,-0.4239,-0.3792,-0.3458,-0.3123,-0.2568,-0.1843,-0.1286,-0.151,-0.1509,-0.1453,-0.19,-0.2344,-0.2619,-0.2455,-0.2008,-0.0166,0.1598,0.3324,0.5403,0.7402,0.9835,1.1353,1.2985,1.3467,1.3233,0.9222,-0.049,-0.6828,-1.3369,-1.9142,-2.3201,-2.3568,-2.3686,-2.4471,-2.456,-2.431,-2.4185,-2.3832,-2.3312,-2.3172,-2.2776,-2.228,-2.2613,-2.2893,-2.3046,-2.3441,-2.3695,-2.3716,-2.3576,-2.3203,-2.2672,-2.2733,-2.2428,-2.1881,-2.1666,-2.1038,-1.9985,-1.9189,-1.8489,-1.7923,-1.8069,-1.8016,-1.7673,-1.7365,-1.6947,-1.6522,-1.6007,-1.5836,-1.5792,-1.5754,-1.5709,-1.5665,-1.5558,-1.5608,-1.5686,-1.5907,-1.6076,-1.6306,-1.6558,-1.6814,-1.706,-1.7645,-1.7855,-1.7733,-1.7509,-1.6999,-1.6176,-1.5662,-1.5406,-1.5322,-1.5017,-1.4983,-1.4834,-1.4783,-1.4403,-1.3737,-1.4019,-1.3589,-1.2554,-1.3409,-1.3789,-1.3309,-1.3515,-1.3721,-1.3271,-1.2803,-1.2157,-1.1225,-0.9662,-0.8472,-0.7685,-0.6355,-0.5386,-0.5062,-0.4737,-0.4406,-0.4184,-0.3959,-0.357,-0.3347,-0.2679,-0.229,-0.2401,-0.2567,-0.3008,-0.3506,-0.3783,-0.3838,-0.3727,-0.3395,-0.2164,-0.0774,0.0658,0.1962,0.3839,0.5633,0.7088,0.7909,0.8348,0.6422,0.2358,-0.2985,-0.9652,-1.3359,-1.7678,-2.038,-2.2128,-2.3208,-2.3973,-2.4673,-2.4302,-2.431,-2.4009,-2.3494,-2.3371,-2.3109,-2.2786,-2.297,-2.3224,-2.3505,-2.3927,-2.4118,-2.4011,-2.3663,-2.3185,-2.2698,-2.2484,-2.2111,-2.1766,-2.1718,-2.105,-1.9951,-1.8872,-1.8259,-1.8018,-1.8123,-1.7982,-1.755,-1.7323,-1.6856,-1.6262,-1.5919,-1.5792,-1.5792,-1.5742,-1.5715,-1.5715,-1.5659,-1.5691,-1.5818,-1.5856,-1.6007,-1.6182,-1.6392,-1.6552,-1.6752,-1.7441,-1.77,-1.7393,-1.7012,-1.6454,-1.5844,-1.5585,-1.5367,-1.5181,-1.5062,-1.4937,-1.4783,-1.4582,-1.4253,-1.3637,-1.3868,-1.3721,-1.2779,-1.3689,-1.3978,-1.3642,-1.3858,-1.4046,-1.3752,-1.3035,-1.2339,-1.1823,-1.0187,-0.8682,-0.7522,-0.6355,-0.5441,-0.506,-0.4679,-0.4517,-0.4405,-0.4237,-0.3959,-0.3847,-0.3401,-0.307,-0.3124,-0.3347,-0.3841,-0.4335,-0.4556,-0.4719,-0.5046,-0.4549,-0.3889,-0.2882,-0.1823,-0.0877,0.0472,0.22,0.3722,0.3886,0.4248,0.1119,-0.2832,-0.7915,-1.3628,-1.5479,-1.7008,-1.9264,-2.1623,-2.2598,-2.3346,-2.4681,-2.4302,-2.431,-2.4086,-2.3754,-2.3443,-2.3472,-2.3649,-2.3425,-2.3653,-2.4126,-2.4329,-2.4336,-2.4139,-2.3884,-2.3391,-2.274,-2.238,-2.1842,-2.1519,-2.1568,-2.0946,-1.9166,-1.8325,-1.7986,-1.7916,-1.8118,-1.7875,-1.7275,-1.7115,-1.6735,-1.5931,-1.5842,-1.5792,-1.5792,-1.5792,-1.5754,-1.5715,-1.5754,-1.5703,-1.5603,-1.5691,-1.5792,-1.5798,-1.6182,-1.6429,-1.6472,-1.6856,-1.7109,-1.7073,-1.6693,-1.6337,-1.6201,-1.5869,-1.5334,-1.4943,-1.5232,-1.4806,-1.4143,-1.4009,-1.3632,-1.3054,-1.315,-1.2812,-1.2962,-1.3632,-1.4165,-1.3884,-1.4134,-1.428,-1.3983,-1.3304,-1.272,-1.2516,-1.0758,-0.8898,-0.6894,-0.631,-0.5767,-0.4897,-0.4572,-0.4517,-0.4517,-0.4515,-0.4513,-0.4348,-0.4013,-0.3901,-0.3846,-0.4065,-0.4117,-0.4666,-0.538,-0.5651,-0.6029,-0.5542,-0.4935,-0.4438,-0.3598,-0.2979,-0.2626,-0.129,-0.1218,-0.0948,-0.0911,-0.4211,-0.7578,-1.198,-1.4974,-1.6541,-1.8113,-1.9756,-2.0773,-2.1639,-2.2552,-2.491,-2.4302,-2.431,-2.4094,-2.3832,-2.3703,-2.3874,-2.4131,-2.4192,-2.4583,-2.5112,-2.5371,-2.5392,-2.5381,-2.5177,-2.464,-2.3818,-2.3332,-2.258,-2.1705,-2.1561,-2.0597,-1.9232,-1.8848,-1.8484,-1.8092,-1.8288,-1.7936,-1.7218,-1.695,-1.6467,-1.5836,-1.581,-1.5792,-1.5792,-1.5792,-1.5786,-1.5792,-1.5792,-1.5754,-1.5697,-1.5736,-1.5792,-1.5792,-1.5925,-1.6013,-1.6007,-1.6088,-1.6355,-1.6644,-1.6219,-1.5957,-1.5913,-1.5558,-1.5379,-1.5418,-1.4863,-1.4623,-1.4525,-1.4071,-1.3563,-1.3261,-1.3494,-1.3684,-1.3006,-1.4107,-1.431,-1.3983,-1.3936,-1.3836,-1.3203,-1.2681,-1.2084,-1.1011,-1.0316,-0.9173,-0.7489,-0.6581,-0.598,-0.5279,-0.5119,-0.4954,-0.4737,-0.4846,-0.4952,-0.4736,-0.4732,-0.4836,-0.4836,-0.5058,-0.5273,-0.6034,-0.6691,-0.6853,-0.6853,-0.6421,-0.5987,-0.5716,-0.5156,-0.4652,-0.4718,-0.4697,-0.5978,-0.7374,-0.6374,-0.8455,-1.0718,-1.3936,-1.5764,-1.6766,-1.7605,-1.8424,-1.9438,-2.0373,-2.1483,-2.5005,-2.431,-2.431,-2.4219,-2.4124,-2.4212,-2.4536,-2.5,-2.5324,-2.5625,-2.6008,-2.6225,-2.6143,-2.5865,-2.5605,-2.5135,-2.4446,-2.3747,-2.2985,-2.2187,-2.1411,-2.0556,-1.9747,-1.9486,-1.9098,-1.887,-1.8947,-1.8662,-1.7974,-1.7424,-1.6817,-1.617,-1.5721,-1.5614,-1.5798,-1.5558,-1.5519,-1.5513,-1.5659,-1.5748,-1.5519,-1.5703,-1.5792,-1.5792,-1.5792,-1.5792,-1.5792,-1.5792,-1.5969,-1.6094,-1.5963,-1.5792,-1.5792,-1.5564,-1.5513,-1.5742,-1.496,-1.464,-1.4571,-1.3972,-1.3362,-1.3213,-1.3595,-1.3505,-1.3309,-1.403,-1.4181,-1.3858,-1.3795,-1.3547,-1.3069,-1.254,-1.1584,-1.0521,-0.9969,-0.9187,-0.761,-0.7117,-0.6465,-0.5875,-0.5664,-0.5609,-0.5067,-0.5445,-0.555,-0.5441,-0.5553,-0.566,-0.5769,-0.61,-0.6482,-0.7023,-0.745,-0.7501,-0.7551,-0.7224,-0.6953,-0.6632,-0.6779,-0.623,-0.6379,-0.7025,-0.8255,-0.9687,-1.073,-1.1853,-1.3145,-1.4038,-1.4362,-1.5217,-1.6097,-1.723,-1.8358,-1.9485,-2.0553,-2.5059,-2.4359,-2.4428,-2.4575,-2.4774,-2.4869,-2.5452,-2.6192,-2.6346,-2.6513,-2.6651,-2.6842,-2.645,-2.5906,-2.5479,-2.5057,-2.4896,-2.4004,-2.323,-2.2477,-2.1657,-2.0906,-2.0748,-1.9904,-1.9683,-1.9787,-1.9968,-1.9485,-1.8746,-1.8252,-1.7517,-1.6584,-1.5671,-1.5449,-1.5632,-1.5283,-1.5102,-1.5283,-1.5513,-1.5564,-1.543,-1.5659,-1.5792,-1.5792,-1.5792,-1.5792,-1.5792,-1.5792,-1.5836,-1.5836,-1.5792,-1.5792,-1.5792,-1.5798,-1.5703,-1.5564,-1.5091,-1.4674,-1.4433,-1.3542,-1.2972,-1.2977,-1.2967,-1.3059,-1.3208,-1.3605,-1.381,-1.3563,-1.3573,-1.3372,-1.3127,-1.2472,-1.1475,-1.0423,-0.9865,-0.9033,-0.814,-0.7608,-0.7063,-0.6098,-0.6369,-0.6315,-0.6046,-0.6098,-0.6362,-0.5769,-0.5934,-0.615,-0.6367,-0.6745,-0.7071,-0.745,-0.7768,-0.7978,-0.8031,-0.8081,-0.7809,-0.7643,-0.8044,-0.7926,-0.7682,-0.8239,-0.9168,-1.0199,-1.0931,-1.1955,-1.3272,-1.3658,-1.3834,-1.4694,-1.6223,-1.6953,-1.7699,-1.8767,-1.9846,-2.5261,-2.4595,-2.5297,-2.5664,-2.5721,-2.5746,-2.6455,-2.7512,-2.6786,-2.6934,-2.7227,-2.7056,-2.6602,-2.6049,-2.5751,-2.5451,-2.5057,-2.458,-2.4051,-2.2986,-2.256,-2.211,-2.1694,-2.0836,-2.027,-2.0199,-2.0148,-1.9747,-1.9015,-1.844,-1.7653,-1.6612,-1.5899,-1.5724,-1.5644,-1.496,-1.4915,-1.5418,-1.5424,-1.5424,-1.5614,-1.5703,-1.5792,-1.5792,-1.5786,-1.5798,-1.5792,-1.5792,-1.5792,-1.5792,-1.5792,-1.5748,-1.5792,-1.5792,-1.5608,-1.5238,-1.4726,-1.4258,-1.3789,-1.3132,-1.2662,-1.2764,-1.2783,-1.2909,-1.3064,-1.3367,-1.3367,-1.3165,-1.2967,-1.2832,-1.2554,-1.1909,-1.1191,-1.0474,-0.9913,-0.9357,-0.8636,-0.7993,-0.7343,-0.6853,-0.6958,-0.7063,-0.648,-0.6532,-0.6529,-0.615,-0.6258,-0.6532,-0.691,-0.7337,-0.7608,-0.7934,-0.8405,-0.8666,-0.8715,-0.8764,-0.8702,-0.8643,-0.91,-0.9397,-0.9155,-0.9504,-1.0406,-1.0751,-1.0944,-1.2198,-1.3968,-1.4328,-1.4705,-1.5578,-1.6348,-1.7059,-1.7826,-1.8579,-1.941,-2.5751,-2.5456,-2.599,-2.638,-2.6681,-2.6881,-2.7435,-2.8124,-2.8002,-2.7759,-2.7644,-2.7507,-2.7004,-2.6218,-2.6049,-2.5791,-2.5508,-2.5124,-2.4467,-2.3631,-2.3112,-2.2804,-2.2628,-2.208,-2.1541,-2.1108,-2.113,-2.0475,-1.9535,-1.8764,-1.7899,-1.6566,-1.5689,-1.5245,-1.5369,-1.472,-1.4582,-1.5,-1.5373,-1.5468,-1.548,-1.5703,-1.5792,-1.5748,-1.5608,-1.5474,-1.5468,-1.548,-1.5328,-1.5238,-1.5334,-1.5608,-1.5697,-1.5614,-1.534,-1.496,-1.4258,-1.3789,-1.3319,-1.29,-1.2524,-1.2583,-1.2652,-1.2701,-1.2745,-1.2944,-1.2847,-1.2642,-1.2496,-1.2353,-1.2126,-1.1623,-1.1053,-1.0474,-0.9965,-0.9462,-0.8956,-0.848,-0.7993,-0.7501,-0.7768,-0.7664,-0.745,-0.7233,-0.7391,-0.7334,-0.7283,-0.7501,-0.7661,-0.804,-0.815,-0.8468,-0.904,-0.9354,-0.9399,-0.9496,-0.9533,-0.9688,-1.0104,-1.0293,-1.0289,-1.0877,-1.1661,-1.188,-1.2189,-1.3636,-1.5126,-1.5351,-1.5602,-1.6145,-1.6756,-1.7409,-1.8025,-1.8738,-1.9617,-2.6393,-2.623,-2.655,-2.7001,-2.7448,-2.783,-2.8255,-2.873,-2.9167,-2.8676,-2.8068,-2.8087,-2.7449,-2.6623,-2.6226,-2.6111,-2.5901,-2.5462,-2.4805,-2.4214,-2.3793,-2.3364,-2.3097,-2.2845,-2.2572,-2.2255,-2.2229,-2.141,-2.012,-1.9304,-1.8289,-1.6747,-1.533,-1.5079,-1.5108,-1.4628,-1.4485,-1.4863,-1.5283,-1.5513,-1.5379,-1.5653,-1.5792,-1.5748,-1.5519,-1.5334,-1.5379,-1.5289,-1.5102,-1.4582,-1.4915,-1.5289,-1.5474,-1.5244,-1.4875,-1.4669,-1.3836,-1.3415,-1.3084,-1.2759,-1.2529,-1.2529,-1.2475,-1.2475,-1.252,-1.2471,-1.2421,-1.2372,-1.2274,-1.2224,-1.2081,-1.1628,-1.1103,-1.0529,-1.006,-0.9558,-0.9159,-0.891,-0.8527,-0.8249,-0.8309,-0.8206,-0.8096,-0.7984,-0.8306,-0.8521,-0.8415,-0.8418,-0.8471,-0.8679,-0.8784,-0.8995,-0.9514,-0.998,-1.0028,-1.032,-1.036,-1.0568,-1.0943,-1.1174,-1.1412,-1.2047,-1.2662,-1.3261,-1.3941,-1.5209,-1.6053,-1.6354,-1.6563,-1.6795,-1.7181,-1.7847,-1.8377,-1.8896,-1.9924,-2.682,-2.5932,-2.733,-2.7793,-2.768,-2.7743,-2.8517,-2.9434,-2.9167,-2.8898,-2.8795,-2.8329,-2.7792,-2.7159,-2.6532,-2.6211,-2.6162,-2.5863,-2.5378,-2.4878,-2.4519,-2.406,-2.3203,-2.309,-2.2767,-2.2493,-2.2514,-2.1889,-2.053,-1.9846,-1.8589,-1.7248,-1.6021,-1.5574,-1.5268,-1.4863,-1.472,-1.5045,-1.5283,-1.5328,-1.5463,-1.5608,-1.5792,-1.5748,-1.5558,-1.5463,-1.5558,-1.5608,-1.5659,-1.5513,-1.5283,-1.5153,-1.5011,-1.4634,-1.4206,-1.3826,-1.3505,-1.318,-1.2759,-1.2627,-1.2529,-1.2475,-1.2426,-1.2426,-1.2426,-1.2377,-1.2323,-1.2377,-1.2323,-1.2274,-1.222,-1.1673,-1.1099,-1.0576,-1.0115,-0.9614,-0.9155,-0.9057,-0.9057,-0.8784,-0.8794,-0.8748,-0.8583,-0.8415,-0.8415,-0.8521,-0.8468,-0.8464,-0.8517,-0.8935,-0.9354,-0.9669,-1.0035,-1.0395,-1.0655,-1.1044,-1.1238,-1.1342,-1.1647,-1.2026,-1.2365,-1.3011,-1.3616,-1.4253,-1.4914,-1.5748,-1.6502,-1.7102,-1.7227,-1.7214,-1.7706,-1.8242,-1.8752,-1.928,-2.0622,-2.7641,-2.7188,-2.805,-2.8589,-2.8791,-2.8822,-2.9202,-2.9797,-2.9494,-2.9231,-2.9041,-2.8725,-2.8336,-2.7841,-2.7442,-2.7049,-2.6654,-2.645,-2.594,-2.5261,-2.4681,-2.406,-2.3168,-2.3105,-2.2718,-2.2409,-2.243,-2.1762,-2.0182,-1.9575,-1.85,-1.7015,-1.597,-1.5475,-1.5347,-1.5006,-1.4817,-1.5091,-1.5096,-1.5051,-1.5091,-1.5283,-1.5519,-1.5659,-1.5322,-1.504,-1.4994,-1.4726,-1.4496,-1.431,-1.4316,-1.4176,-1.3994,-1.381,-1.3563,-1.3415,-1.3233,-1.3007,-1.2725,-1.2632,-1.2681,-1.2583,-1.248,-1.2426,-1.2426,-1.2431,-1.2372,-1.2426,-1.2426,-1.2269,-1.1923,-1.1623,-1.1099,-1.0375,-1.002,-0.9718,-0.9361,-0.9309,-0.926,-0.9211,-0.9057,-0.8903,-0.8854,-0.8685,-0.8521,-0.8464,-0.8517,-0.8567,-0.8616,-0.9138,-0.9766,-0.9925,-1.0237,-1.0749,-1.1108,-1.1514,-1.195,-1.2053,-1.2201,-1.2628,-1.3097,-1.3637,-1.4427,-1.5276,-1.5908,-1.6287,-1.6902,-1.7441,-1.7516,-1.755,-1.77,-1.8027,-1.8858,-1.9785,-2.0997,-2.8259,-2.8239,-2.8503,-2.9031,-2.9621,-2.9683,-2.9756,-2.9894,-2.9902,-2.9633,-2.9273,-2.9128,-2.8834,-2.8488,-2.8135,-2.775,-2.7218,-2.7056,-2.6344,-2.5353,-2.4765,-2.4063,-2.3273,-2.3034,-2.2781,-2.224,-2.1974,-2.129,-2.0107,-1.9309,-1.814,-1.6966,-1.5786,-1.5289,-1.5283,-1.5289,-1.4915,-1.4869,-1.4829,-1.4823,-1.4674,-1.496,-1.539,-1.5709,-1.4954,-1.4536,-1.4628,-1.4212,-1.3847,-1.3663,-1.3578,-1.3483,-1.3113,-1.2983,-1.3022,-1.3195,-1.3017,-1.2827,-1.273,-1.2783,-1.2783,-1.2686,-1.2578,-1.2573,-1.2573,-1.2529,-1.2471,-1.2524,-1.2524,-1.2269,-1.1823,-1.1523,-1.0998,-1.0281,-0.998,-0.9884,-0.9573,-0.9417,-0.9413,-0.9312,-0.9159,-0.9211,-0.926,-0.9309,-0.919,-0.919,-0.919,-0.9037,-0.9138,-0.9551,-0.9969,-1.0024,-1.0336,-1.0943,-1.146,-1.1927,-1.2363,-1.2652,-1.274,-1.2972,-1.3532,-1.4097,-1.4926,-1.5662,-1.6095,-1.6514,-1.7166,-1.7639,-1.7632,-1.755,-1.7482,-1.7881,-1.8738,-1.9743,-2.0902,-2.8023,-2.7696,-2.834,-2.8717,-2.8953,-2.9,-2.9316,-2.9894,-2.9926,-2.9866,-2.971,-2.9311,-2.9128,-2.8935,-2.8425,-2.7997,-2.7662,-2.7373,-2.6642,-2.5467,-2.5128,-2.4312,-2.3238,-2.3112,-2.2704,-2.2156,-2.1703,-2.1046,-2.0184,-1.9314,-1.8278,-1.7141,-1.6509,-1.6088,-1.5653,-1.5614,-1.5697,-1.5564,-1.5249,-1.5017,-1.5011,-1.5334,-1.5558,-1.5519,-1.5244,-1.4868,-1.4712,-1.4309,-1.4026,-1.4042,-1.3725,-1.3594,-1.3472,-1.3118,-1.2973,-1.292,-1.2822,-1.2671,-1.2627,-1.2681,-1.2783,-1.2735,-1.2686,-1.273,-1.273,-1.2779,-1.2725,-1.2676,-1.2681,-1.2274,-1.1665,-1.1259,-1.0685,-1.0174,-0.9769,-0.9621,-0.9417,-0.9517,-0.9517,-0.9517,-0.9364,-0.9662,-0.9862,-0.9858,-0.9854,-0.9858,-0.9862,-0.971,-0.9662,-0.9969,-1.058,-1.069,-1.0592,-1.115,-1.161,-1.2126,-1.2613,-1.3094,-1.3185,-1.3314,-1.3915,-1.4514,-1.5005,-1.5688,-1.6126,-1.6648,-1.7256,-1.7591,-1.7632,-1.7591,-1.7482,-1.798,-1.8686,-1.9712,-2.0695,-2.8628,-2.8206,-2.89,-2.9327,-2.9408,-2.9397,-2.961,-2.987,-2.9926,-2.9926,-2.9858,-2.9673,-2.9568,-2.9433,-2.9227,-2.8653,-2.8007,-2.7742,-2.654,-2.5121,-2.4723,-2.3993,-2.2856,-2.2578,-2.236,-2.2128,-2.1604,-2.1004,-2.0236,-1.9319,-1.8236,-1.7284,-1.6735,-1.6219,-1.5881,-1.5792,-1.5614,-1.5244,-1.4731,-1.4403,-1.4634,-1.4863,-1.4954,-1.4954,-1.4777,-1.4691,-1.4494,-1.4134,-1.3995,-1.4078,-1.3932,-1.3796,-1.3586,-1.3308,-1.3164,-1.2886,-1.2881,-1.2783,-1.273,-1.2783,-1.2783,-1.2779,-1.2783,-1.2735,-1.2783,-1.2832,-1.273,-1.2377,-1.2681,-1.2274,-1.1405,-1.1049,-1.0541,-1.0028,-0.9614,-0.9614,-0.9517,-0.9566,-0.9618,-0.9566,-0.9618,-0.9921,-1.0171,-1.0218,-1.0269,-1.0372,-1.0431,-1.0438,-1.0233,-1.0186,-1.0846,-1.161,-1.141,-1.136,-1.1764,-1.2175,-1.2754,-1.3185,-1.3377,-1.3647,-1.434,-1.4886,-1.546,-1.5902,-1.6349,-1.6873,-1.7386,-1.7468,-1.7434,-1.7475,-1.7523,-1.8099,-1.87,-1.9257,-2.0329,-2.9175,-2.8787,-2.9423,-2.9798,-2.9965,-2.9938,-2.991,-2.9926,-2.9926,-2.9926,-2.9926,-2.9874,-2.9874,-2.9883,-2.9774,-2.9163,-2.8123,-2.7963,-2.6516,-2.513,-2.4137,-2.3567,-2.283,-2.2445,-2.2259,-2.2156,-2.1657,-2.1057,-2.0315,-1.9488,-1.8493,-1.7391,-1.6983,-1.6472,-1.6088,-1.5824,-1.5558,-1.4863,-1.4446,-1.422,-1.4165,-1.4285,-1.4368,-1.4343,-1.4294,-1.427,-1.4121,-1.3931,-1.3905,-1.4037,-1.408,-1.3955,-1.3728,-1.3509,-1.3326,-1.3111,-1.3008,-1.2886,-1.2886,-1.2886,-1.2886,-1.2881,-1.2832,-1.2783,-1.2774,-1.2827,-1.2827,-1.2426,-1.2426,-1.1859,-1.0994,-1.0897,-1.0387,-0.9928,-0.9566,-0.9566,-0.9618,-0.9669,-0.9669,-0.9618,-0.9721,-1.0028,-1.0281,-1.0478,-1.0631,-1.0779,-1.0893,-1.1057,-1.0905,-1.0651,-1.1158,-1.1918,-1.1914,-1.1855,-1.2398,-1.2754,-1.3137,-1.342,-1.361,-1.4014,-1.4698,-1.5365,-1.594,-1.6343,-1.6661,-1.7005,-1.7475,-1.7358,-1.7234,-1.7516,-1.7794,-1.8198,-1.8684,-1.9236,-2.0146,-2.9273,-2.8994,-2.9466,-2.9919,-3.0225,-3.0017,-2.9926,-2.9926,-2.9926,-2.9926,-2.9926,-2.9926,-2.9926,-2.9894,-2.9713,-2.921,-2.8323,-2.8355,-2.6848,-2.5541,-2.4723,-2.3851,-2.3056,-2.254,-2.2303,-2.2186,-2.1815,-2.1258,-2.0514,-1.995,-1.8879,-1.7875,-1.7317,-1.6892,-1.6429,-1.5957,-1.5373,-1.4841,-1.4591,-1.4264,-1.4019,-1.4036,-1.4257,-1.4258,-1.4226,-1.4202,-1.4214,-1.4096,-1.4126,-1.4277,-1.4316,-1.4134,-1.3988,-1.3716,-1.3519,-1.3263,-1.3018,-1.2905,-1.2886,-1.2886,-1.2886,-1.2886,-1.2837,-1.2783,-1.2827,-1.2881,-1.2832,-1.2671,-1.2426,-1.1868,-1.1158,-1.0753,-1.0241,-0.9825,-0.9618,-0.9721,-0.9721,-0.9773,-0.9721,-0.9669,-0.9873,-1.0336,-1.0698,-1.0947,-1.1196,-1.1347,-1.1456,-1.1619,-1.1514,-1.136,-1.1615,-1.2067,-1.2166,-1.2501,-1.3276,-1.3615,-1.37,-1.4025,-1.431,-1.4652,-1.509,-1.5752,-1.6379,-1.6769,-1.7083,-1.731,-1.7447,-1.7399,-1.7441,-1.772,-1.8068,-1.8355,-1.9148,-2.0012,-2.0918,-2.9145,-2.8673,-2.9107,-2.966,-3.0309,-3.0025,-2.9926,-2.9926,-2.9926,-2.9926,-2.9878,-2.9918,-2.9918,-2.9797,-2.9351,-2.8755,-2.7985,-2.7509,-2.6248,-2.5125,-2.4248,-2.3673,-2.3001,-2.2692,-2.2509,-2.2413,-2.2202,-2.1589,-2.0691,-2.0244,-1.9521,-1.8592,-1.7686,-1.7089,-1.6588,-1.6126,-1.5418,-1.4903,-1.4624,-1.4209,-1.3826,-1.3704,-1.3877,-1.3819,-1.4161,-1.4312,-1.452,-1.4533,-1.4663,-1.481,-1.4841,-1.4601,-1.4214,-1.3959,-1.364,-1.3257,-1.3037,-1.291,-1.2886,-1.2886,-1.2886,-1.2837,-1.2637,-1.2534,-1.2827,-1.2881,-1.2676,-1.2475,-1.2229,-1.1719,-1.0858,-1.0506,-1.0245,-0.9825,-0.9669,-0.9773,-0.9928,-0.9928,-1.0079,-1.0079,-1.0438,-1.085,-1.1158,-1.1414,-1.1714,-1.1968,-1.2076,-1.213,-1.2067,-1.2004,-1.2255,-1.2598,-1.274,-1.3122,-1.3889,-1.4077,-1.4217,-1.4588,-1.5006,-1.5332,-1.5664,-1.6157,-1.674,-1.7124,-1.7468,-1.7611,-1.7659,-1.7529,-1.7564,-1.772,-1.8021,-1.8394,-1.9425,-2.062,-2.1401,-2.8893,-2.8496,-2.8604,-2.9244,-3.003,-2.9811,-2.9759,-2.9845,-2.9659,-2.944,-2.927,-2.9262,-2.9227,-2.9057,-2.8725,-2.8085,-2.7373,-2.6728,-2.567,-2.4748,-2.4024,-2.3501,-2.3038,-2.2706,-2.2622,-2.2579,-2.2286,-2.1677,-2.0754,-2.0561,-1.9781,-1.8853,-1.8061,-1.7489,-1.7076,-1.6367,-1.5668,-1.4903,-1.4536,-1.3978,-1.352,-1.3552,-1.356,-1.3657,-1.4102,-1.4465,-1.478,-1.4853,-1.5078,-1.5244,-1.5249,-1.498,-1.4535,-1.4131,-1.3704,-1.328,-1.2954,-1.2895,-1.2886,-1.273,-1.2783,-1.2832,-1.2175,-1.2274,-1.2627,-1.2779,-1.2475,-1.2475,-1.2121,-1.1523,-1.0616,-1.0399,-1.0087,-0.9614,-0.9618,-0.9721,-1.0087,-1.0245,-1.0442,-1.0596,-1.0956,-1.1221,-1.1769,-1.2121,-1.2559,-1.2754,-1.2798,-1.2852,-1.2847,-1.2837,-1.2885,-1.3223,-1.3557,-1.3978,-1.4449,-1.4588,-1.4772,-1.5164,-1.5573,-1.5996,-1.6379,-1.6782,-1.7208,-1.7713,-1.7935,-1.8003,-1.7875,-1.7693,-1.7605,-1.7605,-1.8126,-1.8878,-1.9677,-2.0814,-2.1336,-2.8475,-2.8554,-2.8109,-2.8634,-2.9538,-2.9344,-2.9418,-2.9589,-2.9099,-2.8498,-2.802,-2.7956,-2.7948,-2.7907,-2.7859,-2.7421,-2.6872,-2.6254,-2.5478,-2.47,-2.3921,-2.345,-2.3201,-2.2918,-2.2642,-2.2496,-2.2167,-2.1585,-2.0694,-2.0292,-1.9673,-1.9114,-1.8461,-1.7981,-1.7854,-1.6941,-1.5772,-1.456,-1.4398,-1.3795,-1.3334,-1.3386,-1.3486,-1.3787,-1.4311,-1.4744,-1.4954,-1.5146,-1.5322,-1.5391,-1.5415,-1.5142,-1.4741,-1.4262,-1.3873,-1.3481,-1.3066,-1.2905,-1.2886,-1.2421,-1.2372,-1.2578,-1.1923,-1.181,-1.2417,-1.2475,-1.2389,-1.2544,-1.2004,-1.1508,-1.0879,-1.0478,-1.0089,-0.9739,-0.9758,-1.0075,-1.051,-1.0784,-1.1011,-1.1515,-1.1473,-1.1545,-1.2238,-1.2827,-1.3354,-1.3588,-1.3573,-1.3568,-1.3568,-1.3563,-1.3557,-1.3889,-1.4217,-1.4542,-1.4915,-1.5102,-1.5322,-1.5718,-1.6145,-1.6563,-1.6938,-1.7277,-1.7747,-1.8261,-1.8314,-1.8202,-1.8029,-1.7814,-1.7882,-1.8068,-1.8878,-1.9643,-2.034,-2.0951,-2.1469,-2.7834,-2.7861,-2.7804,-2.8029,-2.8488,-2.8481,-2.8607,-2.8633,-2.8241,-2.7923,-2.7753,-2.7721,-2.7721,-2.7608,-2.7203,-2.6879,-2.6574,-2.5592,-2.4926,-2.4498,-2.3817,-2.3385,-2.3076,-2.2891,-2.2626,-2.2279,-2.1874,-2.1231,-2.0284,-2.0016,-1.9633,-1.914,-1.8738,-1.8061,-1.7325,-1.6563,-1.5876,-1.4949,-1.4496,-1.3999,-1.3448,-1.3476,-1.3649,-1.3921,-1.4517,-1.4907,-1.5132,-1.5356,-1.54,-1.5415,-1.5415,-1.5186,-1.4756,-1.4335,-1.393,-1.3542,-1.312,-1.2895,-1.2632,-1.222,-1.1819,-1.1923,-1.1714,-1.1305,-1.171,-1.2067,-1.23,-1.2599,-1.2255,-1.1924,-1.1778,-1.152,-1.1113,-1.0291,-1.0295,-1.0873,-1.1303,-1.1469,-1.173,-1.252,-1.2803,-1.301,-1.3521,-1.3872,-1.4297,-1.4414,-1.4417,-1.4181,-1.4071,-1.4118,-1.416,-1.4496,-1.4829,-1.5153,-1.5379,-1.5558,-1.5818,-1.6207,-1.6625,-1.7089,-1.7414,-1.7814,-1.8075,-1.8503,-1.8432,-1.84,-1.8307,-1.8247,-1.839,-1.8717,-1.9471,-1.9984,-2.0447,-2.1063,-2.1697,-2.7518,-2.7561,-2.768,-2.7783,-2.7934,-2.8064,-2.7985,-2.7742,-2.7555,-2.7339,-2.6992,-2.6968,-2.6936,-2.6806,-2.6571,-2.6312,-2.6217,-2.5401,-2.4703,-2.4261,-2.3809,-2.3348,-2.3024,-2.2642,-2.233,-2.196,-2.1438,-2.0799,-2.0153,-1.987,-1.9508,-1.9158,-1.895,-1.8351,-1.755,-1.6947,-1.6206,-1.53,-1.4702,-1.4383,-1.4039,-1.3983,-1.4113,-1.441,-1.4785,-1.5132,-1.5332,-1.5415,-1.5415,-1.5415,-1.5347,-1.5132,-1.4704,-1.4385,-1.3942,-1.3469,-1.3081,-1.2959,-1.2864,-1.2454,-1.209,-1.1714,-1.1103,-1.0998,-1.1352,-1.1866,-1.2402,-1.2665,-1.2586,-1.2624,-1.2617,-1.2391,-1.1772,-1.0981,-1.0989,-1.1531,-1.1909,-1.2083,-1.2494,-1.3321,-1.3941,-1.425,-1.4715,-1.5007,-1.5303,-1.526,-1.5223,-1.4914,-1.4623,-1.4628,-1.472,-1.5,-1.5289,-1.5513,-1.578,-1.6044,-1.6349,-1.6699,-1.7144,-1.7666,-1.8061,-1.8454,-1.8606,-1.8666,-1.8697,-1.8697,-1.8659,-1.8683,-1.8884,-1.9295,-1.9892,-2.0303,-2.0545,-2.1119,-2.1811,-2.7608,-2.7701,-2.7666,-2.7771,-2.7965,-2.7997,-2.7634,-2.7081,-2.7043,-2.6477,-2.5632,-2.5729,-2.5794,-2.5673,-2.5592,-2.561,-2.543,-2.4964,-2.4451,-2.4038,-2.342,-2.3039,-2.2615,-2.2193,-2.1823,-2.1438,-2.0944,-2.0357,-1.9986,-1.9566,-1.9217,-1.913,-1.9017,-1.8567,-1.8029,-1.7356,-1.6529,-1.5697,-1.508,-1.481,-1.4569,-1.4691,-1.4911,-1.5139,-1.5342,-1.5509,-1.558,-1.5473,-1.5415,-1.5415,-1.54,-1.4917,-1.4619,-1.457,-1.3887,-1.332,-1.2969,-1.3159,-1.325,-1.2892,-1.235,-1.1747,-1.0729,-1.0908,-1.1336,-1.179,-1.24,-1.3015,-1.3208,-1.3287,-1.3328,-1.2866,-1.2402,-1.1952,-1.1684,-1.2072,-1.2462,-1.2806,-1.3268,-1.3867,-1.4459,-1.4932,-1.5618,-1.5997,-1.5946,-1.5957,-1.583,-1.5593,-1.5355,-1.5147,-1.5232,-1.5355,-1.5641,-1.578,-1.6088,-1.6479,-1.6856,-1.7192,-1.7781,-1.8298,-1.8738,-1.8898,-1.8867,-1.8874,-1.8957,-1.8995,-1.8957,-1.9161,-1.9471,-1.9914,-2.028,-2.0473,-2.0679,-2.1198,-2.17,-2.7873,-2.7849,-2.7284,-2.7326,-2.7701,-2.7492,-2.697,-2.6331,-2.6118,-2.5577,-2.4855,-2.5389,-2.5268,-2.4839,-2.4814,-2.492,-2.4603,-2.405,-2.3405,-2.2993,-2.2727,-2.2068,-2.163,-2.1394,-2.1053,-2.0698,-2.0248,-1.9812,-1.9471,-1.9108,-1.9108,-1.9116,-1.9062,-1.8736,-1.8293,-1.7713,-1.696,-1.6287,-1.5671,-1.5348,-1.5331,-1.5463,-1.5684,-1.5953,-1.5982,-1.6053,-1.6026,-1.5642,-1.5531,-1.5468,-1.5415,-1.5166,-1.5156,-1.4569,-1.3844,-1.3477,-1.334,-1.3394,-1.3406,-1.3028,-1.2596,-1.2295,-1.1792,-1.1129,-1.1308,-1.1757,-1.2467,-1.3245,-1.3857,-1.3971,-1.4017,-1.3659,-1.3213,-1.284,-1.2673,-1.284,-1.3238,-1.3582,-1.4124,-1.5084,-1.5625,-1.5999,-1.6692,-1.6462,-1.641,-1.6472,-1.6405,-1.6203,-1.5994,-1.578,-1.5691,-1.5812,-1.5944,-1.6132,-1.6509,-1.6934,-1.731,-1.772,-1.8226,-1.8584,-1.8676,-1.8829,-1.8981,-1.9094,-1.9169,-1.9221,-1.9235,-1.9501,-1.9839,-2.0131,-2.0491,-2.0614,-2.0861,-2.1324,-2.1678,-2.7056,-2.6995,-2.6597,-2.6664,-2.6934,-2.6653,-2.6135,-2.5642,-2.5668,-2.5289,-2.4632,-2.4952,-2.4766,-2.4175,-2.4118,-2.4172,-2.4223,-2.3638,-2.3024,-2.2454,-2.1952,-2.1617,-2.1186,-2.0719,-2.0487,-2.0124,-1.9798,-1.9464,-1.9174,-1.9108,-1.9108,-1.9108,-1.9055,-1.8882,-1.8521,-1.8029,-1.7641,-1.7023,-1.6453,-1.6031,-1.6063,-1.6226,-1.6472,-1.6742,-1.6765,-1.6722,-1.6585,-1.6088,-1.5806,-1.569,-1.5637,-1.5303,-1.5137,-1.4492,-1.4379,-1.4087,-1.3901,-1.3955,-1.3956,-1.3595,-1.3255,-1.3014,-1.2905,-1.2422,-1.2283,-1.2578,-1.3263,-1.3893,-1.4323,-1.4646,-1.463,-1.4555,-1.4118,-1.3691,-1.3691,-1.3745,-1.4031,-1.4377,-1.5288,-1.6367,-1.6976,-1.7311,-1.7361,-1.7075,-1.6842,-1.6871,-1.6802,-1.6604,-1.6429,-1.6293,-1.6169,-1.6207,-1.63,-1.6442,-1.6892,-1.7262,-1.7591,-1.7915,-1.8383,-1.8669,-1.8683,-1.8843,-1.9108,-1.928,-1.942,-1.9472,-1.9531,-1.9797,-2.01,-2.0421,-2.0673,-2.0886,-2.1063,-2.1394,-2.1678,-2.5649,-2.5711,-2.5717,-2.5771,-2.5807,-2.5573,-2.5196,-2.49,-2.5379,-2.5222,-2.4364,-2.4369,-2.4045,-2.3513,-2.3389,-2.3468,-2.3412,-2.3071,-2.2433,-2.2063,-2.172,-2.1264,-2.0621,-2.0306,-1.9972,-1.9762,-1.9537,-1.9239,-1.9159,-1.9108,-1.9108,-1.9108,-1.9116,-1.9015,-1.8921,-1.8156,-1.7866,-1.7976,-1.7105,-1.6438,-1.6803,-1.6946,-1.7008,-1.7371,-1.7424,-1.7385,-1.7146,-1.6754,-1.6301,-1.6083,-1.5761,-1.5277,-1.4824,-1.4639,-1.4814,-1.4756,-1.4438,-1.4419,-1.4429,-1.4218,-1.3886,-1.3641,-1.3442,-1.3474,-1.3566,-1.335,-1.3863,-1.4339,-1.4807,-1.5006,-1.5037,-1.4852,-1.4445,-1.43,-1.4295,-1.4524,-1.4926,-1.5429,-1.632,-1.7313,-1.7748,-1.8091,-1.8071,-1.7771,-1.7266,-1.7267,-1.7217,-1.7071,-1.684,-1.6705,-1.682,-1.6778,-1.685,-1.6934,-1.7102,-1.7468,-1.7794,-1.8154,-1.8546,-1.8676,-1.8651,-1.8927,-1.9272,-1.9406,-1.9581,-1.9697,-1.9856,-2.0053,-2.0315,-2.0663,-2.0886,-2.1119,-2.1355,-2.1587,-2.1751,-2.5758,-2.5738,-2.55,-2.4854,-2.4015,-2.4311,-2.4257,-2.3904,-2.4015,-2.3661,-2.3098,-2.3389,-2.3359,-2.2726,-2.2661,-2.273,-2.278,-2.2341,-2.1564,-2.1155,-2.0933,-2.0564,-1.9799,-1.9595,-1.9406,-1.9304,-1.9166,-1.9108,-1.9108,-1.9108,-1.9108,-1.9108,-1.9123,-1.9125,-1.9105,-1.8282,-1.8135,-1.8549,-1.7803,-1.7411,-1.7994,-1.818,-1.835,-1.8478,-1.8494,-1.8116,-1.771,-1.6978,-1.6528,-1.6192,-1.5695,-1.5243,-1.4805,-1.4976,-1.5005,-1.4917,-1.4785,-1.4831,-1.4812,-1.4787,-1.4538,-1.462,-1.4604,-1.4782,-1.4759,-1.4312,-1.427,-1.4781,-1.5093,-1.5293,-1.5357,-1.5059,-1.4878,-1.4819,-1.4874,-1.5337,-1.5738,-1.6574,-1.7413,-1.7918,-1.8435,-1.8537,-1.8555,-1.8303,-1.7867,-1.7725,-1.7751,-1.762,-1.7238,-1.7103,-1.748,-1.7508,-1.7468,-1.7544,-1.755,-1.772,-1.8049,-1.8293,-1.8606,-1.8659,-1.8666,-1.901,-1.9347,-1.956,-1.9733,-1.9848,-2.0025,-2.0166,-2.046,-2.0803,-2.1055,-2.1245,-2.1562,-2.1857,-2.1978,-2.4781,-2.4775,-2.4743,-2.4158,-2.335,-2.3468,-2.3398,-2.3087,-2.2686,-2.2297,-2.2062,-2.2572,-2.2596,-2.1997,-2.1924,-2.2021,-2.2093,-2.1601,-2.1085,-2.0582,-2.0218,-1.9794,-1.9384,-1.9108,-1.9152,-1.9108,-1.9108,-1.9108,-1.9108,-1.9108,-1.9108,-1.9108,-1.91,-1.9046,-1.8976,-1.844,-1.8365,-1.8734,-1.8181,-1.8404,-1.8976,-1.8938,-1.8967,-1.9092,-1.9046,-1.8721,-1.8387,-1.765,-1.709,-1.6528,-1.5853,-1.5477,-1.5295,-1.5374,-1.5436,-1.5357,-1.5273,-1.5249,-1.5234,-1.5219,-1.5214,-1.5318,-1.5325,-1.5413,-1.5303,-1.4917,-1.484,-1.5225,-1.5244,-1.5415,-1.541,-1.5172,-1.5172,-1.5172,-1.556,-1.6016,-1.6692,-1.7424,-1.8033,-1.8483,-1.8768,-1.881,-1.8766,-1.8396,-1.8037,-1.8061,-1.8147,-1.8136,-1.7776,-1.7644,-1.7997,-1.8098,-1.7983,-1.7848,-1.7713,-1.7975,-1.8354,-1.8549,-1.8666,-1.8697,-1.8767,-1.9116,-1.9457,-1.9596,-1.9805,-2.001,-2.0158,-2.0262,-2.0587,-2.0999,-2.1182,-2.1339,-2.1721,-2.2069,-2.2101,-2.3524,-2.3475,-2.3693,-2.3504,-2.3034,-2.277,-2.2569,-2.2304,-2.1664,-2.1342,-2.1438,-2.2005,-2.1803,-2.1471,-2.1285,-2.1285,-2.131,-2.1358,-2.0867,-2.0415,-2.0227,-1.9724,-1.9347,-1.9108,-1.9108,-1.9108,-1.9108,-1.9108,-1.9108,-1.9108,-1.9108,-1.9108,-1.9024,-1.896,-1.8712,-1.8645,-1.8779,-1.8966,-1.8915,-1.9196,-1.9327,-1.9283,-1.9312,-1.9389,-1.942,-1.9322,-1.9046,-1.8488,-1.7814,-1.7146,-1.6312,-1.5958,-1.5728,-1.5748,-1.5763,-1.5703,-1.5631,-1.5703,-1.5733,-1.5646,-1.5728,-1.5836,-1.5793,-1.5783,-1.5768,-1.5695,-1.5555,-1.5497,-1.5522,-1.5459,-1.5459,-1.5405,-1.5405,-1.5685,-1.6244,-1.6743,-1.7479,-1.8153,-1.8596,-1.8987,-1.9087,-1.9093,-1.8952,-1.8642,-1.8562,-1.8548,-1.8551,-1.8432,-1.8429,-1.8452,-1.8638,-1.8499,-1.824,-1.8104,-1.7942,-1.8142,-1.8524,-1.8517,-1.8595,-1.869,-1.8867,-1.928,-1.9508,-1.9589,-1.9797,-2.008,-2.0185,-2.0227,-2.0646,-2.1087,-2.1245,-2.1401,-2.1857,-2.2135,-2.2126,-2.3313,-2.2986,-2.2815,-2.2532,-2.2224,-2.1823,-2.1637,-2.1738,-2.1469,-2.1285,-2.1326,-2.139,-2.1398,-2.1285,-2.1285,-2.1285,-2.1285,-2.1285,-2.0836,-2.0292,-2.0147,-1.9696,-1.931,-1.9108,-1.9108,-1.9108,-1.9108,-1.9108,-1.9108,-1.9108,-1.9137,-1.9174,-1.9159,-1.9169,-1.9282,-1.9158,-1.9025,-1.9204,-1.925,-1.9353,-1.9648,-1.9634,-1.9665,-1.9643,-1.9512,-1.942,-1.9146,-1.853,-1.8147,-1.7661,-1.7,-1.6565,-1.6348,-1.6244,-1.6134,-1.6129,-1.6072,-1.6024,-1.6024,-1.6129,-1.6181,-1.6124,-1.6176,-1.6337,-1.6275,-1.6213,-1.6135,-1.6073,-1.5963,-1.5651,-1.5593,-1.5512,-1.5575,-1.6358,-1.6973,-1.7473,-1.8038,-1.8483,-1.8875,-1.9192,-1.9396,-1.9494,-1.9658,-1.9522,-1.9641,-1.9618,-1.9681,-1.9575,-1.9046,-1.9151,-1.9279,-1.8932,-1.8552,-1.8458,-1.8354,-1.8307,-1.8524,-1.8524,-1.8556,-1.8697,-1.8974,-1.9435,-1.966,-1.9754,-1.9947,-2.0227,-2.027,-2.0227,-2.0638,-2.1047,-2.1214,-2.144,-2.1924,-2.2189,-2.2172]}]]